<?xml version="1.0" encoding="UTF-8" standalone="no" ?>
<gpx xmlns="http://www.topografix.com/GPX/1/1" xmlns:xsi="http://www.w3.org/2001/XMLSchema-instance" xsi:schemaLocation="http://www.topografix.com/GPX/1/1 http://www.topografix.com/GPX/1/1/gpx.xsd" version="1.1" creator="VisuGPX - https://www.visugpx.com">
  <metadata>
    <name>Randonnée du 29/01/2022 à 21:08</name>
  </metadata>
  <trk>
    <name><![CDATA[Randonnée du 29/01/2022 à 21:08]]></name>
    <trkseg>
      <trkpt lat="42.72062" lon="0.1986">
        <ele>1664</ele>
        <time>2022-01-29T08:33:38+01:00</time>
      </trkpt>
      <trkpt lat="42.7207" lon="0.19863">
        <ele>1666</ele>
        <time>2022-01-29T08:33:48+01:00</time>
      </trkpt>
      <trkpt lat="42.72073" lon="0.19866">
        <ele>1667</ele>
        <time>2022-01-29T08:34:03+01:00</time>
      </trkpt>
      <trkpt lat="42.72074" lon="0.19866">
        <ele>1667</ele>
        <time>2022-01-29T08:34:16+01:00</time>
      </trkpt>
      <trkpt lat="42.72082" lon="0.19867">
        <ele>1669</ele>
      </trkpt>
      <trkpt lat="42.72089" lon="0.19861">
        <ele>1672</ele>
        <time>2022-01-29T08:34:36+01:00</time>
      </trkpt>
      <trkpt lat="42.72089" lon="0.19848">
        <ele>1671</ele>
        <time>2022-01-29T08:34:49+01:00</time>
      </trkpt>
      <trkpt lat="42.72088" lon="0.19838">
        <ele>1670</ele>
        <time>2022-01-29T08:34:58+01:00</time>
      </trkpt>
      <trkpt lat="42.72088" lon="0.19835">
        <ele>1670</ele>
        <time>2022-01-29T08:35:01+01:00</time>
      </trkpt>
      <trkpt lat="42.72089" lon="0.19825">
        <ele>1670</ele>
        <time>2022-01-29T08:35:06+01:00</time>
      </trkpt>
      <trkpt lat="42.72089" lon="0.19818">
        <ele>1670</ele>
        <time>2022-01-29T08:35:12+01:00</time>
      </trkpt>
      <trkpt lat="42.72089" lon="0.19817">
        <ele>1670</ele>
        <time>2022-01-29T08:35:13+01:00</time>
      </trkpt>
      <trkpt lat="42.72089" lon="0.19816">
        <ele>1670</ele>
        <time>2022-01-29T08:35:14+01:00</time>
      </trkpt>
      <trkpt lat="42.7209" lon="0.19813">
        <ele>1670</ele>
        <time>2022-01-29T08:35:16+01:00</time>
      </trkpt>
      <trkpt lat="42.7209" lon="0.19812">
        <ele>1670</ele>
        <time>2022-01-29T08:35:17+01:00</time>
      </trkpt>
      <trkpt lat="42.72092" lon="0.1981">
        <ele>1671</ele>
        <time>2022-01-29T08:35:19+01:00</time>
      </trkpt>
      <trkpt lat="42.72092" lon="0.19807">
        <ele>1671</ele>
        <time>2022-01-29T08:35:21+01:00</time>
      </trkpt>
      <trkpt lat="42.72092" lon="0.19804">
        <ele>1671</ele>
        <time>2022-01-29T08:35:23+01:00</time>
      </trkpt>
      <trkpt lat="42.72092" lon="0.19803">
        <ele>1671</ele>
        <time>2022-01-29T08:35:24+01:00</time>
      </trkpt>
      <trkpt lat="42.72093" lon="0.19801">
        <ele>1672</ele>
        <time>2022-01-29T08:35:25+01:00</time>
      </trkpt>
      <trkpt lat="42.72093" lon="0.198">
        <ele>1672</ele>
        <time>2022-01-29T08:35:26+01:00</time>
      </trkpt>
      <trkpt lat="42.72095" lon="0.19797">
        <ele>1673</ele>
        <time>2022-01-29T08:35:29+01:00</time>
      </trkpt>
      <trkpt lat="42.72095" lon="0.19797">
        <ele>1673</ele>
        <time>2022-01-29T08:35:30+01:00</time>
      </trkpt>
      <trkpt lat="42.72097" lon="0.19796">
        <ele>1674</ele>
        <time>2022-01-29T08:35:33+01:00</time>
      </trkpt>
      <trkpt lat="42.72097" lon="0.19794">
        <ele>1674</ele>
        <time>2022-01-29T08:35:35+01:00</time>
      </trkpt>
      <trkpt lat="42.72097" lon="0.19793">
        <ele>1674</ele>
        <time>2022-01-29T08:35:36+01:00</time>
      </trkpt>
      <trkpt lat="42.72099" lon="0.19792">
        <ele>1675</ele>
        <time>2022-01-29T08:35:40+01:00</time>
      </trkpt>
      <trkpt lat="42.721" lon="0.1979">
        <ele>1675</ele>
        <time>2022-01-29T08:35:42+01:00</time>
      </trkpt>
      <trkpt lat="42.721" lon="0.19789">
        <ele>1675</ele>
        <time>2022-01-29T08:35:44+01:00</time>
      </trkpt>
      <trkpt lat="42.721" lon="0.19789">
        <ele>1675</ele>
        <time>2022-01-29T08:35:46+01:00</time>
      </trkpt>
      <trkpt lat="42.72101" lon="0.19788">
        <ele>1675</ele>
        <time>2022-01-29T08:35:47+01:00</time>
      </trkpt>
      <trkpt lat="42.72102" lon="0.19782">
        <ele>1676</ele>
        <time>2022-01-29T08:35:53+01:00</time>
      </trkpt>
      <trkpt lat="42.72104" lon="0.19781">
        <ele>1677</ele>
        <time>2022-01-29T08:35:55+01:00</time>
      </trkpt>
      <trkpt lat="42.72104" lon="0.1978">
        <ele>1677</ele>
        <time>2022-01-29T08:35:57+01:00</time>
      </trkpt>
      <trkpt lat="42.72104" lon="0.19779">
        <ele>1677</ele>
        <time>2022-01-29T08:35:59+01:00</time>
      </trkpt>
      <trkpt lat="42.72105" lon="0.19777">
        <ele>1677</ele>
        <time>2022-01-29T08:36:02+01:00</time>
      </trkpt>
      <trkpt lat="42.72105" lon="0.19775">
        <ele>1676</ele>
        <time>2022-01-29T08:36:03+01:00</time>
      </trkpt>
      <trkpt lat="42.72109" lon="0.19777">
        <ele>1679</ele>
        <time>2022-01-29T08:36:11+01:00</time>
      </trkpt>
      <trkpt lat="42.7211" lon="0.1978">
        <ele>1680</ele>
        <time>2022-01-29T08:36:14+01:00</time>
      </trkpt>
      <trkpt lat="42.72111" lon="0.19783">
        <ele>1680</ele>
        <time>2022-01-29T08:36:17+01:00</time>
      </trkpt>
      <trkpt lat="42.72111" lon="0.19784">
        <ele>1681</ele>
        <time>2022-01-29T08:36:18+01:00</time>
      </trkpt>
      <trkpt lat="42.72112" lon="0.19787">
        <ele>1681</ele>
        <time>2022-01-29T08:36:21+01:00</time>
      </trkpt>
      <trkpt lat="42.72112" lon="0.19789">
        <ele>1682</ele>
        <time>2022-01-29T08:36:23+01:00</time>
      </trkpt>
      <trkpt lat="42.72112" lon="0.19794">
        <ele>1682</ele>
        <time>2022-01-29T08:36:27+01:00</time>
      </trkpt>
      <trkpt lat="42.72113" lon="0.19798">
        <ele>1683</ele>
        <time>2022-01-29T08:36:31+01:00</time>
      </trkpt>
      <trkpt lat="42.72114" lon="0.19801">
        <ele>1684</ele>
        <time>2022-01-29T08:36:33+01:00</time>
      </trkpt>
      <trkpt lat="42.72117" lon="0.19809">
        <ele>1686</ele>
        <time>2022-01-29T08:36:41+01:00</time>
      </trkpt>
      <trkpt lat="42.72117" lon="0.19812">
        <ele>1686</ele>
        <time>2022-01-29T08:36:44+01:00</time>
      </trkpt>
      <trkpt lat="42.72117" lon="0.19817">
        <ele>1686</ele>
        <time>2022-01-29T08:36:49+01:00</time>
      </trkpt>
      <trkpt lat="42.72117" lon="0.19817">
        <ele>1686</ele>
        <time>2022-01-29T08:36:50+01:00</time>
      </trkpt>
      <trkpt lat="42.7212" lon="0.19828">
        <ele>1689</ele>
        <time>2022-01-29T08:37:00+01:00</time>
      </trkpt>
      <trkpt lat="42.72122" lon="0.19841">
        <ele>1690</ele>
        <time>2022-01-29T08:37:11+01:00</time>
      </trkpt>
      <trkpt lat="42.72125" lon="0.19859">
        <ele>1692</ele>
        <time>2022-01-29T08:37:26+01:00</time>
      </trkpt>
      <trkpt lat="42.72125" lon="0.1987">
        <ele>1696</ele>
        <time>2022-01-29T08:37:37+01:00</time>
      </trkpt>
      <trkpt lat="42.72126" lon="0.19877">
        <ele>1699</ele>
        <time>2022-01-29T08:37:49+01:00</time>
      </trkpt>
      <trkpt lat="42.72125" lon="0.19888">
        <ele>1702</ele>
        <time>2022-01-29T08:38:05+01:00</time>
      </trkpt>
      <trkpt lat="42.7213" lon="0.19893">
        <ele>1707</ele>
        <time>2022-01-29T08:38:16+01:00</time>
      </trkpt>
      <trkpt lat="42.72131" lon="0.19885">
        <ele>1707</ele>
        <time>2022-01-29T08:38:23+01:00</time>
      </trkpt>
      <trkpt lat="42.72132" lon="0.19866">
        <ele>1699</ele>
        <time>2022-01-29T08:38:38+01:00</time>
      </trkpt>
      <trkpt lat="42.72133" lon="0.19861">
        <ele>1698</ele>
        <time>2022-01-29T08:38:42+01:00</time>
      </trkpt>
      <trkpt lat="42.72139" lon="0.19851">
        <ele>1700</ele>
        <time>2022-01-29T08:38:56+01:00</time>
      </trkpt>
      <trkpt lat="42.72143" lon="0.19844">
        <ele>1704</ele>
        <time>2022-01-29T08:39:06+01:00</time>
      </trkpt>
      <trkpt lat="42.72146" lon="0.19833">
        <ele>1706</ele>
        <time>2022-01-29T08:39:19+01:00</time>
      </trkpt>
      <trkpt lat="42.72151" lon="0.19818">
        <ele>1707</ele>
        <time>2022-01-29T08:39:34+01:00</time>
      </trkpt>
      <trkpt lat="42.72156" lon="0.19806">
        <ele>1705</ele>
        <time>2022-01-29T08:39:48+01:00</time>
      </trkpt>
      <trkpt lat="42.72161" lon="0.19792">
        <ele>1705</ele>
        <time>2022-01-29T08:40:02+01:00</time>
      </trkpt>
      <trkpt lat="42.72168" lon="0.19789">
        <ele>1708</ele>
        <time>2022-01-29T08:40:11+01:00</time>
      </trkpt>
      <trkpt lat="42.72178" lon="0.19782">
        <ele>1712</ele>
        <time>2022-01-29T08:40:26+01:00</time>
      </trkpt>
      <trkpt lat="42.72183" lon="0.19773">
        <ele>1713</ele>
        <time>2022-01-29T08:40:39+01:00</time>
      </trkpt>
      <trkpt lat="42.72191" lon="0.1976">
        <ele>1718</ele>
        <time>2022-01-29T08:40:53+01:00</time>
      </trkpt>
      <trkpt lat="42.72196" lon="0.1975">
        <ele>1722</ele>
        <time>2022-01-29T08:41:08+01:00</time>
      </trkpt>
      <trkpt lat="42.72198" lon="0.19747">
        <ele>1724</ele>
        <time>2022-01-29T08:41:21+01:00</time>
      </trkpt>
      <trkpt lat="42.72197" lon="0.19744">
        <ele>1724</ele>
        <time>2022-01-29T08:41:35+01:00</time>
      </trkpt>
      <trkpt lat="42.72193" lon="0.19729">
        <ele>1725</ele>
        <time>2022-01-29T08:41:49+01:00</time>
      </trkpt>
      <trkpt lat="42.72195" lon="0.19721">
        <ele>1727</ele>
        <time>2022-01-29T08:42:03+01:00</time>
      </trkpt>
      <trkpt lat="42.72199" lon="0.19709">
        <ele>1730</ele>
        <time>2022-01-29T08:42:18+01:00</time>
      </trkpt>
      <trkpt lat="42.72202" lon="0.19693">
        <ele>1733</ele>
        <time>2022-01-29T08:42:32+01:00</time>
      </trkpt>
      <trkpt lat="42.72205" lon="0.19683">
        <ele>1735</ele>
        <time>2022-01-29T08:42:50+01:00</time>
      </trkpt>
      <trkpt lat="42.72207" lon="0.19673">
        <ele>1737</ele>
        <time>2022-01-29T08:43:06+01:00</time>
      </trkpt>
      <trkpt lat="42.72211" lon="0.19661">
        <ele>1738</ele>
        <time>2022-01-29T08:43:23+01:00</time>
      </trkpt>
      <trkpt lat="42.72214" lon="0.19661">
        <ele>1740</ele>
        <time>2022-01-29T08:43:39+01:00</time>
      </trkpt>
      <trkpt lat="42.72219" lon="0.19674">
        <ele>1744</ele>
        <time>2022-01-29T08:43:56+01:00</time>
      </trkpt>
      <trkpt lat="42.72222" lon="0.19684">
        <ele>1745</ele>
        <time>2022-01-29T08:44:11+01:00</time>
      </trkpt>
      <trkpt lat="42.72229" lon="0.19693">
        <ele>1749</ele>
        <time>2022-01-29T08:44:26+01:00</time>
      </trkpt>
      <trkpt lat="42.7223" lon="0.197">
        <ele>1750</ele>
        <time>2022-01-29T08:44:41+01:00</time>
      </trkpt>
      <trkpt lat="42.72235" lon="0.19709">
        <ele>1752</ele>
        <time>2022-01-29T08:44:55+01:00</time>
      </trkpt>
      <trkpt lat="42.72237" lon="0.1972">
        <ele>1753</ele>
        <time>2022-01-29T08:45:09+01:00</time>
      </trkpt>
      <trkpt lat="42.7224" lon="0.19721">
        <ele>1755</ele>
        <time>2022-01-29T08:45:25+01:00</time>
      </trkpt>
      <trkpt lat="42.7224" lon="0.19711">
        <ele>1755</ele>
        <time>2022-01-29T08:45:40+01:00</time>
      </trkpt>
      <trkpt lat="42.72242" lon="0.19701">
        <ele>1757</ele>
        <time>2022-01-29T08:45:55+01:00</time>
      </trkpt>
      <trkpt lat="42.72246" lon="0.1969">
        <ele>1759</ele>
        <time>2022-01-29T08:46:11+01:00</time>
      </trkpt>
      <trkpt lat="42.72249" lon="0.19678">
        <ele>1760</ele>
        <time>2022-01-29T08:46:23+01:00</time>
      </trkpt>
      <trkpt lat="42.72251" lon="0.19667">
        <ele>1761</ele>
        <time>2022-01-29T08:46:37+01:00</time>
      </trkpt>
      <trkpt lat="42.72258" lon="0.19665">
        <ele>1767</ele>
        <time>2022-01-29T08:46:54+01:00</time>
      </trkpt>
      <trkpt lat="42.72265" lon="0.19659">
        <ele>1771</ele>
        <time>2022-01-29T08:47:10+01:00</time>
      </trkpt>
      <trkpt lat="42.72272" lon="0.19649">
        <ele>1774</ele>
        <time>2022-01-29T08:47:27+01:00</time>
      </trkpt>
      <trkpt lat="42.72274" lon="0.1964">
        <ele>1772</ele>
        <time>2022-01-29T08:47:42+01:00</time>
      </trkpt>
      <trkpt lat="42.72274" lon="0.19629">
        <ele>1774</ele>
        <time>2022-01-29T08:47:54+01:00</time>
      </trkpt>
      <trkpt lat="42.72273" lon="0.19615">
        <ele>1777</ele>
        <time>2022-01-29T08:48:13+01:00</time>
      </trkpt>
      <trkpt lat="42.72273" lon="0.19605">
        <ele>1780</ele>
        <time>2022-01-29T08:48:27+01:00</time>
      </trkpt>
      <trkpt lat="42.72271" lon="0.19597">
        <ele>1781</ele>
        <time>2022-01-29T08:48:43+01:00</time>
      </trkpt>
      <trkpt lat="42.72273" lon="0.19589">
        <ele>1785</ele>
        <time>2022-01-29T08:48:59+01:00</time>
      </trkpt>
      <trkpt lat="42.72274" lon="0.1958">
        <ele>1788</ele>
        <time>2022-01-29T08:49:12+01:00</time>
      </trkpt>
      <trkpt lat="42.72274" lon="0.19569">
        <ele>1789</ele>
        <time>2022-01-29T08:49:30+01:00</time>
      </trkpt>
      <trkpt lat="42.72277" lon="0.19558">
        <ele>1792</ele>
        <time>2022-01-29T08:49:48+01:00</time>
      </trkpt>
      <trkpt lat="42.72279" lon="0.19544">
        <ele>1796</ele>
        <time>2022-01-29T08:50:05+01:00</time>
      </trkpt>
      <trkpt lat="42.72278" lon="0.1953">
        <ele>1797</ele>
        <time>2022-01-29T08:50:21+01:00</time>
      </trkpt>
      <trkpt lat="42.72278" lon="0.19509">
        <ele>1802</ele>
        <time>2022-01-29T08:50:38+01:00</time>
      </trkpt>
      <trkpt lat="42.72275" lon="0.19495">
        <ele>1805</ele>
        <time>2022-01-29T08:50:49+01:00</time>
      </trkpt>
      <trkpt lat="42.72274" lon="0.19484">
        <ele>1808</ele>
        <time>2022-01-29T08:51:04+01:00</time>
      </trkpt>
      <trkpt lat="42.72268" lon="0.19477">
        <ele>1808</ele>
        <time>2022-01-29T08:51:18+01:00</time>
      </trkpt>
      <trkpt lat="42.72266" lon="0.19468">
        <ele>1812</ele>
        <time>2022-01-29T08:51:33+01:00</time>
      </trkpt>
      <trkpt lat="42.72263" lon="0.19464">
        <ele>1813</ele>
        <time>2022-01-29T08:51:46+01:00</time>
      </trkpt>
      <trkpt lat="42.7226" lon="0.19459">
        <ele>1815</ele>
        <time>2022-01-29T08:52:02+01:00</time>
      </trkpt>
      <trkpt lat="42.72262" lon="0.19457">
        <ele>1816</ele>
        <time>2022-01-29T08:52:19+01:00</time>
      </trkpt>
      <trkpt lat="42.72266" lon="0.19459">
        <ele>1816</ele>
        <time>2022-01-29T08:52:34+01:00</time>
      </trkpt>
      <trkpt lat="42.7227" lon="0.19462">
        <ele>1815</ele>
        <time>2022-01-29T08:53:02+01:00</time>
      </trkpt>
      <trkpt lat="42.72278" lon="0.19471">
        <ele>1813</ele>
        <time>2022-01-29T08:53:21+01:00</time>
      </trkpt>
      <trkpt lat="42.7228" lon="0.19472">
        <ele>1814</ele>
        <time>2022-01-29T08:53:39+01:00</time>
      </trkpt>
      <trkpt lat="42.72283" lon="0.19475">
        <ele>1815</ele>
        <time>2022-01-29T08:53:55+01:00</time>
      </trkpt>
      <trkpt lat="42.72283" lon="0.19474">
        <ele>1815</ele>
        <time>2022-01-29T08:54:13+01:00</time>
      </trkpt>
      <trkpt lat="42.72281" lon="0.19468">
        <ele>1817</ele>
        <time>2022-01-29T08:54:27+01:00</time>
      </trkpt>
      <trkpt lat="42.72279" lon="0.19463">
        <ele>1817</ele>
        <time>2022-01-29T08:54:42+01:00</time>
      </trkpt>
      <trkpt lat="42.72274" lon="0.19457">
        <ele>1818</ele>
        <time>2022-01-29T08:54:57+01:00</time>
      </trkpt>
      <trkpt lat="42.72273" lon="0.19453">
        <ele>1820</ele>
        <time>2022-01-29T08:55:05+01:00</time>
      </trkpt>
      <trkpt lat="42.72266" lon="0.19446">
        <ele>1822</ele>
        <time>2022-01-29T08:55:19+01:00</time>
      </trkpt>
      <trkpt lat="42.72264" lon="0.19444">
        <ele>1823</ele>
        <time>2022-01-29T08:55:22+01:00</time>
      </trkpt>
      <trkpt lat="42.7226" lon="0.19434">
        <ele>1825</ele>
        <time>2022-01-29T08:55:36+01:00</time>
      </trkpt>
      <trkpt lat="42.7226" lon="0.19421">
        <ele>1828</ele>
        <time>2022-01-29T08:55:50+01:00</time>
      </trkpt>
      <trkpt lat="42.72256" lon="0.1941">
        <ele>1830</ele>
        <time>2022-01-29T08:56:06+01:00</time>
      </trkpt>
      <trkpt lat="42.72256" lon="0.194">
        <ele>1832</ele>
        <time>2022-01-29T08:56:21+01:00</time>
      </trkpt>
      <trkpt lat="42.72258" lon="0.19377">
        <ele>1836</ele>
        <time>2022-01-29T08:56:36+01:00</time>
      </trkpt>
      <trkpt lat="42.72261" lon="0.19365">
        <ele>1838</ele>
        <time>2022-01-29T08:56:52+01:00</time>
      </trkpt>
      <trkpt lat="42.72262" lon="0.1936">
        <ele>1839</ele>
        <time>2022-01-29T08:56:58+01:00</time>
      </trkpt>
      <trkpt lat="42.72262" lon="0.19346">
        <ele>1839</ele>
        <time>2022-01-29T08:57:12+01:00</time>
      </trkpt>
      <trkpt lat="42.72262" lon="0.1933">
        <ele>1839</ele>
        <time>2022-01-29T08:57:27+01:00</time>
      </trkpt>
      <trkpt lat="42.72265" lon="0.19315">
        <ele>1840</ele>
        <time>2022-01-29T08:57:42+01:00</time>
      </trkpt>
      <trkpt lat="42.72269" lon="0.19309">
        <ele>1839</ele>
        <time>2022-01-29T08:57:54+01:00</time>
      </trkpt>
      <trkpt lat="42.72273" lon="0.19299">
        <ele>1839</ele>
        <time>2022-01-29T08:58:09+01:00</time>
      </trkpt>
      <trkpt lat="42.72275" lon="0.19289">
        <ele>1838</ele>
        <time>2022-01-29T08:58:23+01:00</time>
      </trkpt>
      <trkpt lat="42.72275" lon="0.19286">
        <ele>1838</ele>
        <time>2022-01-29T08:58:27+01:00</time>
      </trkpt>
      <trkpt lat="42.72276" lon="0.19272">
        <ele>1838</ele>
        <time>2022-01-29T08:58:42+01:00</time>
      </trkpt>
      <trkpt lat="42.72276" lon="0.19269">
        <ele>1838</ele>
        <time>2022-01-29T08:58:46+01:00</time>
      </trkpt>
      <trkpt lat="42.72276" lon="0.19255">
        <ele>1838</ele>
        <time>2022-01-29T08:59:04+01:00</time>
      </trkpt>
      <trkpt lat="42.72277" lon="0.19253">
        <ele>1838</ele>
        <time>2022-01-29T08:59:07+01:00</time>
      </trkpt>
      <trkpt lat="42.72284" lon="0.19244">
        <ele>1841</ele>
        <time>2022-01-29T08:59:21+01:00</time>
      </trkpt>
      <trkpt lat="42.72286" lon="0.19235">
        <ele>1842</ele>
        <time>2022-01-29T08:59:31+01:00</time>
      </trkpt>
      <trkpt lat="42.72292" lon="0.19231">
        <ele>1845</ele>
        <time>2022-01-29T08:59:46+01:00</time>
      </trkpt>
      <trkpt lat="42.72295" lon="0.19222">
        <ele>1847</ele>
        <time>2022-01-29T09:00:05+01:00</time>
      </trkpt>
      <trkpt lat="42.72298" lon="0.19212">
        <ele>1849</ele>
        <time>2022-01-29T09:00:18+01:00</time>
      </trkpt>
      <trkpt lat="42.72303" lon="0.19208">
        <ele>1851</ele>
        <time>2022-01-29T09:00:36+01:00</time>
      </trkpt>
      <trkpt lat="42.72311" lon="0.19213">
        <ele>1855</ele>
        <time>2022-01-29T09:00:51+01:00</time>
      </trkpt>
      <trkpt lat="42.72308" lon="0.19204">
        <ele>1854</ele>
        <time>2022-01-29T09:01:09+01:00</time>
      </trkpt>
      <trkpt lat="42.72311" lon="0.19192">
        <ele>1856</ele>
        <time>2022-01-29T09:01:26+01:00</time>
      </trkpt>
      <trkpt lat="42.72317" lon="0.19183">
        <ele>1859</ele>
        <time>2022-01-29T09:01:40+01:00</time>
      </trkpt>
      <trkpt lat="42.72318" lon="0.19181">
        <ele>1859</ele>
        <time>2022-01-29T09:01:42+01:00</time>
      </trkpt>
      <trkpt lat="42.72319" lon="0.19175">
        <ele>1860</ele>
        <time>2022-01-29T09:01:50+01:00</time>
      </trkpt>
      <trkpt lat="42.72322" lon="0.19164">
        <ele>1861</ele>
        <time>2022-01-29T09:02:01+01:00</time>
      </trkpt>
      <trkpt lat="42.72326" lon="0.19167">
        <ele>1863</ele>
        <time>2022-01-29T09:02:18+01:00</time>
      </trkpt>
      <trkpt lat="42.72328" lon="0.19158">
        <ele>1864</ele>
        <time>2022-01-29T09:02:30+01:00</time>
      </trkpt>
      <trkpt lat="42.72331" lon="0.19158">
        <ele>1865</ele>
        <time>2022-01-29T09:02:34+01:00</time>
      </trkpt>
      <trkpt lat="42.72339" lon="0.19173">
        <ele>1870</ele>
        <time>2022-01-29T09:02:50+01:00</time>
      </trkpt>
      <trkpt lat="42.72341" lon="0.19183">
        <ele>1871</ele>
        <time>2022-01-29T09:03:04+01:00</time>
      </trkpt>
      <trkpt lat="42.72341" lon="0.19185">
        <ele>1872</ele>
        <time>2022-01-29T09:03:06+01:00</time>
      </trkpt>
      <trkpt lat="42.72344" lon="0.19195">
        <ele>1873</ele>
        <time>2022-01-29T09:03:21+01:00</time>
      </trkpt>
      <trkpt lat="42.72343" lon="0.19207">
        <ele>1873</ele>
        <time>2022-01-29T09:03:35+01:00</time>
      </trkpt>
      <trkpt lat="42.72348" lon="0.19224">
        <ele>1878</ele>
        <time>2022-01-29T09:03:54+01:00</time>
      </trkpt>
      <trkpt lat="42.72348" lon="0.19232">
        <ele>1879</ele>
        <time>2022-01-29T09:04:07+01:00</time>
      </trkpt>
      <trkpt lat="42.72347" lon="0.19249">
        <ele>1881</ele>
        <time>2022-01-29T09:04:25+01:00</time>
      </trkpt>
      <trkpt lat="42.72345" lon="0.19265">
        <ele>1882</ele>
        <time>2022-01-29T09:04:45+01:00</time>
      </trkpt>
      <trkpt lat="42.72347" lon="0.1927">
        <ele>1884</ele>
        <time>2022-01-29T09:05:03+01:00</time>
      </trkpt>
      <trkpt lat="42.72348" lon="0.19272">
        <ele>1885</ele>
        <time>2022-01-29T09:05:07+01:00</time>
      </trkpt>
      <trkpt lat="42.72347" lon="0.19272">
        <ele>1885</ele>
        <time>2022-01-29T09:05:10+01:00</time>
      </trkpt>
      <trkpt lat="42.72348" lon="0.19272">
        <ele>1885</ele>
        <time>2022-01-29T09:05:11+01:00</time>
      </trkpt>
      <trkpt lat="42.72349" lon="0.19274">
        <ele>1886</ele>
        <time>2022-01-29T09:05:21+01:00</time>
      </trkpt>
      <trkpt lat="42.72349" lon="0.19273">
        <ele>1886</ele>
        <time>2022-01-29T09:05:22+01:00</time>
      </trkpt>
      <trkpt lat="42.72347" lon="0.19275">
        <ele>1885</ele>
        <time>2022-01-29T09:05:37+01:00</time>
      </trkpt>
      <trkpt lat="42.72346" lon="0.19289">
        <ele>1886</ele>
        <time>2022-01-29T09:05:57+01:00</time>
      </trkpt>
      <trkpt lat="42.72344" lon="0.19301">
        <ele>1885</ele>
        <time>2022-01-29T09:06:14+01:00</time>
      </trkpt>
      <trkpt lat="42.72344" lon="0.19311">
        <ele>1887</ele>
        <time>2022-01-29T09:06:32+01:00</time>
      </trkpt>
      <trkpt lat="42.72347" lon="0.19324">
        <ele>1889</ele>
        <time>2022-01-29T09:06:50+01:00</time>
      </trkpt>
      <trkpt lat="42.72349" lon="0.19336">
        <ele>1892</ele>
        <time>2022-01-29T09:07:04+01:00</time>
      </trkpt>
      <trkpt lat="42.72349" lon="0.19343">
        <ele>1892</ele>
        <time>2022-01-29T09:07:20+01:00</time>
      </trkpt>
      <trkpt lat="42.72351" lon="0.19353">
        <ele>1892</ele>
        <time>2022-01-29T09:07:35+01:00</time>
      </trkpt>
      <trkpt lat="42.72357" lon="0.19364">
        <ele>1896</ele>
        <time>2022-01-29T09:07:52+01:00</time>
      </trkpt>
      <trkpt lat="42.72358" lon="0.19361">
        <ele>1897</ele>
        <time>2022-01-29T09:08:08+01:00</time>
      </trkpt>
      <trkpt lat="42.72359" lon="0.19353">
        <ele>1898</ele>
        <time>2022-01-29T09:08:25+01:00</time>
      </trkpt>
      <trkpt lat="42.72358" lon="0.19347">
        <ele>1898</ele>
        <time>2022-01-29T09:08:42+01:00</time>
      </trkpt>
      <trkpt lat="42.72361" lon="0.1934">
        <ele>1900</ele>
        <time>2022-01-29T09:08:56+01:00</time>
      </trkpt>
      <trkpt lat="42.72362" lon="0.19331">
        <ele>1902</ele>
        <time>2022-01-29T09:09:17+01:00</time>
      </trkpt>
      <trkpt lat="42.72366" lon="0.19323">
        <ele>1904</ele>
        <time>2022-01-29T09:09:36+01:00</time>
      </trkpt>
      <trkpt lat="42.72368" lon="0.1931">
        <ele>1905</ele>
        <time>2022-01-29T09:09:52+01:00</time>
      </trkpt>
      <trkpt lat="42.72367" lon="0.19303">
        <ele>1904</ele>
        <time>2022-01-29T09:10:06+01:00</time>
      </trkpt>
      <trkpt lat="42.72368" lon="0.193">
        <ele>1905</ele>
        <time>2022-01-29T09:10:25+01:00</time>
      </trkpt>
      <trkpt lat="42.7237" lon="0.19295">
        <ele>1906</ele>
        <time>2022-01-29T09:10:47+01:00</time>
      </trkpt>
      <trkpt lat="42.72372" lon="0.19288">
        <ele>1908</ele>
        <time>2022-01-29T09:11:03+01:00</time>
      </trkpt>
      <trkpt lat="42.72376" lon="0.19272">
        <ele>1910</ele>
        <time>2022-01-29T09:11:20+01:00</time>
      </trkpt>
      <trkpt lat="42.72377" lon="0.19257">
        <ele>1909</ele>
        <time>2022-01-29T09:11:37+01:00</time>
      </trkpt>
      <trkpt lat="42.72382" lon="0.19246">
        <ele>1913</ele>
        <time>2022-01-29T09:11:55+01:00</time>
      </trkpt>
      <trkpt lat="42.72385" lon="0.19237">
        <ele>1912</ele>
        <time>2022-01-29T09:12:10+01:00</time>
      </trkpt>
      <trkpt lat="42.72395" lon="0.19222">
        <ele>1917</ele>
        <time>2022-01-29T09:12:25+01:00</time>
      </trkpt>
      <trkpt lat="42.724" lon="0.19211">
        <ele>1920</ele>
        <time>2022-01-29T09:12:38+01:00</time>
      </trkpt>
      <trkpt lat="42.72403" lon="0.19199">
        <ele>1921</ele>
        <time>2022-01-29T09:12:53+01:00</time>
      </trkpt>
      <trkpt lat="42.72404" lon="0.19184">
        <ele>1919</ele>
        <time>2022-01-29T09:13:11+01:00</time>
      </trkpt>
      <trkpt lat="42.7241" lon="0.19173">
        <ele>1924</ele>
        <time>2022-01-29T09:13:25+01:00</time>
      </trkpt>
      <trkpt lat="42.72413" lon="0.19168">
        <ele>1927</ele>
        <time>2022-01-29T09:13:39+01:00</time>
      </trkpt>
      <trkpt lat="42.72416" lon="0.19151">
        <ele>1925</ele>
        <time>2022-01-29T09:13:55+01:00</time>
      </trkpt>
      <trkpt lat="42.72419" lon="0.19142">
        <ele>1925</ele>
        <time>2022-01-29T09:14:11+01:00</time>
      </trkpt>
      <trkpt lat="42.72422" lon="0.19133">
        <ele>1927</ele>
        <time>2022-01-29T09:14:28+01:00</time>
      </trkpt>
      <trkpt lat="42.72425" lon="0.19122">
        <ele>1928</ele>
        <time>2022-01-29T09:14:43+01:00</time>
      </trkpt>
      <trkpt lat="42.72425" lon="0.19108">
        <ele>1928</ele>
        <time>2022-01-29T09:15:02+01:00</time>
      </trkpt>
      <trkpt lat="42.72426" lon="0.19103">
        <ele>1929</ele>
        <time>2022-01-29T09:15:11+01:00</time>
      </trkpt>
      <trkpt lat="42.72428" lon="0.19088">
        <ele>1931</ele>
        <time>2022-01-29T09:15:28+01:00</time>
      </trkpt>
      <trkpt lat="42.72435" lon="0.19085">
        <ele>1937</ele>
        <time>2022-01-29T09:15:43+01:00</time>
      </trkpt>
      <trkpt lat="42.72432" lon="0.19076">
        <ele>1936</ele>
        <time>2022-01-29T09:15:58+01:00</time>
      </trkpt>
      <trkpt lat="42.72431" lon="0.19068">
        <ele>1937</ele>
        <time>2022-01-29T09:16:16+01:00</time>
      </trkpt>
      <trkpt lat="42.7243" lon="0.19057">
        <ele>1939</ele>
        <time>2022-01-29T09:16:33+01:00</time>
      </trkpt>
      <trkpt lat="42.72432" lon="0.19054">
        <ele>1941</ele>
        <time>2022-01-29T09:16:46+01:00</time>
      </trkpt>
      <trkpt lat="42.72433" lon="0.19052">
        <ele>1942</ele>
        <time>2022-01-29T09:17:01+01:00</time>
      </trkpt>
      <trkpt lat="42.72435" lon="0.19047">
        <ele>1945</ele>
        <time>2022-01-29T09:17:15+01:00</time>
      </trkpt>
      <trkpt lat="42.72435" lon="0.19041">
        <ele>1946</ele>
        <time>2022-01-29T09:17:31+01:00</time>
      </trkpt>
      <trkpt lat="42.72432" lon="0.19037">
        <ele>1946</ele>
        <time>2022-01-29T09:17:46+01:00</time>
      </trkpt>
      <trkpt lat="42.72434" lon="0.19028">
        <ele>1949</ele>
        <time>2022-01-29T09:17:59+01:00</time>
      </trkpt>
      <trkpt lat="42.72431" lon="0.19018">
        <ele>1951</ele>
        <time>2022-01-29T09:18:16+01:00</time>
      </trkpt>
      <trkpt lat="42.72428" lon="0.19013">
        <ele>1951</ele>
        <time>2022-01-29T09:18:32+01:00</time>
      </trkpt>
      <trkpt lat="42.72426" lon="0.19003">
        <ele>1953</ele>
        <time>2022-01-29T09:18:48+01:00</time>
      </trkpt>
      <trkpt lat="42.72421" lon="0.1899">
        <ele>1954</ele>
        <time>2022-01-29T09:19:04+01:00</time>
      </trkpt>
      <trkpt lat="42.7242" lon="0.18973">
        <ele>1956</ele>
        <time>2022-01-29T09:19:19+01:00</time>
      </trkpt>
      <trkpt lat="42.72422" lon="0.18965">
        <ele>1959</ele>
        <time>2022-01-29T09:19:33+01:00</time>
      </trkpt>
      <trkpt lat="42.72419" lon="0.18958">
        <ele>1958</ele>
        <time>2022-01-29T09:19:53+01:00</time>
      </trkpt>
      <trkpt lat="42.72419" lon="0.18945">
        <ele>1960</ele>
        <time>2022-01-29T09:20:07+01:00</time>
      </trkpt>
      <trkpt lat="42.72421" lon="0.18933">
        <ele>1962</ele>
        <time>2022-01-29T09:20:20+01:00</time>
      </trkpt>
      <trkpt lat="42.72423" lon="0.18919">
        <ele>1965</ele>
        <time>2022-01-29T09:20:36+01:00</time>
      </trkpt>
      <trkpt lat="42.72426" lon="0.18907">
        <ele>1968</ele>
        <time>2022-01-29T09:20:50+01:00</time>
      </trkpt>
      <trkpt lat="42.72429" lon="0.18893">
        <ele>1971</ele>
        <time>2022-01-29T09:21:08+01:00</time>
      </trkpt>
      <trkpt lat="42.72427" lon="0.18883">
        <ele>1971</ele>
        <time>2022-01-29T09:21:22+01:00</time>
      </trkpt>
      <trkpt lat="42.72423" lon="0.1888">
        <ele>1969</ele>
        <time>2022-01-29T09:21:38+01:00</time>
      </trkpt>
      <trkpt lat="42.72422" lon="0.18871">
        <ele>1971</ele>
        <time>2022-01-29T09:21:51+01:00</time>
      </trkpt>
      <trkpt lat="42.72422" lon="0.1887">
        <ele>1971</ele>
        <time>2022-01-29T09:22:11+01:00</time>
      </trkpt>
      <trkpt lat="42.72423" lon="0.18863">
        <ele>1973</ele>
        <time>2022-01-29T09:22:28+01:00</time>
      </trkpt>
      <trkpt lat="42.72427" lon="0.18862">
        <ele>1976</ele>
        <time>2022-01-29T09:22:44+01:00</time>
      </trkpt>
      <trkpt lat="42.72434" lon="0.18866">
        <ele>1979</ele>
        <time>2022-01-29T09:22:59+01:00</time>
      </trkpt>
      <trkpt lat="42.72438" lon="0.18868">
        <ele>1981</ele>
        <time>2022-01-29T09:23:14+01:00</time>
      </trkpt>
      <trkpt lat="42.72435" lon="0.18857">
        <ele>1981</ele>
        <time>2022-01-29T09:23:33+01:00</time>
      </trkpt>
      <trkpt lat="42.72438" lon="0.18844">
        <ele>1983</ele>
        <time>2022-01-29T09:23:48+01:00</time>
      </trkpt>
      <trkpt lat="42.72441" lon="0.1884">
        <ele>1986</ele>
        <time>2022-01-29T09:24:03+01:00</time>
      </trkpt>
      <trkpt lat="42.72438" lon="0.18836">
        <ele>1984</ele>
        <time>2022-01-29T09:24:32+01:00</time>
      </trkpt>
      <trkpt lat="42.72439" lon="0.18835">
        <ele>1984</ele>
        <time>2022-01-29T09:24:57+01:00</time>
      </trkpt>
      <trkpt lat="42.72439" lon="0.18831">
        <ele>1985</ele>
        <time>2022-01-29T09:25:13+01:00</time>
      </trkpt>
      <trkpt lat="42.72441" lon="0.18818">
        <ele>1986</ele>
        <time>2022-01-29T09:25:31+01:00</time>
      </trkpt>
      <trkpt lat="42.72443" lon="0.18802">
        <ele>1986</ele>
        <time>2022-01-29T09:25:47+01:00</time>
      </trkpt>
      <trkpt lat="42.72447" lon="0.18797">
        <ele>1989</ele>
        <time>2022-01-29T09:26:00+01:00</time>
      </trkpt>
      <trkpt lat="42.72446" lon="0.18802">
        <ele>1988</ele>
        <time>2022-01-29T09:26:11+01:00</time>
      </trkpt>
      <trkpt lat="42.7245" lon="0.18797">
        <ele>1990</ele>
        <time>2022-01-29T09:26:30+01:00</time>
      </trkpt>
      <trkpt lat="42.72454" lon="0.18797">
        <ele>1991</ele>
        <time>2022-01-29T09:26:45+01:00</time>
      </trkpt>
      <trkpt lat="42.72459" lon="0.18801">
        <ele>1993</ele>
        <time>2022-01-29T09:27:00+01:00</time>
      </trkpt>
      <trkpt lat="42.72463" lon="0.18809">
        <ele>1995</ele>
        <time>2022-01-29T09:27:17+01:00</time>
      </trkpt>
      <trkpt lat="42.72467" lon="0.18816">
        <ele>1997</ele>
        <time>2022-01-29T09:27:32+01:00</time>
      </trkpt>
      <trkpt lat="42.72471" lon="0.18824">
        <ele>1999</ele>
        <time>2022-01-29T09:27:47+01:00</time>
      </trkpt>
      <trkpt lat="42.72474" lon="0.18822">
        <ele>2000</ele>
        <time>2022-01-29T09:28:01+01:00</time>
      </trkpt>
      <trkpt lat="42.72479" lon="0.18813">
        <ele>2003</ele>
        <time>2022-01-29T09:28:17+01:00</time>
      </trkpt>
      <trkpt lat="42.72485" lon="0.18809">
        <ele>2007</ele>
        <time>2022-01-29T09:28:33+01:00</time>
      </trkpt>
      <trkpt lat="42.72486" lon="0.18805">
        <ele>2007</ele>
        <time>2022-01-29T09:28:57+01:00</time>
      </trkpt>
      <trkpt lat="42.72486" lon="0.18811">
        <ele>2007</ele>
        <time>2022-01-29T09:29:14+01:00</time>
      </trkpt>
      <trkpt lat="42.72485" lon="0.18814">
        <ele>2006</ele>
        <time>2022-01-29T09:29:48+01:00</time>
      </trkpt>
      <trkpt lat="42.72484" lon="0.18814">
        <ele>2006</ele>
        <time>2022-01-29T09:30:34+01:00</time>
      </trkpt>
      <trkpt lat="42.72486" lon="0.18812">
        <ele>2007</ele>
        <time>2022-01-29T09:31:13+01:00</time>
      </trkpt>
      <trkpt lat="42.72485" lon="0.18813">
        <ele>2006</ele>
        <time>2022-01-29T09:31:54+01:00</time>
      </trkpt>
      <trkpt lat="42.72484" lon="0.18812">
        <ele>2006</ele>
        <time>2022-01-29T09:32:25+01:00</time>
      </trkpt>
      <trkpt lat="42.72483" lon="0.18813">
        <ele>2005</ele>
        <time>2022-01-29T09:32:48+01:00</time>
      </trkpt>
      <trkpt lat="42.72483" lon="0.18813">
        <ele>2005</ele>
        <time>2022-01-29T09:33:20+01:00</time>
      </trkpt>
      <trkpt lat="42.72484" lon="0.18811">
        <ele>2006</ele>
        <time>2022-01-29T09:33:45+01:00</time>
      </trkpt>
      <trkpt lat="42.72484" lon="0.18813">
        <ele>2006</ele>
        <time>2022-01-29T09:34:12+01:00</time>
      </trkpt>
      <trkpt lat="42.72483" lon="0.18814">
        <ele>2005</ele>
        <time>2022-01-29T09:34:47+01:00</time>
      </trkpt>
      <trkpt lat="42.72486" lon="0.18812">
        <ele>2007</ele>
        <time>2022-01-29T09:35:19+01:00</time>
      </trkpt>
      <trkpt lat="42.72484" lon="0.18813">
        <ele>2006</ele>
        <time>2022-01-29T09:35:57+01:00</time>
      </trkpt>
      <trkpt lat="42.72485" lon="0.18812">
        <ele>2006</ele>
        <time>2022-01-29T09:36:44+01:00</time>
      </trkpt>
      <trkpt lat="42.72484" lon="0.18812">
        <ele>2006</ele>
        <time>2022-01-29T09:37:19+01:00</time>
      </trkpt>
      <trkpt lat="42.72484" lon="0.18813">
        <ele>2006</ele>
        <time>2022-01-29T09:38:04+01:00</time>
      </trkpt>
      <trkpt lat="42.72482" lon="0.18815">
        <ele>2005</ele>
        <time>2022-01-29T09:38:35+01:00</time>
      </trkpt>
      <trkpt lat="42.72482" lon="0.18813">
        <ele>2005</ele>
        <time>2022-01-29T09:39:03+01:00</time>
      </trkpt>
      <trkpt lat="42.72479" lon="0.18812">
        <ele>2003</ele>
        <time>2022-01-29T09:39:20+01:00</time>
      </trkpt>
      <trkpt lat="42.72483" lon="0.18811">
        <ele>2005</ele>
        <time>2022-01-29T09:39:43+01:00</time>
      </trkpt>
      <trkpt lat="42.72488" lon="0.18814">
        <ele>2008</ele>
        <time>2022-01-29T09:39:59+01:00</time>
      </trkpt>
      <trkpt lat="42.72486" lon="0.1881">
        <ele>2007</ele>
        <time>2022-01-29T09:40:15+01:00</time>
      </trkpt>
      <trkpt lat="42.72484" lon="0.18813">
        <ele>2006</ele>
        <time>2022-01-29T09:40:31+01:00</time>
      </trkpt>
      <trkpt lat="42.72485" lon="0.18814">
        <ele>2006</ele>
        <time>2022-01-29T09:40:51+01:00</time>
      </trkpt>
      <trkpt lat="42.72484" lon="0.18808">
        <ele>2006</ele>
        <time>2022-01-29T09:41:08+01:00</time>
      </trkpt>
      <trkpt lat="42.72485" lon="0.188">
        <ele>2006</ele>
        <time>2022-01-29T09:41:27+01:00</time>
      </trkpt>
      <trkpt lat="42.72486" lon="0.18801">
        <ele>2007</ele>
        <time>2022-01-29T09:41:49+01:00</time>
      </trkpt>
      <trkpt lat="42.72487" lon="0.18803">
        <ele>2007</ele>
        <time>2022-01-29T09:41:56+01:00</time>
      </trkpt>
      <trkpt lat="42.72487" lon="0.18802">
        <ele>2007</ele>
        <time>2022-01-29T09:41:57+01:00</time>
      </trkpt>
      <trkpt lat="42.72487" lon="0.18803">
        <ele>2008</ele>
        <time>2022-01-29T09:42:00+01:00</time>
      </trkpt>
      <trkpt lat="42.72484" lon="0.188">
        <ele>2006</ele>
        <time>2022-01-29T09:42:16+01:00</time>
      </trkpt>
      <trkpt lat="42.72485" lon="0.188">
        <ele>2006</ele>
        <time>2022-01-29T09:42:26+01:00</time>
      </trkpt>
      <trkpt lat="42.72493" lon="0.18792">
        <ele>2010</ele>
        <time>2022-01-29T09:42:43+01:00</time>
      </trkpt>
      <trkpt lat="42.72501" lon="0.18782">
        <ele>2014</ele>
        <time>2022-01-29T09:43:01+01:00</time>
      </trkpt>
      <trkpt lat="42.72505" lon="0.18774">
        <ele>2014</ele>
        <time>2022-01-29T09:43:15+01:00</time>
      </trkpt>
      <trkpt lat="42.72507" lon="0.18769">
        <ele>2015</ele>
        <time>2022-01-29T09:43:21+01:00</time>
      </trkpt>
      <trkpt lat="42.72511" lon="0.18756">
        <ele>2015</ele>
        <time>2022-01-29T09:43:35+01:00</time>
      </trkpt>
      <trkpt lat="42.72519" lon="0.1875">
        <ele>2017</ele>
        <time>2022-01-29T09:43:52+01:00</time>
      </trkpt>
      <trkpt lat="42.72525" lon="0.1874">
        <ele>2018</ele>
        <time>2022-01-29T09:44:08+01:00</time>
      </trkpt>
      <trkpt lat="42.72525" lon="0.18739">
        <ele>2018</ele>
        <time>2022-01-29T09:44:09+01:00</time>
      </trkpt>
      <trkpt lat="42.7253" lon="0.18738">
        <ele>2019</ele>
        <time>2022-01-29T09:44:24+01:00</time>
      </trkpt>
      <trkpt lat="42.72529" lon="0.18738">
        <ele>2019</ele>
        <time>2022-01-29T09:44:52+01:00</time>
      </trkpt>
      <trkpt lat="42.72528" lon="0.18737">
        <ele>2019</ele>
        <time>2022-01-29T09:44:58+01:00</time>
      </trkpt>
      <trkpt lat="42.72526" lon="0.18736">
        <ele>2018</ele>
        <time>2022-01-29T09:45:24+01:00</time>
      </trkpt>
      <trkpt lat="42.72529" lon="0.18734">
        <ele>2019</ele>
        <time>2022-01-29T09:45:42+01:00</time>
      </trkpt>
      <trkpt lat="42.72535" lon="0.18728">
        <ele>2021</ele>
        <time>2022-01-29T09:45:57+01:00</time>
      </trkpt>
      <trkpt lat="42.72545" lon="0.18724">
        <ele>2025</ele>
        <time>2022-01-29T09:46:11+01:00</time>
      </trkpt>
      <trkpt lat="42.72552" lon="0.1873">
        <ele>2028</ele>
        <time>2022-01-29T09:46:24+01:00</time>
      </trkpt>
      <trkpt lat="42.72553" lon="0.18736">
        <ele>2029</ele>
        <time>2022-01-29T09:46:41+01:00</time>
      </trkpt>
      <trkpt lat="42.72556" lon="0.18729">
        <ele>2030</ele>
        <time>2022-01-29T09:46:57+01:00</time>
      </trkpt>
      <trkpt lat="42.72561" lon="0.1872">
        <ele>2031</ele>
        <time>2022-01-29T09:47:11+01:00</time>
      </trkpt>
      <trkpt lat="42.72567" lon="0.18711">
        <ele>2034</ele>
        <time>2022-01-29T09:47:27+01:00</time>
      </trkpt>
      <trkpt lat="42.72572" lon="0.18717">
        <ele>2037</ele>
        <time>2022-01-29T09:47:43+01:00</time>
      </trkpt>
      <trkpt lat="42.72576" lon="0.18724">
        <ele>2039</ele>
        <time>2022-01-29T09:47:56+01:00</time>
      </trkpt>
      <trkpt lat="42.72578" lon="0.18725">
        <ele>2040</ele>
        <time>2022-01-29T09:48:12+01:00</time>
      </trkpt>
      <trkpt lat="42.72582" lon="0.18717">
        <ele>2041</ele>
        <time>2022-01-29T09:48:25+01:00</time>
      </trkpt>
      <trkpt lat="42.72586" lon="0.18711">
        <ele>2043</ele>
        <time>2022-01-29T09:48:38+01:00</time>
      </trkpt>
      <trkpt lat="42.72588" lon="0.18708">
        <ele>2044</ele>
        <time>2022-01-29T09:48:50+01:00</time>
      </trkpt>
      <trkpt lat="42.7259" lon="0.18705">
        <ele>2045</ele>
        <time>2022-01-29T09:48:57+01:00</time>
      </trkpt>
      <trkpt lat="42.72595" lon="0.18698">
        <ele>2047</ele>
        <time>2022-01-29T09:49:11+01:00</time>
      </trkpt>
      <trkpt lat="42.726" lon="0.18689">
        <ele>2049</ele>
        <time>2022-01-29T09:49:26+01:00</time>
      </trkpt>
      <trkpt lat="42.72607" lon="0.1868">
        <ele>2051</ele>
        <time>2022-01-29T09:49:42+01:00</time>
      </trkpt>
      <trkpt lat="42.72614" lon="0.18671">
        <ele>2054</ele>
        <time>2022-01-29T09:49:57+01:00</time>
      </trkpt>
      <trkpt lat="42.72624" lon="0.1866">
        <ele>2056</ele>
        <time>2022-01-29T09:50:13+01:00</time>
      </trkpt>
      <trkpt lat="42.72626" lon="0.18659">
        <ele>2057</ele>
        <time>2022-01-29T09:50:16+01:00</time>
      </trkpt>
      <trkpt lat="42.7263" lon="0.18657">
        <ele>2058</ele>
        <time>2022-01-29T09:50:22+01:00</time>
      </trkpt>
      <trkpt lat="42.72632" lon="0.18654">
        <ele>2058</ele>
        <time>2022-01-29T09:50:25+01:00</time>
      </trkpt>
      <trkpt lat="42.7264" lon="0.18646">
        <ele>2060</ele>
        <time>2022-01-29T09:50:39+01:00</time>
      </trkpt>
      <trkpt lat="42.72647" lon="0.18633">
        <ele>2061</ele>
        <time>2022-01-29T09:50:57+01:00</time>
      </trkpt>
      <trkpt lat="42.72656" lon="0.18619">
        <ele>2062</ele>
        <time>2022-01-29T09:51:11+01:00</time>
      </trkpt>
      <trkpt lat="42.7266" lon="0.18618">
        <ele>2063</ele>
        <time>2022-01-29T09:51:26+01:00</time>
      </trkpt>
      <trkpt lat="42.72667" lon="0.18612">
        <ele>2065</ele>
        <time>2022-01-29T09:51:42+01:00</time>
      </trkpt>
      <trkpt lat="42.72674" lon="0.18601">
        <ele>2067</ele>
        <time>2022-01-29T09:51:55+01:00</time>
      </trkpt>
      <trkpt lat="42.72678" lon="0.18592">
        <ele>2067</ele>
        <time>2022-01-29T09:52:07+01:00</time>
      </trkpt>
      <trkpt lat="42.72684" lon="0.18581">
        <ele>2069</ele>
        <time>2022-01-29T09:52:22+01:00</time>
      </trkpt>
      <trkpt lat="42.72689" lon="0.18572">
        <ele>2071</ele>
        <time>2022-01-29T09:52:34+01:00</time>
      </trkpt>
      <trkpt lat="42.72695" lon="0.18564">
        <ele>2072</ele>
        <time>2022-01-29T09:52:46+01:00</time>
      </trkpt>
      <trkpt lat="42.727" lon="0.18555">
        <ele>2074</ele>
        <time>2022-01-29T09:52:59+01:00</time>
      </trkpt>
      <trkpt lat="42.72705" lon="0.18544">
        <ele>2075</ele>
        <time>2022-01-29T09:53:15+01:00</time>
      </trkpt>
      <trkpt lat="42.72712" lon="0.18538">
        <ele>2078</ele>
        <time>2022-01-29T09:53:30+01:00</time>
      </trkpt>
      <trkpt lat="42.72716" lon="0.18528">
        <ele>2079</ele>
        <time>2022-01-29T09:53:43+01:00</time>
      </trkpt>
      <trkpt lat="42.72723" lon="0.18517">
        <ele>2081</ele>
        <time>2022-01-29T09:53:56+01:00</time>
      </trkpt>
      <trkpt lat="42.72729" lon="0.1851">
        <ele>2083</ele>
        <time>2022-01-29T09:54:08+01:00</time>
      </trkpt>
      <trkpt lat="42.72733" lon="0.185">
        <ele>2084</ele>
        <time>2022-01-29T09:54:20+01:00</time>
      </trkpt>
      <trkpt lat="42.72735" lon="0.18487">
        <ele>2085</ele>
        <time>2022-01-29T09:54:34+01:00</time>
      </trkpt>
      <trkpt lat="42.7274" lon="0.18481">
        <ele>2086</ele>
        <time>2022-01-29T09:54:44+01:00</time>
      </trkpt>
      <trkpt lat="42.72747" lon="0.18471">
        <ele>2089</ele>
        <time>2022-01-29T09:54:58+01:00</time>
      </trkpt>
      <trkpt lat="42.72751" lon="0.18466">
        <ele>2090</ele>
        <time>2022-01-29T09:55:09+01:00</time>
      </trkpt>
      <trkpt lat="42.72758" lon="0.18453">
        <ele>2092</ele>
        <time>2022-01-29T09:55:25+01:00</time>
      </trkpt>
      <trkpt lat="42.72765" lon="0.18442">
        <ele>2093</ele>
        <time>2022-01-29T09:55:41+01:00</time>
      </trkpt>
      <trkpt lat="42.72773" lon="0.18427">
        <ele>2095</ele>
        <time>2022-01-29T09:55:58+01:00</time>
      </trkpt>
      <trkpt lat="42.72779" lon="0.18412">
        <ele>2097</ele>
        <time>2022-01-29T09:56:14+01:00</time>
      </trkpt>
      <trkpt lat="42.72783" lon="0.18405">
        <ele>2098</ele>
        <time>2022-01-29T09:56:26+01:00</time>
      </trkpt>
      <trkpt lat="42.72784" lon="0.18385">
        <ele>2099</ele>
        <time>2022-01-29T09:56:42+01:00</time>
      </trkpt>
      <trkpt lat="42.72785" lon="0.18371">
        <ele>2099</ele>
        <time>2022-01-29T09:56:58+01:00</time>
      </trkpt>
      <trkpt lat="42.72788" lon="0.18364">
        <ele>2101</ele>
        <time>2022-01-29T09:57:18+01:00</time>
      </trkpt>
      <trkpt lat="42.72788" lon="0.18349">
        <ele>2101</ele>
        <time>2022-01-29T09:57:34+01:00</time>
      </trkpt>
      <trkpt lat="42.72794" lon="0.18336">
        <ele>2104</ele>
        <time>2022-01-29T09:57:53+01:00</time>
      </trkpt>
      <trkpt lat="42.72801" lon="0.1833">
        <ele>2106</ele>
        <time>2022-01-29T09:58:05+01:00</time>
      </trkpt>
      <trkpt lat="42.72806" lon="0.18318">
        <ele>2107</ele>
        <time>2022-01-29T09:58:22+01:00</time>
      </trkpt>
      <trkpt lat="42.72815" lon="0.18312">
        <ele>2110</ele>
        <time>2022-01-29T09:58:41+01:00</time>
      </trkpt>
      <trkpt lat="42.72818" lon="0.18307">
        <ele>2111</ele>
        <time>2022-01-29T09:58:47+01:00</time>
      </trkpt>
      <trkpt lat="42.72826" lon="0.18303">
        <ele>2113</ele>
        <time>2022-01-29T09:59:02+01:00</time>
      </trkpt>
      <trkpt lat="42.72829" lon="0.18304">
        <ele>2115</ele>
        <time>2022-01-29T09:59:16+01:00</time>
      </trkpt>
      <trkpt lat="42.72833" lon="0.18303">
        <ele>2116</ele>
        <time>2022-01-29T09:59:40+01:00</time>
      </trkpt>
      <trkpt lat="42.72833" lon="0.18302">
        <ele>2116</ele>
        <time>2022-01-29T10:00:00+01:00</time>
      </trkpt>
      <trkpt lat="42.72839" lon="0.18298">
        <ele>2117</ele>
        <time>2022-01-29T10:00:18+01:00</time>
      </trkpt>
      <trkpt lat="42.72847" lon="0.18295">
        <ele>2119</ele>
        <time>2022-01-29T10:00:32+01:00</time>
      </trkpt>
      <trkpt lat="42.72856" lon="0.1829">
        <ele>2122</ele>
        <time>2022-01-29T10:00:48+01:00</time>
      </trkpt>
      <trkpt lat="42.72865" lon="0.18288">
        <ele>2124</ele>
        <time>2022-01-29T10:01:03+01:00</time>
      </trkpt>
      <trkpt lat="42.72876" lon="0.18284">
        <ele>2128</ele>
        <time>2022-01-29T10:01:19+01:00</time>
      </trkpt>
      <trkpt lat="42.72883" lon="0.18274">
        <ele>2128</ele>
        <time>2022-01-29T10:01:36+01:00</time>
      </trkpt>
      <trkpt lat="42.7289" lon="0.18262">
        <ele>2129</ele>
        <time>2022-01-29T10:01:53+01:00</time>
      </trkpt>
      <trkpt lat="42.72896" lon="0.18248">
        <ele>2131</ele>
        <time>2022-01-29T10:02:11+01:00</time>
      </trkpt>
      <trkpt lat="42.72903" lon="0.18242">
        <ele>2135</ele>
        <time>2022-01-29T10:02:26+01:00</time>
      </trkpt>
      <trkpt lat="42.72904" lon="0.18233">
        <ele>2136</ele>
        <time>2022-01-29T10:02:43+01:00</time>
      </trkpt>
      <trkpt lat="42.72907" lon="0.18217">
        <ele>2137</ele>
        <time>2022-01-29T10:02:59+01:00</time>
      </trkpt>
      <trkpt lat="42.72911" lon="0.18203">
        <ele>2140</ele>
        <time>2022-01-29T10:03:18+01:00</time>
      </trkpt>
      <trkpt lat="42.72916" lon="0.18192">
        <ele>2143</ele>
        <time>2022-01-29T10:03:35+01:00</time>
      </trkpt>
      <trkpt lat="42.7292" lon="0.18183">
        <ele>2145</ele>
        <time>2022-01-29T10:03:53+01:00</time>
      </trkpt>
      <trkpt lat="42.72924" lon="0.18174">
        <ele>2148</ele>
        <time>2022-01-29T10:04:08+01:00</time>
      </trkpt>
      <trkpt lat="42.72925" lon="0.18174">
        <ele>2148</ele>
        <time>2022-01-29T10:04:29+01:00</time>
      </trkpt>
      <trkpt lat="42.72926" lon="0.18175">
        <ele>2148</ele>
        <time>2022-01-29T10:04:52+01:00</time>
      </trkpt>
      <trkpt lat="42.7293" lon="0.18166">
        <ele>2150</ele>
        <time>2022-01-29T10:05:06+01:00</time>
      </trkpt>
      <trkpt lat="42.72935" lon="0.18157">
        <ele>2153</ele>
        <time>2022-01-29T10:05:23+01:00</time>
      </trkpt>
      <trkpt lat="42.72943" lon="0.18158">
        <ele>2156</ele>
        <time>2022-01-29T10:05:37+01:00</time>
      </trkpt>
      <trkpt lat="42.72949" lon="0.18159">
        <ele>2158</ele>
        <time>2022-01-29T10:05:50+01:00</time>
      </trkpt>
      <trkpt lat="42.72958" lon="0.1816">
        <ele>2161</ele>
        <time>2022-01-29T10:06:09+01:00</time>
      </trkpt>
      <trkpt lat="42.72958" lon="0.18158">
        <ele>2162</ele>
        <time>2022-01-29T10:06:38+01:00</time>
      </trkpt>
      <trkpt lat="42.72964" lon="0.18156">
        <ele>2164</ele>
        <time>2022-01-29T10:06:55+01:00</time>
      </trkpt>
      <trkpt lat="42.72969" lon="0.18148">
        <ele>2166</ele>
        <time>2022-01-29T10:07:09+01:00</time>
      </trkpt>
      <trkpt lat="42.72974" lon="0.18144">
        <ele>2168</ele>
        <time>2022-01-29T10:07:22+01:00</time>
      </trkpt>
      <trkpt lat="42.72978" lon="0.18138">
        <ele>2170</ele>
        <time>2022-01-29T10:07:35+01:00</time>
      </trkpt>
      <trkpt lat="42.72983" lon="0.1813">
        <ele>2171</ele>
        <time>2022-01-29T10:07:50+01:00</time>
      </trkpt>
      <trkpt lat="42.72989" lon="0.18121">
        <ele>2174</ele>
        <time>2022-01-29T10:08:04+01:00</time>
      </trkpt>
      <trkpt lat="42.72993" lon="0.18115">
        <ele>2175</ele>
        <time>2022-01-29T10:08:20+01:00</time>
      </trkpt>
      <trkpt lat="42.72997" lon="0.181">
        <ele>2177</ele>
        <time>2022-01-29T10:08:39+01:00</time>
      </trkpt>
      <trkpt lat="42.73002" lon="0.18084">
        <ele>2179</ele>
        <time>2022-01-29T10:08:58+01:00</time>
      </trkpt>
      <trkpt lat="42.73006" lon="0.18075">
        <ele>2180</ele>
        <time>2022-01-29T10:09:14+01:00</time>
      </trkpt>
      <trkpt lat="42.7301" lon="0.18066">
        <ele>2182</ele>
        <time>2022-01-29T10:09:29+01:00</time>
      </trkpt>
      <trkpt lat="42.73015" lon="0.18055">
        <ele>2183</ele>
        <time>2022-01-29T10:09:43+01:00</time>
      </trkpt>
      <trkpt lat="42.7302" lon="0.18049">
        <ele>2185</ele>
        <time>2022-01-29T10:09:58+01:00</time>
      </trkpt>
      <trkpt lat="42.73024" lon="0.18039">
        <ele>2186</ele>
        <time>2022-01-29T10:10:14+01:00</time>
      </trkpt>
      <trkpt lat="42.73026" lon="0.18037">
        <ele>2187</ele>
        <time>2022-01-29T10:10:35+01:00</time>
      </trkpt>
      <trkpt lat="42.73024" lon="0.18037">
        <ele>2186</ele>
        <time>2022-01-29T10:10:57+01:00</time>
      </trkpt>
      <trkpt lat="42.73029" lon="0.18031">
        <ele>2188</ele>
        <time>2022-01-29T10:11:11+01:00</time>
      </trkpt>
      <trkpt lat="42.73034" lon="0.18023">
        <ele>2189</ele>
        <time>2022-01-29T10:11:26+01:00</time>
      </trkpt>
      <trkpt lat="42.73037" lon="0.18017">
        <ele>2191</ele>
        <time>2022-01-29T10:11:43+01:00</time>
      </trkpt>
      <trkpt lat="42.73041" lon="0.18007">
        <ele>2192</ele>
        <time>2022-01-29T10:11:57+01:00</time>
      </trkpt>
      <trkpt lat="42.73045" lon="0.17999">
        <ele>2193</ele>
        <time>2022-01-29T10:12:12+01:00</time>
      </trkpt>
      <trkpt lat="42.73046" lon="0.18009">
        <ele>2194</ele>
        <time>2022-01-29T10:12:45+01:00</time>
      </trkpt>
      <trkpt lat="42.73049" lon="0.18012">
        <ele>2195</ele>
        <time>2022-01-29T10:13:08+01:00</time>
      </trkpt>
      <trkpt lat="42.73055" lon="0.18004">
        <ele>2197</ele>
        <time>2022-01-29T10:13:24+01:00</time>
      </trkpt>
      <trkpt lat="42.73062" lon="0.17997">
        <ele>2200</ele>
        <time>2022-01-29T10:13:39+01:00</time>
      </trkpt>
      <trkpt lat="42.73069" lon="0.1799">
        <ele>2203</ele>
        <time>2022-01-29T10:13:57+01:00</time>
      </trkpt>
      <trkpt lat="42.73076" lon="0.17981">
        <ele>2205</ele>
        <time>2022-01-29T10:14:13+01:00</time>
      </trkpt>
      <trkpt lat="42.73084" lon="0.17969">
        <ele>2208</ele>
        <time>2022-01-29T10:14:34+01:00</time>
      </trkpt>
      <trkpt lat="42.73091" lon="0.17963">
        <ele>2211</ele>
        <time>2022-01-29T10:14:49+01:00</time>
      </trkpt>
      <trkpt lat="42.73095" lon="0.1795">
        <ele>2211</ele>
        <time>2022-01-29T10:15:03+01:00</time>
      </trkpt>
      <trkpt lat="42.73101" lon="0.17941">
        <ele>2214</ele>
        <time>2022-01-29T10:15:19+01:00</time>
      </trkpt>
      <trkpt lat="42.73106" lon="0.17929">
        <ele>2215</ele>
        <time>2022-01-29T10:15:36+01:00</time>
      </trkpt>
      <trkpt lat="42.73114" lon="0.17929">
        <ele>2218</ele>
        <time>2022-01-29T10:15:56+01:00</time>
      </trkpt>
      <trkpt lat="42.73114" lon="0.17924">
        <ele>2218</ele>
        <time>2022-01-29T10:16:27+01:00</time>
      </trkpt>
      <trkpt lat="42.73113" lon="0.17922">
        <ele>2217</ele>
        <time>2022-01-29T10:16:52+01:00</time>
      </trkpt>
      <trkpt lat="42.73112" lon="0.17915">
        <ele>2216</ele>
        <time>2022-01-29T10:17:23+01:00</time>
      </trkpt>
      <trkpt lat="42.73113" lon="0.17917">
        <ele>2217</ele>
        <time>2022-01-29T10:17:57+01:00</time>
      </trkpt>
      <trkpt lat="42.73116" lon="0.17923">
        <ele>2219</ele>
        <time>2022-01-29T10:18:21+01:00</time>
      </trkpt>
      <trkpt lat="42.73114" lon="0.17921">
        <ele>2218</ele>
        <time>2022-01-29T10:18:42+01:00</time>
      </trkpt>
      <trkpt lat="42.7311" lon="0.17916">
        <ele>2216</ele>
        <time>2022-01-29T10:19:08+01:00</time>
      </trkpt>
      <trkpt lat="42.7311" lon="0.17915">
        <ele>2216</ele>
        <time>2022-01-29T10:19:24+01:00</time>
      </trkpt>
      <trkpt lat="42.73115" lon="0.1791">
        <ele>2218</ele>
        <time>2022-01-29T10:19:36+01:00</time>
      </trkpt>
      <trkpt lat="42.73122" lon="0.17904">
        <ele>2221</ele>
        <time>2022-01-29T10:19:52+01:00</time>
      </trkpt>
      <trkpt lat="42.73127" lon="0.17894">
        <ele>2224</ele>
        <time>2022-01-29T10:20:08+01:00</time>
      </trkpt>
      <trkpt lat="42.73134" lon="0.17886">
        <ele>2227</ele>
        <time>2022-01-29T10:20:24+01:00</time>
      </trkpt>
      <trkpt lat="42.7314" lon="0.1788">
        <ele>2230</ele>
        <time>2022-01-29T10:20:39+01:00</time>
      </trkpt>
      <trkpt lat="42.73145" lon="0.17872">
        <ele>2233</ele>
        <time>2022-01-29T10:20:58+01:00</time>
      </trkpt>
      <trkpt lat="42.7315" lon="0.17862">
        <ele>2236</ele>
        <time>2022-01-29T10:21:17+01:00</time>
      </trkpt>
      <trkpt lat="42.73158" lon="0.17853">
        <ele>2240</ele>
        <time>2022-01-29T10:21:35+01:00</time>
      </trkpt>
      <trkpt lat="42.73165" lon="0.17842">
        <ele>2243</ele>
        <time>2022-01-29T10:21:54+01:00</time>
      </trkpt>
      <trkpt lat="42.73169" lon="0.17836">
        <ele>2245</ele>
        <time>2022-01-29T10:22:05+01:00</time>
      </trkpt>
      <trkpt lat="42.73173" lon="0.17825">
        <ele>2245</ele>
        <time>2022-01-29T10:22:23+01:00</time>
      </trkpt>
      <trkpt lat="42.73176" lon="0.17817">
        <ele>2246</ele>
        <time>2022-01-29T10:22:37+01:00</time>
      </trkpt>
      <trkpt lat="42.73178" lon="0.17818">
        <ele>2247</ele>
        <time>2022-01-29T10:22:54+01:00</time>
      </trkpt>
      <trkpt lat="42.73179" lon="0.17814">
        <ele>2246</ele>
        <time>2022-01-29T10:23:20+01:00</time>
      </trkpt>
      <trkpt lat="42.73184" lon="0.17806">
        <ele>2248</ele>
        <time>2022-01-29T10:23:34+01:00</time>
      </trkpt>
      <trkpt lat="42.73193" lon="0.17799">
        <ele>2252</ele>
        <time>2022-01-29T10:23:49+01:00</time>
      </trkpt>
      <trkpt lat="42.73202" lon="0.17797">
        <ele>2256</ele>
        <time>2022-01-29T10:24:05+01:00</time>
      </trkpt>
      <trkpt lat="42.73201" lon="0.17797">
        <ele>2256</ele>
        <time>2022-01-29T10:24:25+01:00</time>
      </trkpt>
      <trkpt lat="42.73195" lon="0.17804">
        <ele>2254</ele>
        <time>2022-01-29T10:24:37+01:00</time>
      </trkpt>
      <trkpt lat="42.73194" lon="0.1781">
        <ele>2255</ele>
        <time>2022-01-29T10:24:54+01:00</time>
      </trkpt>
      <trkpt lat="42.73195" lon="0.17809">
        <ele>2255</ele>
        <time>2022-01-29T10:25:15+01:00</time>
      </trkpt>
      <trkpt lat="42.73198" lon="0.17802">
        <ele>2255</ele>
        <time>2022-01-29T10:25:26+01:00</time>
      </trkpt>
      <trkpt lat="42.73205" lon="0.17796">
        <ele>2258</ele>
        <time>2022-01-29T10:25:42+01:00</time>
      </trkpt>
      <trkpt lat="42.73212" lon="0.17791">
        <ele>2260</ele>
        <time>2022-01-29T10:25:58+01:00</time>
      </trkpt>
      <trkpt lat="42.7322" lon="0.17791">
        <ele>2265</ele>
        <time>2022-01-29T10:26:11+01:00</time>
      </trkpt>
      <trkpt lat="42.7322" lon="0.17782">
        <ele>2263</ele>
        <time>2022-01-29T10:26:24+01:00</time>
      </trkpt>
      <trkpt lat="42.73232" lon="0.17776">
        <ele>2268</ele>
        <time>2022-01-29T10:26:41+01:00</time>
      </trkpt>
      <trkpt lat="42.73238" lon="0.17769">
        <ele>2270</ele>
        <time>2022-01-29T10:26:57+01:00</time>
      </trkpt>
      <trkpt lat="42.73243" lon="0.17759">
        <ele>2271</ele>
        <time>2022-01-29T10:27:16+01:00</time>
      </trkpt>
      <trkpt lat="42.73253" lon="0.17752">
        <ele>2274</ele>
        <time>2022-01-29T10:27:32+01:00</time>
      </trkpt>
      <trkpt lat="42.73258" lon="0.17746">
        <ele>2276</ele>
        <time>2022-01-29T10:27:48+01:00</time>
      </trkpt>
      <trkpt lat="42.73264" lon="0.1774">
        <ele>2278</ele>
        <time>2022-01-29T10:28:04+01:00</time>
      </trkpt>
      <trkpt lat="42.73264" lon="0.17738">
        <ele>2278</ele>
        <time>2022-01-29T10:28:30+01:00</time>
      </trkpt>
      <trkpt lat="42.73263" lon="0.17734">
        <ele>2277</ele>
        <time>2022-01-29T10:28:51+01:00</time>
      </trkpt>
      <trkpt lat="42.73264" lon="0.17738">
        <ele>2278</ele>
        <time>2022-01-29T10:29:04+01:00</time>
      </trkpt>
      <trkpt lat="42.73268" lon="0.17739">
        <ele>2280</ele>
        <time>2022-01-29T10:29:19+01:00</time>
      </trkpt>
      <trkpt lat="42.73268" lon="0.17731">
        <ele>2279</ele>
        <time>2022-01-29T10:29:33+01:00</time>
      </trkpt>
      <trkpt lat="42.73267" lon="0.1772">
        <ele>2278</ele>
        <time>2022-01-29T10:29:49+01:00</time>
      </trkpt>
      <trkpt lat="42.7327" lon="0.17713">
        <ele>2280</ele>
        <time>2022-01-29T10:30:06+01:00</time>
      </trkpt>
      <trkpt lat="42.73271" lon="0.17716">
        <ele>2281</ele>
        <time>2022-01-29T10:30:25+01:00</time>
      </trkpt>
      <trkpt lat="42.73271" lon="0.17716">
        <ele>2281</ele>
        <time>2022-01-29T10:30:49+01:00</time>
      </trkpt>
      <trkpt lat="42.73276" lon="0.17722">
        <ele>2283</ele>
        <time>2022-01-29T10:31:07+01:00</time>
      </trkpt>
      <trkpt lat="42.73283" lon="0.17731">
        <ele>2288</ele>
        <time>2022-01-29T10:31:24+01:00</time>
      </trkpt>
      <trkpt lat="42.73287" lon="0.17737">
        <ele>2291</ele>
        <time>2022-01-29T10:31:37+01:00</time>
      </trkpt>
      <trkpt lat="42.7329" lon="0.17746">
        <ele>2293</ele>
        <time>2022-01-29T10:31:51+01:00</time>
      </trkpt>
      <trkpt lat="42.73291" lon="0.17748">
        <ele>2294</ele>
        <time>2022-01-29T10:32:08+01:00</time>
      </trkpt>
      <trkpt lat="42.73288" lon="0.17748">
        <ele>2292</ele>
        <time>2022-01-29T10:32:31+01:00</time>
      </trkpt>
      <trkpt lat="42.73295" lon="0.17749">
        <ele>2297</ele>
        <time>2022-01-29T10:32:56+01:00</time>
      </trkpt>
      <trkpt lat="42.73295" lon="0.17737">
        <ele>2296</ele>
        <time>2022-01-29T10:33:11+01:00</time>
      </trkpt>
      <trkpt lat="42.73295" lon="0.17724">
        <ele>2295</ele>
        <time>2022-01-29T10:33:29+01:00</time>
      </trkpt>
      <trkpt lat="42.73299" lon="0.1771">
        <ele>2298</ele>
        <time>2022-01-29T10:33:48+01:00</time>
      </trkpt>
      <trkpt lat="42.73299" lon="0.1771">
        <ele>2298</ele>
        <time>2022-01-29T10:34:03+01:00</time>
      </trkpt>
      <trkpt lat="42.73299" lon="0.17714">
        <ele>2298</ele>
        <time>2022-01-29T10:34:24+01:00</time>
      </trkpt>
      <trkpt lat="42.73305" lon="0.17723">
        <ele>2301</ele>
        <time>2022-01-29T10:34:43+01:00</time>
      </trkpt>
      <trkpt lat="42.7331" lon="0.17731">
        <ele>2304</ele>
        <time>2022-01-29T10:34:57+01:00</time>
      </trkpt>
      <trkpt lat="42.73315" lon="0.17741">
        <ele>2308</ele>
        <time>2022-01-29T10:35:14+01:00</time>
      </trkpt>
      <trkpt lat="42.73315" lon="0.17743">
        <ele>2308</ele>
        <time>2022-01-29T10:35:29+01:00</time>
      </trkpt>
      <trkpt lat="42.73318" lon="0.17749">
        <ele>2310</ele>
        <time>2022-01-29T10:35:52+01:00</time>
      </trkpt>
      <trkpt lat="42.73316" lon="0.17746">
        <ele>2309</ele>
        <time>2022-01-29T10:36:09+01:00</time>
      </trkpt>
      <trkpt lat="42.73319" lon="0.17738">
        <ele>2310</ele>
        <time>2022-01-29T10:36:26+01:00</time>
      </trkpt>
      <trkpt lat="42.73322" lon="0.17727">
        <ele>2311</ele>
        <time>2022-01-29T10:36:43+01:00</time>
      </trkpt>
      <trkpt lat="42.73326" lon="0.17715">
        <ele>2314</ele>
        <time>2022-01-29T10:37:04+01:00</time>
      </trkpt>
      <trkpt lat="42.7333" lon="0.1772">
        <ele>2316</ele>
        <time>2022-01-29T10:37:16+01:00</time>
      </trkpt>
      <trkpt lat="42.73333" lon="0.17725">
        <ele>2318</ele>
        <time>2022-01-29T10:37:27+01:00</time>
      </trkpt>
      <trkpt lat="42.73336" lon="0.17735">
        <ele>2320</ele>
        <time>2022-01-29T10:37:43+01:00</time>
      </trkpt>
      <trkpt lat="42.73342" lon="0.17742">
        <ele>2324</ele>
        <time>2022-01-29T10:37:58+01:00</time>
      </trkpt>
      <trkpt lat="42.73346" lon="0.17751">
        <ele>2326</ele>
        <time>2022-01-29T10:38:13+01:00</time>
      </trkpt>
      <trkpt lat="42.73345" lon="0.17748">
        <ele>2325</ele>
        <time>2022-01-29T10:38:24+01:00</time>
      </trkpt>
      <trkpt lat="42.73347" lon="0.1775">
        <ele>2327</ele>
        <time>2022-01-29T10:38:44+01:00</time>
      </trkpt>
      <trkpt lat="42.73347" lon="0.17748">
        <ele>2326</ele>
        <time>2022-01-29T10:39:09+01:00</time>
      </trkpt>
      <trkpt lat="42.73347" lon="0.17742">
        <ele>2326</ele>
        <time>2022-01-29T10:39:26+01:00</time>
      </trkpt>
      <trkpt lat="42.7335" lon="0.17748">
        <ele>2328</ele>
        <time>2022-01-29T10:39:42+01:00</time>
      </trkpt>
      <trkpt lat="42.73354" lon="0.17758">
        <ele>2332</ele>
        <time>2022-01-29T10:39:58+01:00</time>
      </trkpt>
      <trkpt lat="42.73358" lon="0.17757">
        <ele>2334</ele>
        <time>2022-01-29T10:40:11+01:00</time>
      </trkpt>
      <trkpt lat="42.7336" lon="0.1775">
        <ele>2333</ele>
        <time>2022-01-29T10:40:26+01:00</time>
      </trkpt>
      <trkpt lat="42.7336" lon="0.17744">
        <ele>2334</ele>
        <time>2022-01-29T10:40:41+01:00</time>
      </trkpt>
      <trkpt lat="42.73362" lon="0.17747">
        <ele>2335</ele>
        <time>2022-01-29T10:41:01+01:00</time>
      </trkpt>
      <trkpt lat="42.73366" lon="0.17755">
        <ele>2338</ele>
        <time>2022-01-29T10:41:15+01:00</time>
      </trkpt>
      <trkpt lat="42.73368" lon="0.17763">
        <ele>2342</ele>
        <time>2022-01-29T10:41:29+01:00</time>
      </trkpt>
      <trkpt lat="42.73368" lon="0.17759">
        <ele>2341</ele>
        <time>2022-01-29T10:41:42+01:00</time>
      </trkpt>
      <trkpt lat="42.7337" lon="0.17753">
        <ele>2340</ele>
        <time>2022-01-29T10:41:58+01:00</time>
      </trkpt>
      <trkpt lat="42.73369" lon="0.17752">
        <ele>2340</ele>
        <time>2022-01-29T10:42:07+01:00</time>
      </trkpt>
      <trkpt lat="42.73369" lon="0.17751">
        <ele>2339</ele>
        <time>2022-01-29T10:42:31+01:00</time>
      </trkpt>
      <trkpt lat="42.73368" lon="0.17748">
        <ele>2339</ele>
        <time>2022-01-29T10:42:55+01:00</time>
      </trkpt>
      <trkpt lat="42.73368" lon="0.17736">
        <ele>2340</ele>
        <time>2022-01-29T10:43:14+01:00</time>
      </trkpt>
      <trkpt lat="42.73371" lon="0.17735">
        <ele>2342</ele>
        <time>2022-01-29T10:43:33+01:00</time>
      </trkpt>
      <trkpt lat="42.73368" lon="0.17735">
        <ele>2341</ele>
        <time>2022-01-29T10:43:59+01:00</time>
      </trkpt>
      <trkpt lat="42.7337" lon="0.17735">
        <ele>2342</ele>
        <time>2022-01-29T10:44:24+01:00</time>
      </trkpt>
      <trkpt lat="42.7337" lon="0.17726">
        <ele>2343</ele>
        <time>2022-01-29T10:44:40+01:00</time>
      </trkpt>
      <trkpt lat="42.73374" lon="0.1773">
        <ele>2345</ele>
        <time>2022-01-29T10:44:57+01:00</time>
      </trkpt>
      <trkpt lat="42.73381" lon="0.17739">
        <ele>2348</ele>
        <time>2022-01-29T10:45:12+01:00</time>
      </trkpt>
      <trkpt lat="42.73385" lon="0.17746">
        <ele>2350</ele>
        <time>2022-01-29T10:45:27+01:00</time>
      </trkpt>
      <trkpt lat="42.73389" lon="0.17754">
        <ele>2353</ele>
        <time>2022-01-29T10:45:40+01:00</time>
      </trkpt>
      <trkpt lat="42.73391" lon="0.17763">
        <ele>2356</ele>
        <time>2022-01-29T10:45:54+01:00</time>
      </trkpt>
      <trkpt lat="42.73391" lon="0.1776">
        <ele>2355</ele>
        <time>2022-01-29T10:46:16+01:00</time>
      </trkpt>
      <trkpt lat="42.73393" lon="0.17752">
        <ele>2355</ele>
        <time>2022-01-29T10:46:30+01:00</time>
      </trkpt>
      <trkpt lat="42.73395" lon="0.17741">
        <ele>2357</ele>
        <time>2022-01-29T10:46:45+01:00</time>
      </trkpt>
      <trkpt lat="42.73396" lon="0.17731">
        <ele>2359</ele>
        <time>2022-01-29T10:47:02+01:00</time>
      </trkpt>
      <trkpt lat="42.73398" lon="0.17722">
        <ele>2362</ele>
        <time>2022-01-29T10:47:20+01:00</time>
      </trkpt>
      <trkpt lat="42.734" lon="0.17714">
        <ele>2364</ele>
        <time>2022-01-29T10:47:36+01:00</time>
      </trkpt>
      <trkpt lat="42.73402" lon="0.17706">
        <ele>2366</ele>
        <time>2022-01-29T10:47:52+01:00</time>
      </trkpt>
      <trkpt lat="42.73404" lon="0.17699">
        <ele>2367</ele>
        <time>2022-01-29T10:48:08+01:00</time>
      </trkpt>
      <trkpt lat="42.73405" lon="0.17698">
        <ele>2368</ele>
        <time>2022-01-29T10:48:26+01:00</time>
      </trkpt>
      <trkpt lat="42.73407" lon="0.17698">
        <ele>2369</ele>
        <time>2022-01-29T10:48:40+01:00</time>
      </trkpt>
      <trkpt lat="42.7341" lon="0.17705">
        <ele>2371</ele>
        <time>2022-01-29T10:48:59+01:00</time>
      </trkpt>
      <trkpt lat="42.73414" lon="0.17713">
        <ele>2373</ele>
        <time>2022-01-29T10:49:15+01:00</time>
      </trkpt>
      <trkpt lat="42.73418" lon="0.17719">
        <ele>2375</ele>
        <time>2022-01-29T10:49:29+01:00</time>
      </trkpt>
      <trkpt lat="42.73422" lon="0.17725">
        <ele>2377</ele>
        <time>2022-01-29T10:49:45+01:00</time>
      </trkpt>
      <trkpt lat="42.73426" lon="0.17731">
        <ele>2379</ele>
        <time>2022-01-29T10:50:00+01:00</time>
      </trkpt>
      <trkpt lat="42.73427" lon="0.17735">
        <ele>2379</ele>
        <time>2022-01-29T10:50:13+01:00</time>
      </trkpt>
      <trkpt lat="42.7343" lon="0.17742">
        <ele>2380</ele>
        <time>2022-01-29T10:50:26+01:00</time>
      </trkpt>
      <trkpt lat="42.73432" lon="0.17745">
        <ele>2381</ele>
        <time>2022-01-29T10:50:52+01:00</time>
      </trkpt>
      <trkpt lat="42.73435" lon="0.17751">
        <ele>2382</ele>
        <time>2022-01-29T10:51:06+01:00</time>
      </trkpt>
      <trkpt lat="42.73437" lon="0.17761">
        <ele>2384</ele>
        <time>2022-01-29T10:51:17+01:00</time>
      </trkpt>
      <trkpt lat="42.73438" lon="0.17763">
        <ele>2384</ele>
        <time>2022-01-29T10:51:29+01:00</time>
      </trkpt>
      <trkpt lat="42.73439" lon="0.1776">
        <ele>2385</ele>
        <time>2022-01-29T10:51:45+01:00</time>
      </trkpt>
      <trkpt lat="42.73439" lon="0.17756">
        <ele>2385</ele>
        <time>2022-01-29T10:52:01+01:00</time>
      </trkpt>
      <trkpt lat="42.73441" lon="0.17751">
        <ele>2386</ele>
        <time>2022-01-29T10:52:21+01:00</time>
      </trkpt>
      <trkpt lat="42.73445" lon="0.17745">
        <ele>2390</ele>
        <time>2022-01-29T10:52:38+01:00</time>
      </trkpt>
      <trkpt lat="42.73447" lon="0.17741">
        <ele>2392</ele>
        <time>2022-01-29T10:52:56+01:00</time>
      </trkpt>
      <trkpt lat="42.73449" lon="0.17734">
        <ele>2394</ele>
        <time>2022-01-29T10:53:11+01:00</time>
      </trkpt>
      <trkpt lat="42.73451" lon="0.17722">
        <ele>2396</ele>
        <time>2022-01-29T10:53:27+01:00</time>
      </trkpt>
      <trkpt lat="42.73451" lon="0.17709">
        <ele>2397</ele>
        <time>2022-01-29T10:53:45+01:00</time>
      </trkpt>
      <trkpt lat="42.73456" lon="0.17696">
        <ele>2400</ele>
        <time>2022-01-29T10:54:00+01:00</time>
      </trkpt>
      <trkpt lat="42.73459" lon="0.17687">
        <ele>2403</ele>
        <time>2022-01-29T10:54:17+01:00</time>
      </trkpt>
      <trkpt lat="42.73461" lon="0.17672">
        <ele>2405</ele>
        <time>2022-01-29T10:54:35+01:00</time>
      </trkpt>
      <trkpt lat="42.73464" lon="0.17659">
        <ele>2408</ele>
        <time>2022-01-29T10:54:52+01:00</time>
      </trkpt>
      <trkpt lat="42.73466" lon="0.17647">
        <ele>2410</ele>
        <time>2022-01-29T10:55:11+01:00</time>
      </trkpt>
      <trkpt lat="42.73469" lon="0.17652">
        <ele>2411</ele>
        <time>2022-01-29T10:55:33+01:00</time>
      </trkpt>
      <trkpt lat="42.73474" lon="0.17663">
        <ele>2413</ele>
        <time>2022-01-29T10:55:49+01:00</time>
      </trkpt>
      <trkpt lat="42.73478" lon="0.17675">
        <ele>2414</ele>
        <time>2022-01-29T10:56:05+01:00</time>
      </trkpt>
      <trkpt lat="42.73484" lon="0.17684">
        <ele>2417</ele>
        <time>2022-01-29T10:56:20+01:00</time>
      </trkpt>
      <trkpt lat="42.73489" lon="0.17691">
        <ele>2419</ele>
        <time>2022-01-29T10:56:34+01:00</time>
      </trkpt>
      <trkpt lat="42.7349" lon="0.17696">
        <ele>2419</ele>
        <time>2022-01-29T10:56:53+01:00</time>
      </trkpt>
      <trkpt lat="42.73489" lon="0.17695">
        <ele>2418</ele>
        <time>2022-01-29T10:57:06+01:00</time>
      </trkpt>
      <trkpt lat="42.73492" lon="0.17688">
        <ele>2420</ele>
        <time>2022-01-29T10:57:25+01:00</time>
      </trkpt>
      <trkpt lat="42.73493" lon="0.17676">
        <ele>2422</ele>
        <time>2022-01-29T10:57:44+01:00</time>
      </trkpt>
      <trkpt lat="42.73495" lon="0.17659">
        <ele>2424</ele>
        <time>2022-01-29T10:58:06+01:00</time>
      </trkpt>
      <trkpt lat="42.73501" lon="0.17648">
        <ele>2428</ele>
        <time>2022-01-29T10:58:28+01:00</time>
      </trkpt>
      <trkpt lat="42.73504" lon="0.17651">
        <ele>2430</ele>
        <time>2022-01-29T10:58:44+01:00</time>
      </trkpt>
      <trkpt lat="42.73509" lon="0.17654">
        <ele>2432</ele>
        <time>2022-01-29T10:59:02+01:00</time>
      </trkpt>
      <trkpt lat="42.73517" lon="0.17663">
        <ele>2436</ele>
        <time>2022-01-29T10:59:19+01:00</time>
      </trkpt>
      <trkpt lat="42.73522" lon="0.17668">
        <ele>2439</ele>
        <time>2022-01-29T10:59:34+01:00</time>
      </trkpt>
      <trkpt lat="42.73518" lon="0.17655">
        <ele>2437</ele>
        <time>2022-01-29T10:59:50+01:00</time>
      </trkpt>
      <trkpt lat="42.73523" lon="0.17656">
        <ele>2440</ele>
        <time>2022-01-29T11:00:05+01:00</time>
      </trkpt>
      <trkpt lat="42.73532" lon="0.17664">
        <ele>2444</ele>
        <time>2022-01-29T11:00:23+01:00</time>
      </trkpt>
      <trkpt lat="42.73537" lon="0.17672">
        <ele>2447</ele>
        <time>2022-01-29T11:00:41+01:00</time>
      </trkpt>
      <trkpt lat="42.73542" lon="0.17676">
        <ele>2449</ele>
        <time>2022-01-29T11:00:56+01:00</time>
      </trkpt>
      <trkpt lat="42.7354" lon="0.17675">
        <ele>2448</ele>
        <time>2022-01-29T11:01:16+01:00</time>
      </trkpt>
      <trkpt lat="42.73542" lon="0.17671">
        <ele>2449</ele>
        <time>2022-01-29T11:01:42+01:00</time>
      </trkpt>
      <trkpt lat="42.73543" lon="0.1766">
        <ele>2450</ele>
        <time>2022-01-29T11:01:57+01:00</time>
      </trkpt>
      <trkpt lat="42.7354" lon="0.17647">
        <ele>2449</ele>
        <time>2022-01-29T11:02:14+01:00</time>
      </trkpt>
      <trkpt lat="42.73538" lon="0.17633">
        <ele>2448</ele>
        <time>2022-01-29T11:02:32+01:00</time>
      </trkpt>
      <trkpt lat="42.73539" lon="0.17618">
        <ele>2450</ele>
        <time>2022-01-29T11:02:50+01:00</time>
      </trkpt>
      <trkpt lat="42.73543" lon="0.17604">
        <ele>2452</ele>
        <time>2022-01-29T11:03:07+01:00</time>
      </trkpt>
      <trkpt lat="42.73551" lon="0.17593">
        <ele>2457</ele>
        <time>2022-01-29T11:03:24+01:00</time>
      </trkpt>
      <trkpt lat="42.7356" lon="0.17585">
        <ele>2461</ele>
        <time>2022-01-29T11:03:41+01:00</time>
      </trkpt>
      <trkpt lat="42.73567" lon="0.17579">
        <ele>2463</ele>
        <time>2022-01-29T11:03:53+01:00</time>
      </trkpt>
      <trkpt lat="42.73571" lon="0.17585">
        <ele>2464</ele>
        <time>2022-01-29T11:04:04+01:00</time>
      </trkpt>
      <trkpt lat="42.73576" lon="0.17592">
        <ele>2466</ele>
        <time>2022-01-29T11:04:18+01:00</time>
      </trkpt>
      <trkpt lat="42.73581" lon="0.17601">
        <ele>2468</ele>
        <time>2022-01-29T11:04:32+01:00</time>
      </trkpt>
      <trkpt lat="42.73587" lon="0.17608">
        <ele>2470</ele>
        <time>2022-01-29T11:04:46+01:00</time>
      </trkpt>
      <trkpt lat="42.73591" lon="0.17616">
        <ele>2472</ele>
        <time>2022-01-29T11:05:02+01:00</time>
      </trkpt>
      <trkpt lat="42.73598" lon="0.17623">
        <ele>2474</ele>
        <time>2022-01-29T11:05:18+01:00</time>
      </trkpt>
      <trkpt lat="42.73603" lon="0.1763">
        <ele>2476</ele>
        <time>2022-01-29T11:05:36+01:00</time>
      </trkpt>
      <trkpt lat="42.73603" lon="0.17627">
        <ele>2476</ele>
        <time>2022-01-29T11:06:01+01:00</time>
      </trkpt>
      <trkpt lat="42.73604" lon="0.17621">
        <ele>2477</ele>
        <time>2022-01-29T11:06:14+01:00</time>
      </trkpt>
      <trkpt lat="42.73607" lon="0.17614">
        <ele>2478</ele>
        <time>2022-01-29T11:06:30+01:00</time>
      </trkpt>
      <trkpt lat="42.73614" lon="0.1762">
        <ele>2481</ele>
        <time>2022-01-29T11:06:43+01:00</time>
      </trkpt>
      <trkpt lat="42.73617" lon="0.17616">
        <ele>2482</ele>
        <time>2022-01-29T11:07:00+01:00</time>
      </trkpt>
      <trkpt lat="42.73622" lon="0.1761">
        <ele>2484</ele>
        <time>2022-01-29T11:07:14+01:00</time>
      </trkpt>
      <trkpt lat="42.73629" lon="0.17612">
        <ele>2487</ele>
        <time>2022-01-29T11:07:28+01:00</time>
      </trkpt>
      <trkpt lat="42.73631" lon="0.17608">
        <ele>2488</ele>
        <time>2022-01-29T11:07:41+01:00</time>
      </trkpt>
      <trkpt lat="42.73629" lon="0.17605">
        <ele>2487</ele>
        <time>2022-01-29T11:08:09+01:00</time>
      </trkpt>
      <trkpt lat="42.73636" lon="0.17598">
        <ele>2489</ele>
        <time>2022-01-29T11:08:24+01:00</time>
      </trkpt>
      <trkpt lat="42.73644" lon="0.17594">
        <ele>2492</ele>
        <time>2022-01-29T11:08:41+01:00</time>
      </trkpt>
      <trkpt lat="42.73649" lon="0.1759">
        <ele>2495</ele>
        <time>2022-01-29T11:08:56+01:00</time>
      </trkpt>
      <trkpt lat="42.73657" lon="0.17588">
        <ele>2498</ele>
        <time>2022-01-29T11:09:12+01:00</time>
      </trkpt>
      <trkpt lat="42.73669" lon="0.17583">
        <ele>2503</ele>
        <time>2022-01-29T11:09:31+01:00</time>
      </trkpt>
      <trkpt lat="42.73675" lon="0.1758">
        <ele>2503</ele>
        <time>2022-01-29T11:09:46+01:00</time>
      </trkpt>
      <trkpt lat="42.73684" lon="0.17578">
        <ele>2503</ele>
        <time>2022-01-29T11:10:03+01:00</time>
      </trkpt>
      <trkpt lat="42.73691" lon="0.17576">
        <ele>2504</ele>
        <time>2022-01-29T11:10:18+01:00</time>
      </trkpt>
      <trkpt lat="42.73691" lon="0.17575">
        <ele>2504</ele>
        <time>2022-01-29T11:10:39+01:00</time>
      </trkpt>
      <trkpt lat="42.7369" lon="0.17576">
        <ele>2504</ele>
        <time>2022-01-29T11:11:04+01:00</time>
      </trkpt>
      <trkpt lat="42.73697" lon="0.17575">
        <ele>2504</ele>
        <time>2022-01-29T11:11:16+01:00</time>
      </trkpt>
      <trkpt lat="42.73701" lon="0.17576">
        <ele>2503</ele>
        <time>2022-01-29T11:11:32+01:00</time>
      </trkpt>
      <trkpt lat="42.73702" lon="0.17576">
        <ele>2503</ele>
        <time>2022-01-29T11:11:49+01:00</time>
      </trkpt>
      <trkpt lat="42.737" lon="0.17575">
        <ele>2503</ele>
        <time>2022-01-29T11:12:09+01:00</time>
      </trkpt>
      <trkpt lat="42.73702" lon="0.17581">
        <ele>2503</ele>
        <time>2022-01-29T11:12:26+01:00</time>
      </trkpt>
      <trkpt lat="42.73703" lon="0.17581">
        <ele>2503</ele>
        <time>2022-01-29T11:12:44+01:00</time>
      </trkpt>
      <trkpt lat="42.73702" lon="0.1758">
        <ele>2503</ele>
        <time>2022-01-29T11:12:58+01:00</time>
      </trkpt>
      <trkpt lat="42.73702" lon="0.17581">
        <ele>2503</ele>
        <time>2022-01-29T11:13:18+01:00</time>
      </trkpt>
      <trkpt lat="42.73702" lon="0.17582">
        <ele>2504</ele>
        <time>2022-01-29T11:13:35+01:00</time>
      </trkpt>
      <trkpt lat="42.73701" lon="0.17581">
        <ele>2504</ele>
        <time>2022-01-29T11:13:54+01:00</time>
      </trkpt>
      <trkpt lat="42.737" lon="0.17583">
        <ele>2504</ele>
        <time>2022-01-29T11:14:10+01:00</time>
      </trkpt>
      <trkpt lat="42.737" lon="0.17584">
        <ele>2504</ele>
        <time>2022-01-29T11:14:34+01:00</time>
      </trkpt>
      <trkpt lat="42.73701" lon="0.17584">
        <ele>2504</ele>
        <time>2022-01-29T11:15:07+01:00</time>
      </trkpt>
      <trkpt lat="42.73702" lon="0.17585">
        <ele>2504</ele>
        <time>2022-01-29T11:15:27+01:00</time>
      </trkpt>
      <trkpt lat="42.73702" lon="0.17585">
        <ele>2503</ele>
        <time>2022-01-29T11:15:55+01:00</time>
      </trkpt>
      <trkpt lat="42.73702" lon="0.17586">
        <ele>2503</ele>
        <time>2022-01-29T11:16:22+01:00</time>
      </trkpt>
      <trkpt lat="42.73702" lon="0.17586">
        <ele>2503</ele>
        <time>2022-01-29T11:16:47+01:00</time>
      </trkpt>
      <trkpt lat="42.73701" lon="0.17586">
        <ele>2503</ele>
        <time>2022-01-29T11:17:19+01:00</time>
      </trkpt>
      <trkpt lat="42.73701" lon="0.17585">
        <ele>2504</ele>
        <time>2022-01-29T11:17:53+01:00</time>
      </trkpt>
      <trkpt lat="42.73702" lon="0.17586">
        <ele>2503</ele>
        <time>2022-01-29T11:18:19+01:00</time>
      </trkpt>
      <trkpt lat="42.73702" lon="0.17586">
        <ele>2503</ele>
        <time>2022-01-29T11:18:51+01:00</time>
      </trkpt>
      <trkpt lat="42.737" lon="0.17584">
        <ele>2504</ele>
        <time>2022-01-29T11:19:19+01:00</time>
      </trkpt>
      <trkpt lat="42.737" lon="0.17584">
        <ele>2504</ele>
        <time>2022-01-29T11:19:55+01:00</time>
      </trkpt>
      <trkpt lat="42.73701" lon="0.17584">
        <ele>2504</ele>
        <time>2022-01-29T11:20:19+01:00</time>
      </trkpt>
      <trkpt lat="42.73702" lon="0.17584">
        <ele>2504</ele>
        <time>2022-01-29T11:20:53+01:00</time>
      </trkpt>
      <trkpt lat="42.73702" lon="0.17585">
        <ele>2503</ele>
        <time>2022-01-29T11:21:31+01:00</time>
      </trkpt>
      <trkpt lat="42.73703" lon="0.17586">
        <ele>2503</ele>
        <time>2022-01-29T11:22:01+01:00</time>
      </trkpt>
      <trkpt lat="42.73703" lon="0.17585">
        <ele>2503</ele>
        <time>2022-01-29T11:22:32+01:00</time>
      </trkpt>
      <trkpt lat="42.73704" lon="0.17585">
        <ele>2503</ele>
        <time>2022-01-29T11:22:57+01:00</time>
      </trkpt>
      <trkpt lat="42.73703" lon="0.17585">
        <ele>2503</ele>
        <time>2022-01-29T11:23:29+01:00</time>
      </trkpt>
      <trkpt lat="42.73703" lon="0.17585">
        <ele>2503</ele>
        <time>2022-01-29T11:23:47+01:00</time>
      </trkpt>
      <trkpt lat="42.73703" lon="0.17584">
        <ele>2503</ele>
        <time>2022-01-29T11:24:15+01:00</time>
      </trkpt>
      <trkpt lat="42.73704" lon="0.17585">
        <ele>2503</ele>
        <time>2022-01-29T11:24:38+01:00</time>
      </trkpt>
      <trkpt lat="42.73704" lon="0.17585">
        <ele>2503</ele>
        <time>2022-01-29T11:25:04+01:00</time>
      </trkpt>
      <trkpt lat="42.73703" lon="0.17584">
        <ele>2503</ele>
        <time>2022-01-29T11:25:37+01:00</time>
      </trkpt>
      <trkpt lat="42.73703" lon="0.17585">
        <ele>2503</ele>
        <time>2022-01-29T11:26:12+01:00</time>
      </trkpt>
      <trkpt lat="42.73702" lon="0.17586">
        <ele>2503</ele>
        <time>2022-01-29T11:26:37+01:00</time>
      </trkpt>
      <trkpt lat="42.73703" lon="0.17586">
        <ele>2503</ele>
        <time>2022-01-29T11:27:05+01:00</time>
      </trkpt>
      <trkpt lat="42.73704" lon="0.17585">
        <ele>2503</ele>
        <time>2022-01-29T11:27:30+01:00</time>
      </trkpt>
      <trkpt lat="42.73702" lon="0.17584">
        <ele>2504</ele>
        <time>2022-01-29T11:28:00+01:00</time>
      </trkpt>
      <trkpt lat="42.73701" lon="0.17582">
        <ele>2504</ele>
        <time>2022-01-29T11:28:22+01:00</time>
      </trkpt>
      <trkpt lat="42.73702" lon="0.17582">
        <ele>2504</ele>
        <time>2022-01-29T11:28:47+01:00</time>
      </trkpt>
      <trkpt lat="42.73701" lon="0.17582">
        <ele>2504</ele>
        <time>2022-01-29T11:29:07+01:00</time>
      </trkpt>
      <trkpt lat="42.73703" lon="0.17581">
        <ele>2503</ele>
        <time>2022-01-29T11:29:28+01:00</time>
      </trkpt>
      <trkpt lat="42.73703" lon="0.17584">
        <ele>2503</ele>
        <time>2022-01-29T11:29:46+01:00</time>
      </trkpt>
      <trkpt lat="42.73702" lon="0.17584">
        <ele>2504</ele>
        <time>2022-01-29T11:30:13+01:00</time>
      </trkpt>
      <trkpt lat="42.73703" lon="0.17585">
        <ele>2503</ele>
        <time>2022-01-29T11:30:37+01:00</time>
      </trkpt>
      <trkpt lat="42.73703" lon="0.17584">
        <ele>2503</ele>
        <time>2022-01-29T11:31:06+01:00</time>
      </trkpt>
      <trkpt lat="42.73702" lon="0.17584">
        <ele>2504</ele>
        <time>2022-01-29T11:31:47+01:00</time>
      </trkpt>
      <trkpt lat="42.73702" lon="0.17584">
        <ele>2504</ele>
        <time>2022-01-29T11:32:22+01:00</time>
      </trkpt>
      <trkpt lat="42.73703" lon="0.17584">
        <ele>2503</ele>
        <time>2022-01-29T11:32:45+01:00</time>
      </trkpt>
      <trkpt lat="42.73703" lon="0.17584">
        <ele>2503</ele>
        <time>2022-01-29T11:33:25+01:00</time>
      </trkpt>
      <trkpt lat="42.73703" lon="0.17584">
        <ele>2503</ele>
        <time>2022-01-29T11:33:50+01:00</time>
      </trkpt>
      <trkpt lat="42.73701" lon="0.17584">
        <ele>2504</ele>
        <time>2022-01-29T11:34:14+01:00</time>
      </trkpt>
      <trkpt lat="42.73702" lon="0.17583">
        <ele>2504</ele>
        <time>2022-01-29T11:34:29+01:00</time>
      </trkpt>
      <trkpt lat="42.73701" lon="0.17584">
        <ele>2504</ele>
        <time>2022-01-29T11:34:54+01:00</time>
      </trkpt>
      <trkpt lat="42.73702" lon="0.17584">
        <ele>2504</ele>
        <time>2022-01-29T11:35:16+01:00</time>
      </trkpt>
      <trkpt lat="42.737" lon="0.17585">
        <ele>2504</ele>
        <time>2022-01-29T11:35:54+01:00</time>
      </trkpt>
      <trkpt lat="42.73701" lon="0.17585">
        <ele>2504</ele>
        <time>2022-01-29T11:36:27+01:00</time>
      </trkpt>
      <trkpt lat="42.73701" lon="0.17583">
        <ele>2504</ele>
        <time>2022-01-29T11:37:02+01:00</time>
      </trkpt>
      <trkpt lat="42.73701" lon="0.17583">
        <ele>2504</ele>
        <time>2022-01-29T11:37:32+01:00</time>
      </trkpt>
      <trkpt lat="42.73702" lon="0.17582">
        <ele>2504</ele>
        <time>2022-01-29T11:38:08+01:00</time>
      </trkpt>
      <trkpt lat="42.73702" lon="0.17583">
        <ele>2504</ele>
        <time>2022-01-29T11:38:35+01:00</time>
      </trkpt>
      <trkpt lat="42.73702" lon="0.17584">
        <ele>2504</ele>
        <time>2022-01-29T11:39:12+01:00</time>
      </trkpt>
      <trkpt lat="42.73701" lon="0.17583">
        <ele>2504</ele>
        <time>2022-01-29T11:39:38+01:00</time>
      </trkpt>
      <trkpt lat="42.73701" lon="0.17582">
        <ele>2504</ele>
        <time>2022-01-29T11:39:59+01:00</time>
      </trkpt>
      <trkpt lat="42.73701" lon="0.17582">
        <ele>2504</ele>
        <time>2022-01-29T11:40:16+01:00</time>
      </trkpt>
      <trkpt lat="42.73702" lon="0.17582">
        <ele>2504</ele>
        <time>2022-01-29T11:40:40+01:00</time>
      </trkpt>
      <trkpt lat="42.73701" lon="0.1758">
        <ele>2504</ele>
        <time>2022-01-29T11:41:01+01:00</time>
      </trkpt>
      <trkpt lat="42.73701" lon="0.17581">
        <ele>2504</ele>
        <time>2022-01-29T11:41:19+01:00</time>
      </trkpt>
      <trkpt lat="42.737" lon="0.17587">
        <ele>2504</ele>
        <time>2022-01-29T11:41:35+01:00</time>
      </trkpt>
      <trkpt lat="42.73696" lon="0.17589">
        <ele>2504</ele>
        <time>2022-01-29T11:41:48+01:00</time>
      </trkpt>
      <trkpt lat="42.73693" lon="0.17589">
        <ele>2505</ele>
        <time>2022-01-29T11:41:57+01:00</time>
      </trkpt>
      <trkpt lat="42.73687" lon="0.17589">
        <ele>2504</ele>
        <time>2022-01-29T11:42:05+01:00</time>
      </trkpt>
      <trkpt lat="42.73677" lon="0.17589">
        <ele>2503</ele>
        <time>2022-01-29T11:42:17+01:00</time>
      </trkpt>
      <trkpt lat="42.73669" lon="0.17591">
        <ele>2503</ele>
        <time>2022-01-29T11:42:31+01:00</time>
      </trkpt>
      <trkpt lat="42.73664" lon="0.17592">
        <ele>2501</ele>
        <time>2022-01-29T11:42:43+01:00</time>
      </trkpt>
      <trkpt lat="42.73664" lon="0.1759">
        <ele>2501</ele>
        <time>2022-01-29T11:42:58+01:00</time>
      </trkpt>
      <trkpt lat="42.73664" lon="0.1759">
        <ele>2501</ele>
        <time>2022-01-29T11:43:23+01:00</time>
      </trkpt>
      <trkpt lat="42.73664" lon="0.17589">
        <ele>2501</ele>
        <time>2022-01-29T11:43:47+01:00</time>
      </trkpt>
      <trkpt lat="42.73663" lon="0.1759">
        <ele>2501</ele>
        <time>2022-01-29T11:44:05+01:00</time>
      </trkpt>
      <trkpt lat="42.73663" lon="0.17591">
        <ele>2501</ele>
        <time>2022-01-29T11:44:26+01:00</time>
      </trkpt>
      <trkpt lat="42.73663" lon="0.17591">
        <ele>2501</ele>
        <time>2022-01-29T11:44:44+01:00</time>
      </trkpt>
      <trkpt lat="42.73664" lon="0.17591">
        <ele>2501</ele>
        <time>2022-01-29T11:45:08+01:00</time>
      </trkpt>
      <trkpt lat="42.73664" lon="0.17592">
        <ele>2501</ele>
        <time>2022-01-29T11:45:29+01:00</time>
      </trkpt>
      <trkpt lat="42.73664" lon="0.17593">
        <ele>2501</ele>
        <time>2022-01-29T11:45:52+01:00</time>
      </trkpt>
      <trkpt lat="42.73663" lon="0.17592">
        <ele>2501</ele>
        <time>2022-01-29T11:46:14+01:00</time>
      </trkpt>
      <trkpt lat="42.73664" lon="0.17593">
        <ele>2501</ele>
        <time>2022-01-29T11:46:40+01:00</time>
      </trkpt>
      <trkpt lat="42.73663" lon="0.17591">
        <ele>2501</ele>
        <time>2022-01-29T11:47:01+01:00</time>
      </trkpt>
      <trkpt lat="42.73662" lon="0.17588">
        <ele>2501</ele>
        <time>2022-01-29T11:47:21+01:00</time>
      </trkpt>
      <trkpt lat="42.73663" lon="0.17588">
        <ele>2501</ele>
        <time>2022-01-29T11:47:43+01:00</time>
      </trkpt>
      <trkpt lat="42.7366" lon="0.17588">
        <ele>2500</ele>
        <time>2022-01-29T11:48:00+01:00</time>
      </trkpt>
      <trkpt lat="42.73657" lon="0.17589">
        <ele>2498</ele>
        <time>2022-01-29T11:48:16+01:00</time>
      </trkpt>
      <trkpt lat="42.73656" lon="0.1759">
        <ele>2498</ele>
        <time>2022-01-29T11:48:48+01:00</time>
      </trkpt>
      <trkpt lat="42.73657" lon="0.17592">
        <ele>2498</ele>
        <time>2022-01-29T11:49:13+01:00</time>
      </trkpt>
      <trkpt lat="42.73658" lon="0.17593">
        <ele>2499</ele>
        <time>2022-01-29T11:49:40+01:00</time>
      </trkpt>
      <trkpt lat="42.73657" lon="0.17594">
        <ele>2498</ele>
        <time>2022-01-29T11:50:07+01:00</time>
      </trkpt>
      <trkpt lat="42.73659" lon="0.17592">
        <ele>2499</ele>
        <time>2022-01-29T11:50:40+01:00</time>
      </trkpt>
      <trkpt lat="42.73658" lon="0.17593">
        <ele>2498</ele>
        <time>2022-01-29T11:50:42+01:00</time>
      </trkpt>
      <trkpt lat="42.73643" lon="0.176">
        <ele>2492</ele>
        <time>2022-01-29T11:50:49+01:00</time>
      </trkpt>
      <trkpt lat="42.7364" lon="0.176">
        <ele>2491</ele>
        <time>2022-01-29T11:50:50+01:00</time>
      </trkpt>
      <trkpt lat="42.73636" lon="0.176">
        <ele>2490</ele>
        <time>2022-01-29T11:50:52+01:00</time>
      </trkpt>
      <trkpt lat="42.73633" lon="0.176">
        <ele>2488</ele>
        <time>2022-01-29T11:50:53+01:00</time>
      </trkpt>
      <trkpt lat="42.73622" lon="0.17607">
        <ele>2484</ele>
        <time>2022-01-29T11:50:57+01:00</time>
      </trkpt>
      <trkpt lat="42.73617" lon="0.17615">
        <ele>2482</ele>
        <time>2022-01-29T11:50:59+01:00</time>
      </trkpt>
      <trkpt lat="42.7361" lon="0.17614">
        <ele>2479</ele>
        <time>2022-01-29T11:51:01+01:00</time>
      </trkpt>
      <trkpt lat="42.73602" lon="0.17621">
        <ele>2476</ele>
        <time>2022-01-29T11:51:04+01:00</time>
      </trkpt>
      <trkpt lat="42.73592" lon="0.17622">
        <ele>2472</ele>
        <time>2022-01-29T11:51:07+01:00</time>
      </trkpt>
      <trkpt lat="42.73576" lon="0.17622">
        <ele>2466</ele>
        <time>2022-01-29T11:51:12+01:00</time>
      </trkpt>
      <trkpt lat="42.73566" lon="0.17626">
        <ele>2461</ele>
        <time>2022-01-29T11:51:15+01:00</time>
      </trkpt>
      <trkpt lat="42.73557" lon="0.1763">
        <ele>2457</ele>
        <time>2022-01-29T11:51:18+01:00</time>
      </trkpt>
      <trkpt lat="42.73551" lon="0.17637">
        <ele>2454</ele>
        <time>2022-01-29T11:51:20+01:00</time>
      </trkpt>
      <trkpt lat="42.73543" lon="0.1764">
        <ele>2450</ele>
        <time>2022-01-29T11:51:22+01:00</time>
      </trkpt>
      <trkpt lat="42.73534" lon="0.17642">
        <ele>2446</ele>
        <time>2022-01-29T11:51:24+01:00</time>
      </trkpt>
      <trkpt lat="42.73534" lon="0.17647">
        <ele>2446</ele>
        <time>2022-01-29T11:51:25+01:00</time>
      </trkpt>
      <trkpt lat="42.73533" lon="0.17654">
        <ele>2445</ele>
        <time>2022-01-29T11:51:37+01:00</time>
      </trkpt>
      <trkpt lat="42.73532" lon="0.1766">
        <ele>2444</ele>
        <time>2022-01-29T11:51:55+01:00</time>
      </trkpt>
      <trkpt lat="42.73522" lon="0.17664">
        <ele>2439</ele>
        <time>2022-01-29T11:51:59+01:00</time>
      </trkpt>
      <trkpt lat="42.73512" lon="0.17662">
        <ele>2433</ele>
        <time>2022-01-29T11:52:02+01:00</time>
      </trkpt>
      <trkpt lat="42.73506" lon="0.17669">
        <ele>2429</ele>
        <time>2022-01-29T11:52:04+01:00</time>
      </trkpt>
      <trkpt lat="42.73501" lon="0.17671">
        <ele>2426</ele>
        <time>2022-01-29T11:52:05+01:00</time>
      </trkpt>
      <trkpt lat="42.73493" lon="0.17677">
        <ele>2422</ele>
        <time>2022-01-29T11:52:07+01:00</time>
      </trkpt>
      <trkpt lat="42.73489" lon="0.1768">
        <ele>2420</ele>
        <time>2022-01-29T11:52:08+01:00</time>
      </trkpt>
      <trkpt lat="42.73473" lon="0.17686">
        <ele>2411</ele>
        <time>2022-01-29T11:52:12+01:00</time>
      </trkpt>
      <trkpt lat="42.73466" lon="0.17685">
        <ele>2407</ele>
        <time>2022-01-29T11:52:14+01:00</time>
      </trkpt>
      <trkpt lat="42.73459" lon="0.17687">
        <ele>2403</ele>
        <time>2022-01-29T11:52:16+01:00</time>
      </trkpt>
      <trkpt lat="42.73452" lon="0.17697">
        <ele>2398</ele>
        <time>2022-01-29T11:52:18+01:00</time>
      </trkpt>
      <trkpt lat="42.73447" lon="0.17696">
        <ele>2395</ele>
        <time>2022-01-29T11:52:19+01:00</time>
      </trkpt>
      <trkpt lat="42.73439" lon="0.17695">
        <ele>2390</ele>
        <time>2022-01-29T11:52:21+01:00</time>
      </trkpt>
      <trkpt lat="42.73435" lon="0.177">
        <ele>2387</ele>
        <time>2022-01-29T11:52:23+01:00</time>
      </trkpt>
      <trkpt lat="42.73433" lon="0.177">
        <ele>2386</ele>
        <time>2022-01-29T11:52:37+01:00</time>
      </trkpt>
      <trkpt lat="42.73431" lon="0.17698">
        <ele>2385</ele>
        <time>2022-01-29T11:53:07+01:00</time>
      </trkpt>
      <trkpt lat="42.73432" lon="0.17701">
        <ele>2385</ele>
        <time>2022-01-29T11:53:34+01:00</time>
      </trkpt>
      <trkpt lat="42.7343" lon="0.17695">
        <ele>2384</ele>
        <time>2022-01-29T11:53:51+01:00</time>
      </trkpt>
      <trkpt lat="42.7343" lon="0.17692">
        <ele>2384</ele>
        <time>2022-01-29T11:53:54+01:00</time>
      </trkpt>
      <trkpt lat="42.7342" lon="0.17693">
        <ele>2377</ele>
        <time>2022-01-29T11:53:58+01:00</time>
      </trkpt>
      <trkpt lat="42.73413" lon="0.177">
        <ele>2373</ele>
        <time>2022-01-29T11:54:00+01:00</time>
      </trkpt>
      <trkpt lat="42.73405" lon="0.17699">
        <ele>2368</ele>
        <time>2022-01-29T11:54:02+01:00</time>
      </trkpt>
      <trkpt lat="42.73399" lon="0.17702">
        <ele>2364</ele>
        <time>2022-01-29T11:54:04+01:00</time>
      </trkpt>
      <trkpt lat="42.73393" lon="0.17709">
        <ele>2360</ele>
        <time>2022-01-29T11:54:06+01:00</time>
      </trkpt>
      <trkpt lat="42.73384" lon="0.17708">
        <ele>2355</ele>
        <time>2022-01-29T11:54:08+01:00</time>
      </trkpt>
      <trkpt lat="42.73377" lon="0.17716">
        <ele>2349</ele>
        <time>2022-01-29T11:54:10+01:00</time>
      </trkpt>
      <trkpt lat="42.73369" lon="0.17718">
        <ele>2344</ele>
        <time>2022-01-29T11:54:12+01:00</time>
      </trkpt>
      <trkpt lat="42.73359" lon="0.17719">
        <ele>2337</ele>
        <time>2022-01-29T11:54:14+01:00</time>
      </trkpt>
      <trkpt lat="42.73355" lon="0.17725">
        <ele>2334</ele>
        <time>2022-01-29T11:54:15+01:00</time>
      </trkpt>
      <trkpt lat="42.73348" lon="0.17725">
        <ele>2328</ele>
        <time>2022-01-29T11:54:17+01:00</time>
      </trkpt>
      <trkpt lat="42.73345" lon="0.17721">
        <ele>2326</ele>
        <time>2022-01-29T11:54:18+01:00</time>
      </trkpt>
      <trkpt lat="42.73342" lon="0.17721">
        <ele>2324</ele>
        <time>2022-01-29T11:54:20+01:00</time>
      </trkpt>
      <trkpt lat="42.73342" lon="0.17729">
        <ele>2324</ele>
        <time>2022-01-29T11:54:22+01:00</time>
      </trkpt>
      <trkpt lat="42.73339" lon="0.17734">
        <ele>2322</ele>
        <time>2022-01-29T11:54:38+01:00</time>
      </trkpt>
      <trkpt lat="42.73336" lon="0.17736">
        <ele>2320</ele>
        <time>2022-01-29T11:55:06+01:00</time>
      </trkpt>
      <trkpt lat="42.73336" lon="0.17736">
        <ele>2320</ele>
        <time>2022-01-29T11:55:31+01:00</time>
      </trkpt>
      <trkpt lat="42.73336" lon="0.17738">
        <ele>2320</ele>
        <time>2022-01-29T11:55:52+01:00</time>
      </trkpt>
      <trkpt lat="42.73334" lon="0.17746">
        <ele>2319</ele>
        <time>2022-01-29T11:55:55+01:00</time>
      </trkpt>
      <trkpt lat="42.73324" lon="0.17742">
        <ele>2313</ele>
        <time>2022-01-29T11:55:59+01:00</time>
      </trkpt>
      <trkpt lat="42.73319" lon="0.17733">
        <ele>2310</ele>
        <time>2022-01-29T11:56:01+01:00</time>
      </trkpt>
      <trkpt lat="42.7331" lon="0.17726">
        <ele>2304</ele>
        <time>2022-01-29T11:56:04+01:00</time>
      </trkpt>
      <trkpt lat="42.73307" lon="0.17727">
        <ele>2302</ele>
        <time>2022-01-29T11:56:05+01:00</time>
      </trkpt>
      <trkpt lat="42.73298" lon="0.17724">
        <ele>2296</ele>
        <time>2022-01-29T11:56:07+01:00</time>
      </trkpt>
      <trkpt lat="42.73291" lon="0.17725">
        <ele>2292</ele>
        <time>2022-01-29T11:56:09+01:00</time>
      </trkpt>
      <trkpt lat="42.73289" lon="0.17729">
        <ele>2291</ele>
        <time>2022-01-29T11:56:10+01:00</time>
      </trkpt>
      <trkpt lat="42.73284" lon="0.17732">
        <ele>2288</ele>
        <time>2022-01-29T11:56:11+01:00</time>
      </trkpt>
      <trkpt lat="42.73279" lon="0.1773">
        <ele>2286</ele>
        <time>2022-01-29T11:56:12+01:00</time>
      </trkpt>
      <trkpt lat="42.73275" lon="0.17726">
        <ele>2283</ele>
        <time>2022-01-29T11:56:13+01:00</time>
      </trkpt>
      <trkpt lat="42.7326" lon="0.17704">
        <ele>2275</ele>
        <time>2022-01-29T11:56:18+01:00</time>
      </trkpt>
      <trkpt lat="42.73257" lon="0.17712">
        <ele>2273</ele>
        <time>2022-01-29T11:56:20+01:00</time>
      </trkpt>
      <trkpt lat="42.73254" lon="0.17725">
        <ele>2272</ele>
        <time>2022-01-29T11:56:22+01:00</time>
      </trkpt>
      <trkpt lat="42.7324" lon="0.17715">
        <ele>2264</ele>
        <time>2022-01-29T11:56:26+01:00</time>
      </trkpt>
      <trkpt lat="42.73229" lon="0.17707">
        <ele>2259</ele>
        <time>2022-01-29T11:56:29+01:00</time>
      </trkpt>
      <trkpt lat="42.73227" lon="0.17713">
        <ele>2258</ele>
        <time>2022-01-29T11:56:30+01:00</time>
      </trkpt>
      <trkpt lat="42.73227" lon="0.17722">
        <ele>2257</ele>
        <time>2022-01-29T11:56:33+01:00</time>
      </trkpt>
      <trkpt lat="42.73222" lon="0.17726">
        <ele>2255</ele>
        <time>2022-01-29T11:56:40+01:00</time>
      </trkpt>
      <trkpt lat="42.73211" lon="0.17721">
        <ele>2248</ele>
        <time>2022-01-29T11:56:44+01:00</time>
      </trkpt>
      <trkpt lat="42.73204" lon="0.17714">
        <ele>2245</ele>
        <time>2022-01-29T11:56:46+01:00</time>
      </trkpt>
      <trkpt lat="42.732" lon="0.17714">
        <ele>2243</ele>
        <time>2022-01-29T11:56:47+01:00</time>
      </trkpt>
      <trkpt lat="42.73198" lon="0.17719">
        <ele>2240</ele>
        <time>2022-01-29T11:56:48+01:00</time>
      </trkpt>
      <trkpt lat="42.73193" lon="0.17733">
        <ele>2239</ele>
        <time>2022-01-29T11:56:50+01:00</time>
      </trkpt>
      <trkpt lat="42.73187" lon="0.1774">
        <ele>2236</ele>
        <time>2022-01-29T11:56:52+01:00</time>
      </trkpt>
      <trkpt lat="42.73184" lon="0.17737">
        <ele>2234</ele>
        <time>2022-01-29T11:56:53+01:00</time>
      </trkpt>
      <trkpt lat="42.73179" lon="0.17727">
        <ele>2230</ele>
        <time>2022-01-29T11:56:55+01:00</time>
      </trkpt>
      <trkpt lat="42.73175" lon="0.17716">
        <ele>2228</ele>
        <time>2022-01-29T11:56:57+01:00</time>
      </trkpt>
      <trkpt lat="42.7317" lon="0.17698">
        <ele>2226</ele>
        <time>2022-01-29T11:57:00+01:00</time>
      </trkpt>
      <trkpt lat="42.73162" lon="0.17694">
        <ele>2223</ele>
        <time>2022-01-29T11:57:02+01:00</time>
      </trkpt>
      <trkpt lat="42.73146" lon="0.1771">
        <ele>2216</ele>
        <time>2022-01-29T11:57:05+01:00</time>
      </trkpt>
      <trkpt lat="42.73133" lon="0.17736">
        <ele>2212</ele>
        <time>2022-01-29T11:57:08+01:00</time>
      </trkpt>
      <trkpt lat="42.73125" lon="0.17748">
        <ele>2210</ele>
        <time>2022-01-29T11:57:13+01:00</time>
      </trkpt>
      <trkpt lat="42.73121" lon="0.17735">
        <ele>2208</ele>
        <time>2022-01-29T11:57:21+01:00</time>
      </trkpt>
      <trkpt lat="42.73121" lon="0.17733">
        <ele>2208</ele>
        <time>2022-01-29T11:57:39+01:00</time>
      </trkpt>
      <trkpt lat="42.73119" lon="0.17735">
        <ele>2207</ele>
        <time>2022-01-29T11:57:55+01:00</time>
      </trkpt>
      <trkpt lat="42.73118" lon="0.17735">
        <ele>2207</ele>
        <time>2022-01-29T11:57:59+01:00</time>
      </trkpt>
      <trkpt lat="42.731" lon="0.1778">
        <ele>2203</ele>
        <time>2022-01-29T11:58:09+01:00</time>
      </trkpt>
      <trkpt lat="42.73088" lon="0.17811">
        <ele>2200</ele>
        <time>2022-01-29T11:58:13+01:00</time>
      </trkpt>
      <trkpt lat="42.73085" lon="0.17818">
        <ele>2200</ele>
        <time>2022-01-29T11:58:14+01:00</time>
      </trkpt>
      <trkpt lat="42.7308" lon="0.17831">
        <ele>2199</ele>
        <time>2022-01-29T11:58:16+01:00</time>
      </trkpt>
      <trkpt lat="42.73076" lon="0.17843">
        <ele>2198</ele>
        <time>2022-01-29T11:58:18+01:00</time>
      </trkpt>
      <trkpt lat="42.73061" lon="0.17893">
        <ele>2195</ele>
        <time>2022-01-29T11:58:26+01:00</time>
      </trkpt>
      <trkpt lat="42.73057" lon="0.17907">
        <ele>2195</ele>
        <time>2022-01-29T11:58:28+01:00</time>
      </trkpt>
      <trkpt lat="42.73053" lon="0.17924">
        <ele>2195</ele>
        <time>2022-01-29T11:58:31+01:00</time>
      </trkpt>
      <trkpt lat="42.73039" lon="0.1796">
        <ele>2191</ele>
        <time>2022-01-29T11:58:42+01:00</time>
      </trkpt>
      <trkpt lat="42.73035" lon="0.17964">
        <ele>2190</ele>
        <time>2022-01-29T11:58:54+01:00</time>
      </trkpt>
      <trkpt lat="42.73037" lon="0.17964">
        <ele>2191</ele>
        <time>2022-01-29T11:59:11+01:00</time>
      </trkpt>
      <trkpt lat="42.73037" lon="0.17963">
        <ele>2191</ele>
        <time>2022-01-29T11:59:32+01:00</time>
      </trkpt>
      <trkpt lat="42.73037" lon="0.17965">
        <ele>2191</ele>
        <time>2022-01-29T11:59:52+01:00</time>
      </trkpt>
      <trkpt lat="42.73039" lon="0.17965">
        <ele>2191</ele>
        <time>2022-01-29T12:00:11+01:00</time>
      </trkpt>
      <trkpt lat="42.73035" lon="0.17964">
        <ele>2190</ele>
        <time>2022-01-29T12:00:27+01:00</time>
      </trkpt>
      <trkpt lat="42.73036" lon="0.17967">
        <ele>2190</ele>
        <time>2022-01-29T12:00:42+01:00</time>
      </trkpt>
      <trkpt lat="42.73036" lon="0.17965">
        <ele>2190</ele>
        <time>2022-01-29T12:01:16+01:00</time>
      </trkpt>
      <trkpt lat="42.73037" lon="0.17965">
        <ele>2191</ele>
        <time>2022-01-29T12:01:51+01:00</time>
      </trkpt>
      <trkpt lat="42.73037" lon="0.17964">
        <ele>2191</ele>
        <time>2022-01-29T12:02:28+01:00</time>
      </trkpt>
      <trkpt lat="42.73037" lon="0.17964">
        <ele>2191</ele>
        <time>2022-01-29T12:03:07+01:00</time>
      </trkpt>
      <trkpt lat="42.73036" lon="0.17964">
        <ele>2190</ele>
        <time>2022-01-29T12:03:43+01:00</time>
      </trkpt>
      <trkpt lat="42.73037" lon="0.17965">
        <ele>2191</ele>
        <time>2022-01-29T12:04:18+01:00</time>
      </trkpt>
      <trkpt lat="42.73037" lon="0.17965">
        <ele>2191</ele>
        <time>2022-01-29T12:04:53+01:00</time>
      </trkpt>
      <trkpt lat="42.73038" lon="0.17964">
        <ele>2191</ele>
        <time>2022-01-29T12:05:32+01:00</time>
      </trkpt>
      <trkpt lat="42.73037" lon="0.17964">
        <ele>2191</ele>
        <time>2022-01-29T12:05:44+01:00</time>
      </trkpt>
      <trkpt lat="42.73037" lon="0.17962">
        <ele>2191</ele>
        <time>2022-01-29T12:06:12+01:00</time>
      </trkpt>
      <trkpt lat="42.73037" lon="0.17963">
        <ele>2191</ele>
        <time>2022-01-29T12:06:45+01:00</time>
      </trkpt>
      <trkpt lat="42.73037" lon="0.17965">
        <ele>2191</ele>
        <time>2022-01-29T12:07:08+01:00</time>
      </trkpt>
      <trkpt lat="42.73037" lon="0.17963">
        <ele>2190</ele>
        <time>2022-01-29T12:07:47+01:00</time>
      </trkpt>
      <trkpt lat="42.73037" lon="0.17962">
        <ele>2191</ele>
        <time>2022-01-29T12:08:02+01:00</time>
      </trkpt>
      <trkpt lat="42.73038" lon="0.17961">
        <ele>2191</ele>
        <time>2022-01-29T12:08:16+01:00</time>
      </trkpt>
      <trkpt lat="42.73039" lon="0.17964">
        <ele>2191</ele>
        <time>2022-01-29T12:08:32+01:00</time>
      </trkpt>
      <trkpt lat="42.73038" lon="0.17965">
        <ele>2191</ele>
        <time>2022-01-29T12:08:48+01:00</time>
      </trkpt>
      <trkpt lat="42.73039" lon="0.17962">
        <ele>2191</ele>
        <time>2022-01-29T12:09:09+01:00</time>
      </trkpt>
      <trkpt lat="42.73038" lon="0.17963">
        <ele>2191</ele>
        <time>2022-01-29T12:09:26+01:00</time>
      </trkpt>
      <trkpt lat="42.73037" lon="0.17963">
        <ele>2191</ele>
        <time>2022-01-29T12:09:56+01:00</time>
      </trkpt>
      <trkpt lat="42.7304" lon="0.17962">
        <ele>2191</ele>
        <time>2022-01-29T12:10:18+01:00</time>
      </trkpt>
      <trkpt lat="42.73042" lon="0.1796">
        <ele>2192</ele>
        <time>2022-01-29T12:10:30+01:00</time>
      </trkpt>
      <trkpt lat="42.73047" lon="0.17959">
        <ele>2194</ele>
        <time>2022-01-29T12:10:41+01:00</time>
      </trkpt>
      <trkpt lat="42.73052" lon="0.17971">
        <ele>2196</ele>
        <time>2022-01-29T12:10:54+01:00</time>
      </trkpt>
      <trkpt lat="42.73053" lon="0.17974">
        <ele>2196</ele>
        <time>2022-01-29T12:11:00+01:00</time>
      </trkpt>
      <trkpt lat="42.73058" lon="0.1798">
        <ele>2198</ele>
        <time>2022-01-29T12:11:16+01:00</time>
      </trkpt>
      <trkpt lat="42.73065" lon="0.17989">
        <ele>2201</ele>
        <time>2022-01-29T12:11:31+01:00</time>
      </trkpt>
      <trkpt lat="42.7307" lon="0.17995">
        <ele>2203</ele>
        <time>2022-01-29T12:11:45+01:00</time>
      </trkpt>
      <trkpt lat="42.73074" lon="0.17995">
        <ele>2205</ele>
        <time>2022-01-29T12:11:57+01:00</time>
      </trkpt>
      <trkpt lat="42.73077" lon="0.17991">
        <ele>2206</ele>
        <time>2022-01-29T12:12:10+01:00</time>
      </trkpt>
      <trkpt lat="42.73082" lon="0.17988">
        <ele>2208</ele>
        <time>2022-01-29T12:12:21+01:00</time>
      </trkpt>
      <trkpt lat="42.73091" lon="0.17995">
        <ele>2212</ele>
        <time>2022-01-29T12:12:37+01:00</time>
      </trkpt>
      <trkpt lat="42.73098" lon="0.18001">
        <ele>2216</ele>
        <time>2022-01-29T12:12:52+01:00</time>
      </trkpt>
      <trkpt lat="42.731" lon="0.18015">
        <ele>2217</ele>
        <time>2022-01-29T12:13:10+01:00</time>
      </trkpt>
      <trkpt lat="42.73101" lon="0.18027">
        <ele>2218</ele>
        <time>2022-01-29T12:13:26+01:00</time>
      </trkpt>
      <trkpt lat="42.73103" lon="0.18032">
        <ele>2220</ele>
        <time>2022-01-29T12:13:39+01:00</time>
      </trkpt>
      <trkpt lat="42.73102" lon="0.18041">
        <ele>2220</ele>
        <time>2022-01-29T12:13:54+01:00</time>
      </trkpt>
      <trkpt lat="42.73105" lon="0.18054">
        <ele>2223</ele>
        <time>2022-01-29T12:14:09+01:00</time>
      </trkpt>
      <trkpt lat="42.73105" lon="0.18066">
        <ele>2225</ele>
        <time>2022-01-29T12:14:27+01:00</time>
      </trkpt>
      <trkpt lat="42.73108" lon="0.18079">
        <ele>2230</ele>
        <time>2022-01-29T12:14:44+01:00</time>
      </trkpt>
      <trkpt lat="42.73107" lon="0.18089">
        <ele>2230</ele>
        <time>2022-01-29T12:14:59+01:00</time>
      </trkpt>
      <trkpt lat="42.73105" lon="0.18088">
        <ele>2229</ele>
        <time>2022-01-29T12:15:19+01:00</time>
      </trkpt>
      <trkpt lat="42.73105" lon="0.18089">
        <ele>2229</ele>
        <time>2022-01-29T12:15:21+01:00</time>
      </trkpt>
      <trkpt lat="42.73105" lon="0.18089">
        <ele>2229</ele>
        <time>2022-01-29T12:15:22+01:00</time>
      </trkpt>
      <trkpt lat="42.73105" lon="0.18089">
        <ele>2229</ele>
        <time>2022-01-29T12:15:25+01:00</time>
      </trkpt>
      <trkpt lat="42.73104" lon="0.18091">
        <ele>2229</ele>
        <time>2022-01-29T12:15:42+01:00</time>
      </trkpt>
      <trkpt lat="42.73105" lon="0.18087">
        <ele>2229</ele>
        <time>2022-01-29T12:15:51+01:00</time>
      </trkpt>
      <trkpt lat="42.73105" lon="0.18087">
        <ele>2229</ele>
        <time>2022-01-29T12:15:54+01:00</time>
      </trkpt>
      <trkpt lat="42.73107" lon="0.18088">
        <ele>2230</ele>
        <time>2022-01-29T12:15:59+01:00</time>
      </trkpt>
      <trkpt lat="42.73107" lon="0.18088">
        <ele>2231</ele>
        <time>2022-01-29T12:16:00+01:00</time>
      </trkpt>
      <trkpt lat="42.73107" lon="0.18098">
        <ele>2232</ele>
        <time>2022-01-29T12:16:17+01:00</time>
      </trkpt>
      <trkpt lat="42.73107" lon="0.18111">
        <ele>2235</ele>
        <time>2022-01-29T12:16:33+01:00</time>
      </trkpt>
      <trkpt lat="42.73108" lon="0.18108">
        <ele>2235</ele>
        <time>2022-01-29T12:16:45+01:00</time>
      </trkpt>
      <trkpt lat="42.73114" lon="0.181">
        <ele>2237</ele>
        <time>2022-01-29T12:17:03+01:00</time>
      </trkpt>
      <trkpt lat="42.73118" lon="0.18098">
        <ele>2239</ele>
        <time>2022-01-29T12:17:18+01:00</time>
      </trkpt>
      <trkpt lat="42.73117" lon="0.18111">
        <ele>2240</ele>
        <time>2022-01-29T12:17:32+01:00</time>
      </trkpt>
      <trkpt lat="42.73117" lon="0.18127">
        <ele>2243</ele>
        <time>2022-01-29T12:17:51+01:00</time>
      </trkpt>
      <trkpt lat="42.73117" lon="0.1814">
        <ele>2245</ele>
        <time>2022-01-29T12:18:08+01:00</time>
      </trkpt>
      <trkpt lat="42.73117" lon="0.18149">
        <ele>2246</ele>
        <time>2022-01-29T12:18:23+01:00</time>
      </trkpt>
      <trkpt lat="42.73115" lon="0.18155">
        <ele>2245</ele>
        <time>2022-01-29T12:18:38+01:00</time>
      </trkpt>
      <trkpt lat="42.73117" lon="0.18168">
        <ele>2248</ele>
        <time>2022-01-29T12:18:57+01:00</time>
      </trkpt>
      <trkpt lat="42.73117" lon="0.18177">
        <ele>2249</ele>
        <time>2022-01-29T12:19:12+01:00</time>
      </trkpt>
      <trkpt lat="42.73117" lon="0.18183">
        <ele>2250</ele>
        <time>2022-01-29T12:19:26+01:00</time>
      </trkpt>
      <trkpt lat="42.73117" lon="0.18191">
        <ele>2251</ele>
        <time>2022-01-29T12:19:42+01:00</time>
      </trkpt>
      <trkpt lat="42.73119" lon="0.182">
        <ele>2253</ele>
        <time>2022-01-29T12:19:59+01:00</time>
      </trkpt>
      <trkpt lat="42.73119" lon="0.1821">
        <ele>2254</ele>
        <time>2022-01-29T12:20:14+01:00</time>
      </trkpt>
      <trkpt lat="42.7312" lon="0.18213">
        <ele>2255</ele>
        <time>2022-01-29T12:20:19+01:00</time>
      </trkpt>
      <trkpt lat="42.73121" lon="0.18218">
        <ele>2257</ele>
        <time>2022-01-29T12:20:35+01:00</time>
      </trkpt>
      <trkpt lat="42.73122" lon="0.18222">
        <ele>2258</ele>
        <time>2022-01-29T12:20:54+01:00</time>
      </trkpt>
      <trkpt lat="42.73124" lon="0.18217">
        <ele>2258</ele>
        <time>2022-01-29T12:21:10+01:00</time>
      </trkpt>
      <trkpt lat="42.73129" lon="0.18209">
        <ele>2260</ele>
        <time>2022-01-29T12:21:27+01:00</time>
      </trkpt>
      <trkpt lat="42.73133" lon="0.18203">
        <ele>2262</ele>
        <time>2022-01-29T12:21:38+01:00</time>
      </trkpt>
      <trkpt lat="42.73138" lon="0.18192">
        <ele>2264</ele>
        <time>2022-01-29T12:21:56+01:00</time>
      </trkpt>
      <trkpt lat="42.73142" lon="0.18186">
        <ele>2266</ele>
        <time>2022-01-29T12:22:13+01:00</time>
      </trkpt>
      <trkpt lat="42.73144" lon="0.18182">
        <ele>2266</ele>
        <time>2022-01-29T12:22:35+01:00</time>
      </trkpt>
      <trkpt lat="42.73144" lon="0.18195">
        <ele>2268</ele>
        <time>2022-01-29T12:22:54+01:00</time>
      </trkpt>
      <trkpt lat="42.73145" lon="0.18208">
        <ele>2270</ele>
        <time>2022-01-29T12:23:08+01:00</time>
      </trkpt>
      <trkpt lat="42.73146" lon="0.18221">
        <ele>2272</ele>
        <time>2022-01-29T12:23:24+01:00</time>
      </trkpt>
      <trkpt lat="42.73146" lon="0.18235">
        <ele>2274</ele>
        <time>2022-01-29T12:23:42+01:00</time>
      </trkpt>
      <trkpt lat="42.73147" lon="0.18244">
        <ele>2276</ele>
        <time>2022-01-29T12:23:59+01:00</time>
      </trkpt>
      <trkpt lat="42.73149" lon="0.18255">
        <ele>2279</ele>
        <time>2022-01-29T12:24:16+01:00</time>
      </trkpt>
      <trkpt lat="42.73148" lon="0.18269">
        <ele>2280</ele>
        <time>2022-01-29T12:24:35+01:00</time>
      </trkpt>
      <trkpt lat="42.7315" lon="0.1828">
        <ele>2283</ele>
        <time>2022-01-29T12:24:57+01:00</time>
      </trkpt>
      <trkpt lat="42.73153" lon="0.1829">
        <ele>2286</ele>
        <time>2022-01-29T12:25:14+01:00</time>
      </trkpt>
      <trkpt lat="42.73153" lon="0.18304">
        <ele>2287</ele>
        <time>2022-01-29T12:25:34+01:00</time>
      </trkpt>
      <trkpt lat="42.73151" lon="0.18316">
        <ele>2288</ele>
        <time>2022-01-29T12:25:52+01:00</time>
      </trkpt>
      <trkpt lat="42.73151" lon="0.18331">
        <ele>2290</ele>
        <time>2022-01-29T12:26:08+01:00</time>
      </trkpt>
      <trkpt lat="42.73153" lon="0.18336">
        <ele>2292</ele>
        <time>2022-01-29T12:26:23+01:00</time>
      </trkpt>
      <trkpt lat="42.73156" lon="0.18345">
        <ele>2295</ele>
        <time>2022-01-29T12:26:38+01:00</time>
      </trkpt>
      <trkpt lat="42.73157" lon="0.18356">
        <ele>2298</ele>
        <time>2022-01-29T12:26:53+01:00</time>
      </trkpt>
      <trkpt lat="42.73159" lon="0.18364">
        <ele>2300</ele>
        <time>2022-01-29T12:27:11+01:00</time>
      </trkpt>
      <trkpt lat="42.73159" lon="0.18374">
        <ele>2301</ele>
        <time>2022-01-29T12:27:24+01:00</time>
      </trkpt>
      <trkpt lat="42.73161" lon="0.18388">
        <ele>2304</ele>
        <time>2022-01-29T12:27:41+01:00</time>
      </trkpt>
      <trkpt lat="42.73162" lon="0.18393">
        <ele>2305</ele>
        <time>2022-01-29T12:27:56+01:00</time>
      </trkpt>
      <trkpt lat="42.7316" lon="0.18394">
        <ele>2304</ele>
        <time>2022-01-29T12:28:18+01:00</time>
      </trkpt>
      <trkpt lat="42.73163" lon="0.18385">
        <ele>2305</ele>
        <time>2022-01-29T12:28:30+01:00</time>
      </trkpt>
      <trkpt lat="42.73168" lon="0.18376">
        <ele>2307</ele>
        <time>2022-01-29T12:28:44+01:00</time>
      </trkpt>
      <trkpt lat="42.73174" lon="0.18365">
        <ele>2309</ele>
        <time>2022-01-29T12:29:01+01:00</time>
      </trkpt>
      <trkpt lat="42.73179" lon="0.18357">
        <ele>2311</ele>
        <time>2022-01-29T12:29:17+01:00</time>
      </trkpt>
      <trkpt lat="42.73182" lon="0.1835">
        <ele>2312</ele>
        <time>2022-01-29T12:29:34+01:00</time>
      </trkpt>
      <trkpt lat="42.73187" lon="0.18339">
        <ele>2314</ele>
        <time>2022-01-29T12:29:52+01:00</time>
      </trkpt>
      <trkpt lat="42.73193" lon="0.18331">
        <ele>2316</ele>
        <time>2022-01-29T12:30:10+01:00</time>
      </trkpt>
      <trkpt lat="42.73196" lon="0.18327">
        <ele>2317</ele>
        <time>2022-01-29T12:30:30+01:00</time>
      </trkpt>
      <trkpt lat="42.73196" lon="0.18329">
        <ele>2317</ele>
        <time>2022-01-29T12:30:44+01:00</time>
      </trkpt>
      <trkpt lat="42.73197" lon="0.18345">
        <ele>2320</ele>
        <time>2022-01-29T12:31:01+01:00</time>
      </trkpt>
      <trkpt lat="42.73198" lon="0.18358">
        <ele>2322</ele>
        <time>2022-01-29T12:31:17+01:00</time>
      </trkpt>
      <trkpt lat="42.73201" lon="0.18372">
        <ele>2326</ele>
        <time>2022-01-29T12:31:35+01:00</time>
      </trkpt>
      <trkpt lat="42.73201" lon="0.18382">
        <ele>2328</ele>
        <time>2022-01-29T12:31:53+01:00</time>
      </trkpt>
      <trkpt lat="42.73204" lon="0.18393">
        <ele>2330</ele>
        <time>2022-01-29T12:32:09+01:00</time>
      </trkpt>
      <trkpt lat="42.73205" lon="0.18403">
        <ele>2332</ele>
        <time>2022-01-29T12:32:25+01:00</time>
      </trkpt>
      <trkpt lat="42.73207" lon="0.18405">
        <ele>2333</ele>
        <time>2022-01-29T12:32:43+01:00</time>
      </trkpt>
      <trkpt lat="42.73205" lon="0.18408">
        <ele>2332</ele>
        <time>2022-01-29T12:33:02+01:00</time>
      </trkpt>
      <trkpt lat="42.73206" lon="0.18405">
        <ele>2333</ele>
        <time>2022-01-29T12:33:18+01:00</time>
      </trkpt>
      <trkpt lat="42.73211" lon="0.18396">
        <ele>2334</ele>
        <time>2022-01-29T12:33:34+01:00</time>
      </trkpt>
      <trkpt lat="42.73215" lon="0.18389">
        <ele>2336</ele>
        <time>2022-01-29T12:33:46+01:00</time>
      </trkpt>
      <trkpt lat="42.73219" lon="0.18381">
        <ele>2337</ele>
        <time>2022-01-29T12:33:59+01:00</time>
      </trkpt>
      <trkpt lat="42.73224" lon="0.18372">
        <ele>2339</ele>
        <time>2022-01-29T12:34:13+01:00</time>
      </trkpt>
      <trkpt lat="42.73229" lon="0.18365">
        <ele>2341</ele>
        <time>2022-01-29T12:34:28+01:00</time>
      </trkpt>
      <trkpt lat="42.73232" lon="0.18361">
        <ele>2342</ele>
        <time>2022-01-29T12:34:42+01:00</time>
      </trkpt>
      <trkpt lat="42.73233" lon="0.18364">
        <ele>2343</ele>
        <time>2022-01-29T12:34:58+01:00</time>
      </trkpt>
      <trkpt lat="42.73233" lon="0.18362">
        <ele>2343</ele>
        <time>2022-01-29T12:35:10+01:00</time>
      </trkpt>
      <trkpt lat="42.73232" lon="0.18363">
        <ele>2342</ele>
        <time>2022-01-29T12:35:35+01:00</time>
      </trkpt>
      <trkpt lat="42.73234" lon="0.18363">
        <ele>2344</ele>
        <time>2022-01-29T12:36:00+01:00</time>
      </trkpt>
      <trkpt lat="42.73234" lon="0.18366">
        <ele>2344</ele>
        <time>2022-01-29T12:36:21+01:00</time>
      </trkpt>
      <trkpt lat="42.73235" lon="0.18374">
        <ele>2346</ele>
        <time>2022-01-29T12:36:38+01:00</time>
      </trkpt>
      <trkpt lat="42.73237" lon="0.18385">
        <ele>2348</ele>
        <time>2022-01-29T12:36:52+01:00</time>
      </trkpt>
      <trkpt lat="42.73238" lon="0.18399">
        <ele>2350</ele>
        <time>2022-01-29T12:37:10+01:00</time>
      </trkpt>
      <trkpt lat="42.7324" lon="0.18412">
        <ele>2353</ele>
        <time>2022-01-29T12:37:27+01:00</time>
      </trkpt>
      <trkpt lat="42.7324" lon="0.18426">
        <ele>2353</ele>
        <time>2022-01-29T12:37:45+01:00</time>
      </trkpt>
      <trkpt lat="42.73243" lon="0.18439">
        <ele>2354</ele>
        <time>2022-01-29T12:38:00+01:00</time>
      </trkpt>
      <trkpt lat="42.73248" lon="0.18451">
        <ele>2356</ele>
        <time>2022-01-29T12:38:18+01:00</time>
      </trkpt>
      <trkpt lat="42.73252" lon="0.18463">
        <ele>2358</ele>
        <time>2022-01-29T12:38:34+01:00</time>
      </trkpt>
      <trkpt lat="42.73251" lon="0.18462">
        <ele>2357</ele>
        <time>2022-01-29T12:38:53+01:00</time>
      </trkpt>
      <trkpt lat="42.73252" lon="0.18458">
        <ele>2359</ele>
        <time>2022-01-29T12:39:05+01:00</time>
      </trkpt>
      <trkpt lat="42.73254" lon="0.18449">
        <ele>2360</ele>
        <time>2022-01-29T12:39:18+01:00</time>
      </trkpt>
      <trkpt lat="42.73259" lon="0.1844">
        <ele>2364</ele>
        <time>2022-01-29T12:39:32+01:00</time>
      </trkpt>
      <trkpt lat="42.73263" lon="0.18429">
        <ele>2366</ele>
        <time>2022-01-29T12:39:49+01:00</time>
      </trkpt>
      <trkpt lat="42.73268" lon="0.18419">
        <ele>2369</ele>
        <time>2022-01-29T12:40:04+01:00</time>
      </trkpt>
      <trkpt lat="42.73272" lon="0.18411">
        <ele>2370</ele>
        <time>2022-01-29T12:40:18+01:00</time>
      </trkpt>
      <trkpt lat="42.73278" lon="0.18402">
        <ele>2372</ele>
        <time>2022-01-29T12:40:32+01:00</time>
      </trkpt>
      <trkpt lat="42.73278" lon="0.18402">
        <ele>2372</ele>
        <time>2022-01-29T12:40:34+01:00</time>
      </trkpt>
      <trkpt lat="42.73276" lon="0.18413">
        <ele>2373</ele>
        <time>2022-01-29T12:40:49+01:00</time>
      </trkpt>
      <trkpt lat="42.73281" lon="0.18424">
        <ele>2376</ele>
        <time>2022-01-29T12:41:06+01:00</time>
      </trkpt>
      <trkpt lat="42.73285" lon="0.18435">
        <ele>2379</ele>
        <time>2022-01-29T12:41:22+01:00</time>
      </trkpt>
      <trkpt lat="42.73285" lon="0.18436">
        <ele>2380</ele>
        <time>2022-01-29T12:41:24+01:00</time>
      </trkpt>
      <trkpt lat="42.73287" lon="0.18451">
        <ele>2382</ele>
        <time>2022-01-29T12:41:42+01:00</time>
      </trkpt>
      <trkpt lat="42.7329" lon="0.18463">
        <ele>2384</ele>
        <time>2022-01-29T12:42:00+01:00</time>
      </trkpt>
      <trkpt lat="42.73294" lon="0.18472">
        <ele>2387</ele>
        <time>2022-01-29T12:42:14+01:00</time>
      </trkpt>
      <trkpt lat="42.73295" lon="0.18485">
        <ele>2390</ele>
        <time>2022-01-29T12:42:30+01:00</time>
      </trkpt>
      <trkpt lat="42.73298" lon="0.18498">
        <ele>2394</ele>
        <time>2022-01-29T12:42:45+01:00</time>
      </trkpt>
      <trkpt lat="42.733" lon="0.18509">
        <ele>2397</ele>
        <time>2022-01-29T12:43:01+01:00</time>
      </trkpt>
      <trkpt lat="42.73301" lon="0.18511">
        <ele>2399</ele>
        <time>2022-01-29T12:43:21+01:00</time>
      </trkpt>
      <trkpt lat="42.73302" lon="0.18513">
        <ele>2400</ele>
        <time>2022-01-29T12:43:47+01:00</time>
      </trkpt>
      <trkpt lat="42.73301" lon="0.18511">
        <ele>2399</ele>
        <time>2022-01-29T12:44:05+01:00</time>
      </trkpt>
      <trkpt lat="42.73304" lon="0.18505">
        <ele>2399</ele>
        <time>2022-01-29T12:44:19+01:00</time>
      </trkpt>
      <trkpt lat="42.73311" lon="0.18495">
        <ele>2402</ele>
        <time>2022-01-29T12:44:39+01:00</time>
      </trkpt>
      <trkpt lat="42.73317" lon="0.18483">
        <ele>2404</ele>
        <time>2022-01-29T12:44:57+01:00</time>
      </trkpt>
      <trkpt lat="42.73324" lon="0.18475">
        <ele>2407</ele>
        <time>2022-01-29T12:45:14+01:00</time>
      </trkpt>
      <trkpt lat="42.73323" lon="0.18476">
        <ele>2406</ele>
        <time>2022-01-29T12:45:30+01:00</time>
      </trkpt>
      <trkpt lat="42.73322" lon="0.18476">
        <ele>2406</ele>
        <time>2022-01-29T12:45:32+01:00</time>
      </trkpt>
      <trkpt lat="42.73322" lon="0.18476">
        <ele>2406</ele>
        <time>2022-01-29T12:45:33+01:00</time>
      </trkpt>
      <trkpt lat="42.73322" lon="0.18476">
        <ele>2406</ele>
        <time>2022-01-29T12:45:34+01:00</time>
      </trkpt>
      <trkpt lat="42.73321" lon="0.18476">
        <ele>2406</ele>
        <time>2022-01-29T12:45:38+01:00</time>
      </trkpt>
      <trkpt lat="42.73322" lon="0.18476">
        <ele>2406</ele>
        <time>2022-01-29T12:45:48+01:00</time>
      </trkpt>
      <trkpt lat="42.73323" lon="0.1848">
        <ele>2407</ele>
        <time>2022-01-29T12:46:06+01:00</time>
      </trkpt>
      <trkpt lat="42.73327" lon="0.1849">
        <ele>2411</ele>
        <time>2022-01-29T12:46:23+01:00</time>
      </trkpt>
      <trkpt lat="42.73327" lon="0.185">
        <ele>2413</ele>
        <time>2022-01-29T12:46:38+01:00</time>
      </trkpt>
      <trkpt lat="42.73329" lon="0.1851">
        <ele>2416</ele>
        <time>2022-01-29T12:46:53+01:00</time>
      </trkpt>
      <trkpt lat="42.73329" lon="0.18518">
        <ele>2418</ele>
        <time>2022-01-29T12:47:08+01:00</time>
      </trkpt>
      <trkpt lat="42.73329" lon="0.18526">
        <ele>2419</ele>
        <time>2022-01-29T12:47:26+01:00</time>
      </trkpt>
      <trkpt lat="42.7333" lon="0.18525">
        <ele>2419</ele>
        <time>2022-01-29T12:47:46+01:00</time>
      </trkpt>
      <trkpt lat="42.73334" lon="0.18519">
        <ele>2421</ele>
        <time>2022-01-29T12:48:00+01:00</time>
      </trkpt>
      <trkpt lat="42.7334" lon="0.18512">
        <ele>2423</ele>
        <time>2022-01-29T12:48:16+01:00</time>
      </trkpt>
      <trkpt lat="42.73345" lon="0.18506">
        <ele>2425</ele>
        <time>2022-01-29T12:48:29+01:00</time>
      </trkpt>
      <trkpt lat="42.73348" lon="0.18498">
        <ele>2426</ele>
        <time>2022-01-29T12:48:42+01:00</time>
      </trkpt>
      <trkpt lat="42.7335" lon="0.18497">
        <ele>2427</ele>
        <time>2022-01-29T12:48:57+01:00</time>
      </trkpt>
      <trkpt lat="42.7335" lon="0.18508">
        <ele>2429</ele>
        <time>2022-01-29T12:49:17+01:00</time>
      </trkpt>
      <trkpt lat="42.73351" lon="0.18524">
        <ele>2432</ele>
        <time>2022-01-29T12:49:38+01:00</time>
      </trkpt>
      <trkpt lat="42.7335" lon="0.18536">
        <ele>2434</ele>
        <time>2022-01-29T12:49:55+01:00</time>
      </trkpt>
      <trkpt lat="42.73352" lon="0.18541">
        <ele>2436</ele>
        <time>2022-01-29T12:50:12+01:00</time>
      </trkpt>
      <trkpt lat="42.73352" lon="0.18537">
        <ele>2435</ele>
        <time>2022-01-29T12:50:31+01:00</time>
      </trkpt>
      <trkpt lat="42.73358" lon="0.18526">
        <ele>2437</ele>
        <time>2022-01-29T12:50:47+01:00</time>
      </trkpt>
      <trkpt lat="42.73364" lon="0.18523">
        <ele>2440</ele>
        <time>2022-01-29T12:51:03+01:00</time>
      </trkpt>
      <trkpt lat="42.73363" lon="0.18534">
        <ele>2442</ele>
        <time>2022-01-29T12:51:20+01:00</time>
      </trkpt>
      <trkpt lat="42.73363" lon="0.18549">
        <ele>2444</ele>
        <time>2022-01-29T12:51:38+01:00</time>
      </trkpt>
      <trkpt lat="42.73362" lon="0.18563">
        <ele>2447</ele>
        <time>2022-01-29T12:51:58+01:00</time>
      </trkpt>
      <trkpt lat="42.7336" lon="0.18577">
        <ele>2450</ele>
        <time>2022-01-29T12:52:15+01:00</time>
      </trkpt>
      <trkpt lat="42.73358" lon="0.18593">
        <ele>2453</ele>
        <time>2022-01-29T12:52:33+01:00</time>
      </trkpt>
      <trkpt lat="42.73359" lon="0.18594">
        <ele>2454</ele>
        <time>2022-01-29T12:52:50+01:00</time>
      </trkpt>
      <trkpt lat="42.73357" lon="0.18592">
        <ele>2452</ele>
        <time>2022-01-29T12:53:03+01:00</time>
      </trkpt>
      <trkpt lat="42.73357" lon="0.18592">
        <ele>2452</ele>
        <time>2022-01-29T12:53:04+01:00</time>
      </trkpt>
      <trkpt lat="42.73357" lon="0.18593">
        <ele>2453</ele>
        <time>2022-01-29T12:53:08+01:00</time>
      </trkpt>
      <trkpt lat="42.73358" lon="0.18596">
        <ele>2454</ele>
        <time>2022-01-29T12:53:29+01:00</time>
      </trkpt>
      <trkpt lat="42.73354" lon="0.1861">
        <ele>2456</ele>
        <time>2022-01-29T12:53:48+01:00</time>
      </trkpt>
      <trkpt lat="42.73352" lon="0.1862">
        <ele>2457</ele>
        <time>2022-01-29T12:54:05+01:00</time>
      </trkpt>
      <trkpt lat="42.73348" lon="0.18634">
        <ele>2459</ele>
        <time>2022-01-29T12:54:21+01:00</time>
      </trkpt>
      <trkpt lat="42.73345" lon="0.18649">
        <ele>2462</ele>
        <time>2022-01-29T12:54:38+01:00</time>
      </trkpt>
      <trkpt lat="42.7334" lon="0.18664">
        <ele>2463</ele>
        <time>2022-01-29T12:54:57+01:00</time>
      </trkpt>
      <trkpt lat="42.73337" lon="0.18681">
        <ele>2466</ele>
        <time>2022-01-29T12:55:17+01:00</time>
      </trkpt>
      <trkpt lat="42.73334" lon="0.18697">
        <ele>2469</ele>
        <time>2022-01-29T12:55:36+01:00</time>
      </trkpt>
      <trkpt lat="42.73332" lon="0.18706">
        <ele>2470</ele>
        <time>2022-01-29T12:55:51+01:00</time>
      </trkpt>
      <trkpt lat="42.73334" lon="0.18714">
        <ele>2473</ele>
        <time>2022-01-29T12:56:20+01:00</time>
      </trkpt>
      <trkpt lat="42.73331" lon="0.18726">
        <ele>2474</ele>
        <time>2022-01-29T12:56:35+01:00</time>
      </trkpt>
      <trkpt lat="42.7333" lon="0.18737">
        <ele>2475</ele>
        <time>2022-01-29T12:56:51+01:00</time>
      </trkpt>
      <trkpt lat="42.73329" lon="0.18732">
        <ele>2474</ele>
        <time>2022-01-29T12:57:12+01:00</time>
      </trkpt>
      <trkpt lat="42.73334" lon="0.18728">
        <ele>2476</ele>
        <time>2022-01-29T12:57:28+01:00</time>
      </trkpt>
      <trkpt lat="42.73341" lon="0.18722">
        <ele>2479</ele>
        <time>2022-01-29T12:57:43+01:00</time>
      </trkpt>
      <trkpt lat="42.73349" lon="0.18716">
        <ele>2481</ele>
        <time>2022-01-29T12:57:58+01:00</time>
      </trkpt>
      <trkpt lat="42.73354" lon="0.18711">
        <ele>2483</ele>
        <time>2022-01-29T12:58:13+01:00</time>
      </trkpt>
      <trkpt lat="42.73353" lon="0.18714">
        <ele>2483</ele>
        <time>2022-01-29T12:58:32+01:00</time>
      </trkpt>
      <trkpt lat="42.73351" lon="0.18726">
        <ele>2485</ele>
        <time>2022-01-29T12:58:47+01:00</time>
      </trkpt>
      <trkpt lat="42.7335" lon="0.1874">
        <ele>2487</ele>
        <time>2022-01-29T12:59:03+01:00</time>
      </trkpt>
      <trkpt lat="42.73349" lon="0.18754">
        <ele>2490</ele>
        <time>2022-01-29T12:59:21+01:00</time>
      </trkpt>
      <trkpt lat="42.73352" lon="0.18754">
        <ele>2492</ele>
        <time>2022-01-29T12:59:46+01:00</time>
      </trkpt>
      <trkpt lat="42.73355" lon="0.18747">
        <ele>2492</ele>
        <time>2022-01-29T13:00:04+01:00</time>
      </trkpt>
      <trkpt lat="42.73364" lon="0.18733">
        <ele>2494</ele>
        <time>2022-01-29T13:00:21+01:00</time>
      </trkpt>
      <trkpt lat="42.73369" lon="0.18728">
        <ele>2496</ele>
        <time>2022-01-29T13:00:36+01:00</time>
      </trkpt>
      <trkpt lat="42.73376" lon="0.18726">
        <ele>2499</ele>
        <time>2022-01-29T13:00:56+01:00</time>
      </trkpt>
      <trkpt lat="42.73375" lon="0.18736">
        <ele>2501</ele>
        <time>2022-01-29T13:01:12+01:00</time>
      </trkpt>
      <trkpt lat="42.73372" lon="0.18749">
        <ele>2503</ele>
        <time>2022-01-29T13:01:28+01:00</time>
      </trkpt>
      <trkpt lat="42.7337" lon="0.1876">
        <ele>2505</ele>
        <time>2022-01-29T13:01:41+01:00</time>
      </trkpt>
      <trkpt lat="42.73369" lon="0.18773">
        <ele>2507</ele>
        <time>2022-01-29T13:01:56+01:00</time>
      </trkpt>
      <trkpt lat="42.73367" lon="0.18788">
        <ele>2511</ele>
        <time>2022-01-29T13:02:13+01:00</time>
      </trkpt>
      <trkpt lat="42.73366" lon="0.18787">
        <ele>2510</ele>
        <time>2022-01-29T13:02:29+01:00</time>
      </trkpt>
      <trkpt lat="42.73369" lon="0.1878">
        <ele>2510</ele>
        <time>2022-01-29T13:02:45+01:00</time>
      </trkpt>
      <trkpt lat="42.73375" lon="0.18774">
        <ele>2513</ele>
        <time>2022-01-29T13:02:58+01:00</time>
      </trkpt>
      <trkpt lat="42.73375" lon="0.18776">
        <ele>2513</ele>
        <time>2022-01-29T13:03:12+01:00</time>
      </trkpt>
      <trkpt lat="42.73374" lon="0.18783">
        <ele>2514</ele>
        <time>2022-01-29T13:03:31+01:00</time>
      </trkpt>
      <trkpt lat="42.73374" lon="0.18784">
        <ele>2515</ele>
        <time>2022-01-29T13:03:32+01:00</time>
      </trkpt>
      <trkpt lat="42.73372" lon="0.18795">
        <ele>2517</ele>
        <time>2022-01-29T13:03:46+01:00</time>
      </trkpt>
      <trkpt lat="42.73372" lon="0.18804">
        <ele>2520</ele>
        <time>2022-01-29T13:03:58+01:00</time>
      </trkpt>
      <trkpt lat="42.73374" lon="0.18806">
        <ele>2522</ele>
        <time>2022-01-29T13:04:14+01:00</time>
      </trkpt>
      <trkpt lat="42.73374" lon="0.18799">
        <ele>2520</ele>
        <time>2022-01-29T13:04:32+01:00</time>
      </trkpt>
      <trkpt lat="42.7338" lon="0.18792">
        <ele>2522</ele>
        <time>2022-01-29T13:04:47+01:00</time>
      </trkpt>
      <trkpt lat="42.73387" lon="0.18784">
        <ele>2525</ele>
        <time>2022-01-29T13:05:01+01:00</time>
      </trkpt>
      <trkpt lat="42.73392" lon="0.18778">
        <ele>2524</ele>
        <time>2022-01-29T13:05:13+01:00</time>
      </trkpt>
      <trkpt lat="42.73393" lon="0.18777">
        <ele>2524</ele>
        <time>2022-01-29T13:05:35+01:00</time>
      </trkpt>
      <trkpt lat="42.73394" lon="0.18771">
        <ele>2522</ele>
        <time>2022-01-29T13:05:52+01:00</time>
      </trkpt>
      <trkpt lat="42.73396" lon="0.18768">
        <ele>2521</ele>
        <time>2022-01-29T13:06:06+01:00</time>
      </trkpt>
      <trkpt lat="42.734" lon="0.18766">
        <ele>2520</ele>
        <time>2022-01-29T13:06:19+01:00</time>
      </trkpt>
      <trkpt lat="42.73401" lon="0.18765">
        <ele>2520</ele>
        <time>2022-01-29T13:06:48+01:00</time>
      </trkpt>
      <trkpt lat="42.73401" lon="0.18764">
        <ele>2520</ele>
        <time>2022-01-29T13:07:12+01:00</time>
      </trkpt>
      <trkpt lat="42.73401" lon="0.18764">
        <ele>2520</ele>
        <time>2022-01-29T13:07:33+01:00</time>
      </trkpt>
      <trkpt lat="42.73399" lon="0.18764">
        <ele>2520</ele>
        <time>2022-01-29T13:07:53+01:00</time>
      </trkpt>
      <trkpt lat="42.73402" lon="0.18765">
        <ele>2520</ele>
        <time>2022-01-29T13:08:19+01:00</time>
      </trkpt>
      <trkpt lat="42.73402" lon="0.18766">
        <ele>2521</ele>
        <time>2022-01-29T13:08:37+01:00</time>
      </trkpt>
      <trkpt lat="42.73401" lon="0.18768">
        <ele>2521</ele>
        <time>2022-01-29T13:08:58+01:00</time>
      </trkpt>
      <trkpt lat="42.73401" lon="0.18767">
        <ele>2521</ele>
        <time>2022-01-29T13:09:23+01:00</time>
      </trkpt>
      <trkpt lat="42.73399" lon="0.18765">
        <ele>2520</ele>
        <time>2022-01-29T13:09:50+01:00</time>
      </trkpt>
      <trkpt lat="42.734" lon="0.18763">
        <ele>2520</ele>
        <time>2022-01-29T13:10:13+01:00</time>
      </trkpt>
      <trkpt lat="42.73399" lon="0.18765">
        <ele>2520</ele>
        <time>2022-01-29T13:10:37+01:00</time>
      </trkpt>
      <trkpt lat="42.73399" lon="0.18766">
        <ele>2520</ele>
        <time>2022-01-29T13:10:52+01:00</time>
      </trkpt>
      <trkpt lat="42.73397" lon="0.18765">
        <ele>2520</ele>
        <time>2022-01-29T13:11:34+01:00</time>
      </trkpt>
      <trkpt lat="42.73398" lon="0.18768">
        <ele>2521</ele>
        <time>2022-01-29T13:12:10+01:00</time>
      </trkpt>
      <trkpt lat="42.73398" lon="0.18767">
        <ele>2520</ele>
        <time>2022-01-29T13:12:49+01:00</time>
      </trkpt>
      <trkpt lat="42.73397" lon="0.18765">
        <ele>2520</ele>
        <time>2022-01-29T13:13:16+01:00</time>
      </trkpt>
      <trkpt lat="42.73399" lon="0.18763">
        <ele>2520</ele>
        <time>2022-01-29T13:13:27+01:00</time>
      </trkpt>
      <trkpt lat="42.73398" lon="0.18767">
        <ele>2520</ele>
        <time>2022-01-29T13:13:53+01:00</time>
      </trkpt>
      <trkpt lat="42.73401" lon="0.18764">
        <ele>2520</ele>
        <time>2022-01-29T13:14:10+01:00</time>
      </trkpt>
      <trkpt lat="42.73405" lon="0.18764">
        <ele>2520</ele>
        <time>2022-01-29T13:14:23+01:00</time>
      </trkpt>
      <trkpt lat="42.73405" lon="0.18769">
        <ele>2521</ele>
        <time>2022-01-29T13:14:36+01:00</time>
      </trkpt>
      <trkpt lat="42.73404" lon="0.18774">
        <ele>2523</ele>
        <time>2022-01-29T13:14:52+01:00</time>
      </trkpt>
      <trkpt lat="42.73405" lon="0.18775">
        <ele>2523</ele>
        <time>2022-01-29T13:15:07+01:00</time>
      </trkpt>
      <trkpt lat="42.73402" lon="0.18781">
        <ele>2525</ele>
        <time>2022-01-29T13:15:25+01:00</time>
      </trkpt>
      <trkpt lat="42.73401" lon="0.18784">
        <ele>2526</ele>
        <time>2022-01-29T13:15:39+01:00</time>
      </trkpt>
      <trkpt lat="42.73399" lon="0.18787">
        <ele>2527</ele>
        <time>2022-01-29T13:15:53+01:00</time>
      </trkpt>
      <trkpt lat="42.73401" lon="0.18791">
        <ele>2528</ele>
        <time>2022-01-29T13:16:08+01:00</time>
      </trkpt>
      <trkpt lat="42.73404" lon="0.1879">
        <ele>2528</ele>
        <time>2022-01-29T13:16:22+01:00</time>
      </trkpt>
      <trkpt lat="42.73406" lon="0.18794">
        <ele>2529</ele>
        <time>2022-01-29T13:16:39+01:00</time>
      </trkpt>
      <trkpt lat="42.73407" lon="0.18793">
        <ele>2529</ele>
        <time>2022-01-29T13:16:54+01:00</time>
      </trkpt>
      <trkpt lat="42.73408" lon="0.18801">
        <ele>2532</ele>
        <time>2022-01-29T13:17:11+01:00</time>
      </trkpt>
      <trkpt lat="42.73407" lon="0.18802">
        <ele>2533</ele>
        <time>2022-01-29T13:17:42+01:00</time>
      </trkpt>
      <trkpt lat="42.73406" lon="0.18806">
        <ele>2534</ele>
        <time>2022-01-29T13:18:00+01:00</time>
      </trkpt>
      <trkpt lat="42.73406" lon="0.18811">
        <ele>2536</ele>
        <time>2022-01-29T13:18:16+01:00</time>
      </trkpt>
      <trkpt lat="42.73408" lon="0.18812">
        <ele>2537</ele>
        <time>2022-01-29T13:18:34+01:00</time>
      </trkpt>
      <trkpt lat="42.7341" lon="0.18815">
        <ele>2539</ele>
        <time>2022-01-29T13:18:49+01:00</time>
      </trkpt>
      <trkpt lat="42.73406" lon="0.18817">
        <ele>2540</ele>
        <time>2022-01-29T13:19:07+01:00</time>
      </trkpt>
      <trkpt lat="42.73404" lon="0.18824">
        <ele>2543</ele>
        <time>2022-01-29T13:19:27+01:00</time>
      </trkpt>
      <trkpt lat="42.73404" lon="0.1883">
        <ele>2545</ele>
        <time>2022-01-29T13:19:42+01:00</time>
      </trkpt>
      <trkpt lat="42.73408" lon="0.18828">
        <ele>2545</ele>
        <time>2022-01-29T13:19:59+01:00</time>
      </trkpt>
      <trkpt lat="42.73411" lon="0.18834">
        <ele>2548</ele>
        <time>2022-01-29T13:20:14+01:00</time>
      </trkpt>
      <trkpt lat="42.73411" lon="0.18839">
        <ele>2549</ele>
        <time>2022-01-29T13:20:25+01:00</time>
      </trkpt>
      <trkpt lat="42.73407" lon="0.18846">
        <ele>2550</ele>
        <time>2022-01-29T13:20:39+01:00</time>
      </trkpt>
      <trkpt lat="42.73404" lon="0.18853">
        <ele>2552</ele>
        <time>2022-01-29T13:20:56+01:00</time>
      </trkpt>
      <trkpt lat="42.73405" lon="0.18858">
        <ele>2553</ele>
        <time>2022-01-29T13:21:15+01:00</time>
      </trkpt>
      <trkpt lat="42.73403" lon="0.18862">
        <ele>2553</ele>
        <time>2022-01-29T13:21:31+01:00</time>
      </trkpt>
      <trkpt lat="42.73404" lon="0.18862">
        <ele>2553</ele>
        <time>2022-01-29T13:21:46+01:00</time>
      </trkpt>
      <trkpt lat="42.73404" lon="0.1886">
        <ele>2553</ele>
        <time>2022-01-29T13:22:04+01:00</time>
      </trkpt>
      <trkpt lat="42.73404" lon="0.18863">
        <ele>2553</ele>
        <time>2022-01-29T13:22:33+01:00</time>
      </trkpt>
      <trkpt lat="42.73404" lon="0.18861">
        <ele>2554</ele>
        <time>2022-01-29T13:22:51+01:00</time>
      </trkpt>
      <trkpt lat="42.73404" lon="0.18865">
        <ele>2553</ele>
        <time>2022-01-29T13:23:15+01:00</time>
      </trkpt>
      <trkpt lat="42.73406" lon="0.18864">
        <ele>2553</ele>
        <time>2022-01-29T13:23:32+01:00</time>
      </trkpt>
      <trkpt lat="42.73405" lon="0.18862">
        <ele>2553</ele>
        <time>2022-01-29T13:23:56+01:00</time>
      </trkpt>
      <trkpt lat="42.73404" lon="0.18862">
        <ele>2553</ele>
        <time>2022-01-29T13:24:24+01:00</time>
      </trkpt>
      <trkpt lat="42.73402" lon="0.18864">
        <ele>2553</ele>
        <time>2022-01-29T13:24:46+01:00</time>
      </trkpt>
      <trkpt lat="42.73404" lon="0.18862">
        <ele>2553</ele>
        <time>2022-01-29T13:25:12+01:00</time>
      </trkpt>
      <trkpt lat="42.73402" lon="0.18864">
        <ele>2553</ele>
        <time>2022-01-29T13:25:33+01:00</time>
      </trkpt>
      <trkpt lat="42.73403" lon="0.18863">
        <ele>2553</ele>
        <time>2022-01-29T13:25:56+01:00</time>
      </trkpt>
      <trkpt lat="42.73402" lon="0.18865">
        <ele>2553</ele>
        <time>2022-01-29T13:26:17+01:00</time>
      </trkpt>
      <trkpt lat="42.73403" lon="0.18864">
        <ele>2553</ele>
        <time>2022-01-29T13:26:38+01:00</time>
      </trkpt>
      <trkpt lat="42.73402" lon="0.18863">
        <ele>2553</ele>
        <time>2022-01-29T13:26:55+01:00</time>
      </trkpt>
      <trkpt lat="42.73404" lon="0.18865">
        <ele>2553</ele>
        <time>2022-01-29T13:27:25+01:00</time>
      </trkpt>
      <trkpt lat="42.73403" lon="0.1886">
        <ele>2553</ele>
        <time>2022-01-29T13:27:42+01:00</time>
      </trkpt>
      <trkpt lat="42.73405" lon="0.18853">
        <ele>2552</ele>
        <time>2022-01-29T13:27:58+01:00</time>
      </trkpt>
      <trkpt lat="42.73405" lon="0.18848">
        <ele>2550</ele>
        <time>2022-01-29T13:28:14+01:00</time>
      </trkpt>
      <trkpt lat="42.73406" lon="0.18843">
        <ele>2549</ele>
        <time>2022-01-29T13:28:32+01:00</time>
      </trkpt>
      <trkpt lat="42.73406" lon="0.18835">
        <ele>2548</ele>
        <time>2022-01-29T13:28:48+01:00</time>
      </trkpt>
      <trkpt lat="42.73405" lon="0.18832">
        <ele>2546</ele>
        <time>2022-01-29T13:29:04+01:00</time>
      </trkpt>
      <trkpt lat="42.73404" lon="0.18827">
        <ele>2544</ele>
        <time>2022-01-29T13:29:22+01:00</time>
      </trkpt>
      <trkpt lat="42.73407" lon="0.18819">
        <ele>2540</ele>
        <time>2022-01-29T13:29:40+01:00</time>
      </trkpt>
      <trkpt lat="42.73406" lon="0.18817">
        <ele>2539</ele>
        <time>2022-01-29T13:29:57+01:00</time>
      </trkpt>
      <trkpt lat="42.73403" lon="0.18814">
        <ele>2538</ele>
        <time>2022-01-29T13:30:12+01:00</time>
      </trkpt>
      <trkpt lat="42.73403" lon="0.18806">
        <ele>2534</ele>
        <time>2022-01-29T13:30:29+01:00</time>
      </trkpt>
      <trkpt lat="42.73403" lon="0.18803">
        <ele>2533</ele>
        <time>2022-01-29T13:30:44+01:00</time>
      </trkpt>
      <trkpt lat="42.73404" lon="0.18801">
        <ele>2532</ele>
        <time>2022-01-29T13:31:03+01:00</time>
      </trkpt>
      <trkpt lat="42.73402" lon="0.188">
        <ele>2532</ele>
        <time>2022-01-29T13:31:21+01:00</time>
      </trkpt>
      <trkpt lat="42.73401" lon="0.188">
        <ele>2532</ele>
        <time>2022-01-29T13:31:35+01:00</time>
      </trkpt>
      <trkpt lat="42.734" lon="0.18796">
        <ele>2530</ele>
        <time>2022-01-29T13:31:50+01:00</time>
      </trkpt>
      <trkpt lat="42.73399" lon="0.18794">
        <ele>2530</ele>
        <time>2022-01-29T13:32:05+01:00</time>
      </trkpt>
      <trkpt lat="42.73399" lon="0.18791">
        <ele>2528</ele>
        <time>2022-01-29T13:32:20+01:00</time>
      </trkpt>
      <trkpt lat="42.73399" lon="0.18786">
        <ele>2527</ele>
        <time>2022-01-29T13:32:28+01:00</time>
      </trkpt>
      <trkpt lat="42.73402" lon="0.18779">
        <ele>2524</ele>
        <time>2022-01-29T13:32:44+01:00</time>
      </trkpt>
      <trkpt lat="42.73403" lon="0.18772">
        <ele>2522</ele>
        <time>2022-01-29T13:32:59+01:00</time>
      </trkpt>
      <trkpt lat="42.73403" lon="0.1877">
        <ele>2522</ele>
        <time>2022-01-29T13:33:04+01:00</time>
      </trkpt>
      <trkpt lat="42.73402" lon="0.18769">
        <ele>2521</ele>
        <time>2022-01-29T13:33:18+01:00</time>
      </trkpt>
      <trkpt lat="42.73399" lon="0.18766">
        <ele>2520</ele>
        <time>2022-01-29T13:33:32+01:00</time>
      </trkpt>
      <trkpt lat="42.73401" lon="0.18766">
        <ele>2520</ele>
        <time>2022-01-29T13:33:48+01:00</time>
      </trkpt>
      <trkpt lat="42.734" lon="0.18767">
        <ele>2521</ele>
        <time>2022-01-29T13:34:04+01:00</time>
      </trkpt>
      <trkpt lat="42.734" lon="0.18766">
        <ele>2520</ele>
        <time>2022-01-29T13:34:36+01:00</time>
      </trkpt>
      <trkpt lat="42.734" lon="0.18766">
        <ele>2520</ele>
        <time>2022-01-29T13:35:05+01:00</time>
      </trkpt>
      <trkpt lat="42.734" lon="0.18766">
        <ele>2520</ele>
        <time>2022-01-29T13:35:34+01:00</time>
      </trkpt>
      <trkpt lat="42.734" lon="0.18766">
        <ele>2520</ele>
        <time>2022-01-29T13:36:03+01:00</time>
      </trkpt>
      <trkpt lat="42.73399" lon="0.18764">
        <ele>2520</ele>
        <time>2022-01-29T13:36:37+01:00</time>
      </trkpt>
      <trkpt lat="42.73399" lon="0.18765">
        <ele>2520</ele>
        <time>2022-01-29T13:37:23+01:00</time>
      </trkpt>
      <trkpt lat="42.73402" lon="0.18768">
        <ele>2521</ele>
        <time>2022-01-29T13:37:31+01:00</time>
      </trkpt>
      <trkpt lat="42.73399" lon="0.18767">
        <ele>2521</ele>
        <time>2022-01-29T13:37:55+01:00</time>
      </trkpt>
      <trkpt lat="42.73399" lon="0.18763">
        <ele>2520</ele>
        <time>2022-01-29T13:38:18+01:00</time>
      </trkpt>
      <trkpt lat="42.734" lon="0.18763">
        <ele>2520</ele>
        <time>2022-01-29T13:38:43+01:00</time>
      </trkpt>
      <trkpt lat="42.73398" lon="0.18765">
        <ele>2520</ele>
        <time>2022-01-29T13:39:04+01:00</time>
      </trkpt>
      <trkpt lat="42.73398" lon="0.18765">
        <ele>2520</ele>
        <time>2022-01-29T13:39:16+01:00</time>
      </trkpt>
      <trkpt lat="42.73399" lon="0.18764">
        <ele>2520</ele>
        <time>2022-01-29T13:39:39+01:00</time>
      </trkpt>
      <trkpt lat="42.73399" lon="0.18763">
        <ele>2519</ele>
        <time>2022-01-29T13:40:01+01:00</time>
      </trkpt>
      <trkpt lat="42.73399" lon="0.18764">
        <ele>2520</ele>
        <time>2022-01-29T13:40:23+01:00</time>
      </trkpt>
      <trkpt lat="42.73399" lon="0.18765">
        <ele>2520</ele>
        <time>2022-01-29T13:40:48+01:00</time>
      </trkpt>
      <trkpt lat="42.734" lon="0.18764">
        <ele>2520</ele>
        <time>2022-01-29T13:41:12+01:00</time>
      </trkpt>
      <trkpt lat="42.73399" lon="0.18763">
        <ele>2520</ele>
        <time>2022-01-29T13:41:15+01:00</time>
      </trkpt>
      <trkpt lat="42.73394" lon="0.1876">
        <ele>2518</ele>
        <time>2022-01-29T13:41:20+01:00</time>
      </trkpt>
      <trkpt lat="42.73387" lon="0.1876">
        <ele>2517</ele>
        <time>2022-01-29T13:41:23+01:00</time>
      </trkpt>
      <trkpt lat="42.73387" lon="0.18752">
        <ele>2514</ele>
        <time>2022-01-29T13:41:25+01:00</time>
      </trkpt>
      <trkpt lat="42.73381" lon="0.18753">
        <ele>2510</ele>
        <time>2022-01-29T13:41:28+01:00</time>
      </trkpt>
      <trkpt lat="42.73376" lon="0.18746">
        <ele>2504</ele>
        <time>2022-01-29T13:41:31+01:00</time>
      </trkpt>
      <trkpt lat="42.73376" lon="0.18739">
        <ele>2503</ele>
        <time>2022-01-29T13:41:32+01:00</time>
      </trkpt>
      <trkpt lat="42.73378" lon="0.18724">
        <ele>2500</ele>
        <time>2022-01-29T13:41:34+01:00</time>
      </trkpt>
      <trkpt lat="42.73382" lon="0.1871">
        <ele>2498</ele>
        <time>2022-01-29T13:41:41+01:00</time>
      </trkpt>
      <trkpt lat="42.73382" lon="0.18711">
        <ele>2498</ele>
        <time>2022-01-29T13:42:06+01:00</time>
      </trkpt>
      <trkpt lat="42.73382" lon="0.18712">
        <ele>2499</ele>
        <time>2022-01-29T13:42:26+01:00</time>
      </trkpt>
      <trkpt lat="42.73383" lon="0.18713">
        <ele>2499</ele>
        <time>2022-01-29T13:42:54+01:00</time>
      </trkpt>
      <trkpt lat="42.73381" lon="0.1871">
        <ele>2498</ele>
        <time>2022-01-29T13:43:06+01:00</time>
      </trkpt>
      <trkpt lat="42.73368" lon="0.1871">
        <ele>2491</ele>
        <time>2022-01-29T13:43:11+01:00</time>
      </trkpt>
      <trkpt lat="42.73364" lon="0.18702">
        <ele>2487</ele>
        <time>2022-01-29T13:43:13+01:00</time>
      </trkpt>
      <trkpt lat="42.73364" lon="0.18696">
        <ele>2486</ele>
        <time>2022-01-29T13:43:14+01:00</time>
      </trkpt>
      <trkpt lat="42.73363" lon="0.18692">
        <ele>2484</ele>
        <time>2022-01-29T13:43:15+01:00</time>
      </trkpt>
      <trkpt lat="42.73354" lon="0.18692">
        <ele>2479</ele>
        <time>2022-01-29T13:43:18+01:00</time>
      </trkpt>
      <trkpt lat="42.7335" lon="0.18696">
        <ele>2478</ele>
        <time>2022-01-29T13:43:20+01:00</time>
      </trkpt>
      <trkpt lat="42.73349" lon="0.18699">
        <ele>2478</ele>
        <time>2022-01-29T13:43:21+01:00</time>
      </trkpt>
      <trkpt lat="42.73351" lon="0.187">
        <ele>2479</ele>
        <time>2022-01-29T13:43:30+01:00</time>
      </trkpt>
      <trkpt lat="42.7335" lon="0.18701">
        <ele>2479</ele>
        <time>2022-01-29T13:43:43+01:00</time>
      </trkpt>
      <trkpt lat="42.73335" lon="0.18704">
        <ele>2471</ele>
        <time>2022-01-29T13:43:48+01:00</time>
      </trkpt>
      <trkpt lat="42.73333" lon="0.187">
        <ele>2469</ele>
        <time>2022-01-29T13:43:49+01:00</time>
      </trkpt>
      <trkpt lat="42.73329" lon="0.1869">
        <ele>2464</ele>
        <time>2022-01-29T13:43:51+01:00</time>
      </trkpt>
      <trkpt lat="42.73322" lon="0.18689">
        <ele>2458</ele>
        <time>2022-01-29T13:43:53+01:00</time>
      </trkpt>
      <trkpt lat="42.73315" lon="0.18686">
        <ele>2453</ele>
        <time>2022-01-29T13:43:55+01:00</time>
      </trkpt>
      <trkpt lat="42.73314" lon="0.18681">
        <ele>2450</ele>
        <time>2022-01-29T13:43:56+01:00</time>
      </trkpt>
      <trkpt lat="42.73315" lon="0.18668">
        <ele>2447</ele>
        <time>2022-01-29T13:43:58+01:00</time>
      </trkpt>
      <trkpt lat="42.73317" lon="0.18657">
        <ele>2445</ele>
        <time>2022-01-29T13:44:00+01:00</time>
      </trkpt>
      <trkpt lat="42.73318" lon="0.18643">
        <ele>2442</ele>
        <time>2022-01-29T13:44:03+01:00</time>
      </trkpt>
      <trkpt lat="42.73309" lon="0.18642">
        <ele>2436</ele>
        <time>2022-01-29T13:44:06+01:00</time>
      </trkpt>
      <trkpt lat="42.73299" lon="0.18654">
        <ele>2433</ele>
        <time>2022-01-29T13:44:09+01:00</time>
      </trkpt>
      <trkpt lat="42.73297" lon="0.18657">
        <ele>2433</ele>
        <time>2022-01-29T13:44:11+01:00</time>
      </trkpt>
      <trkpt lat="42.7329" lon="0.18664">
        <ele>2431</ele>
        <time>2022-01-29T13:44:15+01:00</time>
      </trkpt>
      <trkpt lat="42.73283" lon="0.18662">
        <ele>2426</ele>
        <time>2022-01-29T13:44:17+01:00</time>
      </trkpt>
      <trkpt lat="42.73282" lon="0.18659">
        <ele>2424</ele>
        <time>2022-01-29T13:44:18+01:00</time>
      </trkpt>
      <trkpt lat="42.73281" lon="0.18652">
        <ele>2422</ele>
        <time>2022-01-29T13:44:20+01:00</time>
      </trkpt>
      <trkpt lat="42.7328" lon="0.18648">
        <ele>2421</ele>
        <time>2022-01-29T13:44:21+01:00</time>
      </trkpt>
      <trkpt lat="42.73269" lon="0.18654">
        <ele>2415</ele>
        <time>2022-01-29T13:44:24+01:00</time>
      </trkpt>
      <trkpt lat="42.73262" lon="0.18662">
        <ele>2412</ele>
        <time>2022-01-29T13:44:27+01:00</time>
      </trkpt>
      <trkpt lat="42.73258" lon="0.18661">
        <ele>2409</ele>
        <time>2022-01-29T13:44:38+01:00</time>
      </trkpt>
      <trkpt lat="42.73257" lon="0.18662">
        <ele>2409</ele>
        <time>2022-01-29T13:44:52+01:00</time>
      </trkpt>
      <trkpt lat="42.73251" lon="0.18667">
        <ele>2407</ele>
        <time>2022-01-29T13:44:55+01:00</time>
      </trkpt>
      <trkpt lat="42.73248" lon="0.1867">
        <ele>2406</ele>
        <time>2022-01-29T13:44:56+01:00</time>
      </trkpt>
      <trkpt lat="42.73238" lon="0.18664">
        <ele>2398</ele>
        <time>2022-01-29T13:44:59+01:00</time>
      </trkpt>
      <trkpt lat="42.73234" lon="0.18655">
        <ele>2392</ele>
        <time>2022-01-29T13:45:01+01:00</time>
      </trkpt>
      <trkpt lat="42.73229" lon="0.18655">
        <ele>2390</ele>
        <time>2022-01-29T13:45:02+01:00</time>
      </trkpt>
      <trkpt lat="42.73222" lon="0.18662">
        <ele>2387</ele>
        <time>2022-01-29T13:45:04+01:00</time>
      </trkpt>
      <trkpt lat="42.73218" lon="0.18662">
        <ele>2384</ele>
        <time>2022-01-29T13:45:05+01:00</time>
      </trkpt>
      <trkpt lat="42.73213" lon="0.18653">
        <ele>2379</ele>
        <time>2022-01-29T13:45:07+01:00</time>
      </trkpt>
      <trkpt lat="42.73207" lon="0.1864">
        <ele>2372</ele>
        <time>2022-01-29T13:45:10+01:00</time>
      </trkpt>
      <trkpt lat="42.73203" lon="0.18644">
        <ele>2370</ele>
        <time>2022-01-29T13:45:11+01:00</time>
      </trkpt>
      <trkpt lat="42.732" lon="0.18648">
        <ele>2370</ele>
        <time>2022-01-29T13:45:12+01:00</time>
      </trkpt>
      <trkpt lat="42.73198" lon="0.18654">
        <ele>2369</ele>
        <time>2022-01-29T13:45:14+01:00</time>
      </trkpt>
      <trkpt lat="42.73198" lon="0.18656">
        <ele>2370</ele>
        <time>2022-01-29T13:45:27+01:00</time>
      </trkpt>
      <trkpt lat="42.73197" lon="0.18656">
        <ele>2369</ele>
        <time>2022-01-29T13:45:47+01:00</time>
      </trkpt>
      <trkpt lat="42.73199" lon="0.18658">
        <ele>2371</ele>
        <time>2022-01-29T13:46:11+01:00</time>
      </trkpt>
      <trkpt lat="42.73199" lon="0.18658">
        <ele>2371</ele>
        <time>2022-01-29T13:46:28+01:00</time>
      </trkpt>
      <trkpt lat="42.73188" lon="0.18654">
        <ele>2363</ele>
        <time>2022-01-29T13:46:32+01:00</time>
      </trkpt>
      <trkpt lat="42.73186" lon="0.18645">
        <ele>2360</ele>
        <time>2022-01-29T13:46:34+01:00</time>
      </trkpt>
      <trkpt lat="42.73181" lon="0.18638">
        <ele>2356</ele>
        <time>2022-01-29T13:46:36+01:00</time>
      </trkpt>
      <trkpt lat="42.73173" lon="0.18643">
        <ele>2352</ele>
        <time>2022-01-29T13:46:38+01:00</time>
      </trkpt>
      <trkpt lat="42.73164" lon="0.18641">
        <ele>2347</ele>
        <time>2022-01-29T13:46:40+01:00</time>
      </trkpt>
      <trkpt lat="42.73162" lon="0.18636">
        <ele>2345</ele>
        <time>2022-01-29T13:46:41+01:00</time>
      </trkpt>
      <trkpt lat="42.73159" lon="0.1863">
        <ele>2342</ele>
        <time>2022-01-29T13:46:42+01:00</time>
      </trkpt>
      <trkpt lat="42.73154" lon="0.18627">
        <ele>2338</ele>
        <time>2022-01-29T13:46:43+01:00</time>
      </trkpt>
      <trkpt lat="42.73149" lon="0.18628">
        <ele>2336</ele>
        <time>2022-01-29T13:46:44+01:00</time>
      </trkpt>
      <trkpt lat="42.73141" lon="0.18637">
        <ele>2332</ele>
        <time>2022-01-29T13:46:46+01:00</time>
      </trkpt>
      <trkpt lat="42.73137" lon="0.18637">
        <ele>2329</ele>
        <time>2022-01-29T13:46:47+01:00</time>
      </trkpt>
      <trkpt lat="42.73134" lon="0.18635">
        <ele>2327</ele>
        <time>2022-01-29T13:46:48+01:00</time>
      </trkpt>
      <trkpt lat="42.73129" lon="0.18633">
        <ele>2324</ele>
        <time>2022-01-29T13:46:49+01:00</time>
      </trkpt>
      <trkpt lat="42.73121" lon="0.18634">
        <ele>2319</ele>
        <time>2022-01-29T13:46:51+01:00</time>
      </trkpt>
      <trkpt lat="42.73117" lon="0.18632">
        <ele>2317</ele>
        <time>2022-01-29T13:46:52+01:00</time>
      </trkpt>
      <trkpt lat="42.73115" lon="0.18624">
        <ele>2314</ele>
        <time>2022-01-29T13:46:54+01:00</time>
      </trkpt>
      <trkpt lat="42.73113" lon="0.18612">
        <ele>2312</ele>
        <time>2022-01-29T13:46:56+01:00</time>
      </trkpt>
      <trkpt lat="42.73109" lon="0.18609">
        <ele>2309</ele>
        <time>2022-01-29T13:46:57+01:00</time>
      </trkpt>
      <trkpt lat="42.73101" lon="0.18617">
        <ele>2306</ele>
        <time>2022-01-29T13:46:59+01:00</time>
      </trkpt>
      <trkpt lat="42.73094" lon="0.18628">
        <ele>2303</ele>
        <time>2022-01-29T13:47:01+01:00</time>
      </trkpt>
      <trkpt lat="42.73083" lon="0.18632">
        <ele>2297</ele>
        <time>2022-01-29T13:47:03+01:00</time>
      </trkpt>
      <trkpt lat="42.73079" lon="0.18628">
        <ele>2294</ele>
        <time>2022-01-29T13:47:04+01:00</time>
      </trkpt>
      <trkpt lat="42.73077" lon="0.18622">
        <ele>2292</ele>
        <time>2022-01-29T13:47:05+01:00</time>
      </trkpt>
      <trkpt lat="42.73074" lon="0.18606">
        <ele>2289</ele>
        <time>2022-01-29T13:47:07+01:00</time>
      </trkpt>
      <trkpt lat="42.73067" lon="0.18597">
        <ele>2284</ele>
        <time>2022-01-29T13:47:09+01:00</time>
      </trkpt>
      <trkpt lat="42.7306" lon="0.18607">
        <ele>2281</ele>
        <time>2022-01-29T13:47:11+01:00</time>
      </trkpt>
      <trkpt lat="42.73057" lon="0.18608">
        <ele>2279</ele>
        <time>2022-01-29T13:47:12+01:00</time>
      </trkpt>
      <trkpt lat="42.73055" lon="0.18609">
        <ele>2278</ele>
        <time>2022-01-29T13:47:13+01:00</time>
      </trkpt>
      <trkpt lat="42.73048" lon="0.18607">
        <ele>2274</ele>
        <time>2022-01-29T13:47:17+01:00</time>
      </trkpt>
      <trkpt lat="42.73052" lon="0.18608">
        <ele>2277</ele>
        <time>2022-01-29T13:47:20+01:00</time>
      </trkpt>
      <trkpt lat="42.73054" lon="0.18601">
        <ele>2276</ele>
        <time>2022-01-29T13:47:22+01:00</time>
      </trkpt>
      <trkpt lat="42.73057" lon="0.18597">
        <ele>2278</ele>
        <time>2022-01-29T13:47:27+01:00</time>
      </trkpt>
      <trkpt lat="42.7306" lon="0.18601">
        <ele>2280</ele>
        <time>2022-01-29T13:47:47+01:00</time>
      </trkpt>
      <trkpt lat="42.73061" lon="0.18603">
        <ele>2281</ele>
        <time>2022-01-29T13:48:09+01:00</time>
      </trkpt>
      <trkpt lat="42.73061" lon="0.18603">
        <ele>2281</ele>
        <time>2022-01-29T13:48:31+01:00</time>
      </trkpt>
      <trkpt lat="42.7306" lon="0.18594">
        <ele>2279</ele>
        <time>2022-01-29T13:48:36+01:00</time>
      </trkpt>
      <trkpt lat="42.7306" lon="0.18586">
        <ele>2278</ele>
        <time>2022-01-29T13:48:38+01:00</time>
      </trkpt>
      <trkpt lat="42.73056" lon="0.18579">
        <ele>2275</ele>
        <time>2022-01-29T13:48:40+01:00</time>
      </trkpt>
      <trkpt lat="42.73047" lon="0.1858">
        <ele>2270</ele>
        <time>2022-01-29T13:48:42+01:00</time>
      </trkpt>
      <trkpt lat="42.73039" lon="0.18575">
        <ele>2265</ele>
        <time>2022-01-29T13:48:44+01:00</time>
      </trkpt>
      <trkpt lat="42.7303" lon="0.18577">
        <ele>2260</ele>
        <time>2022-01-29T13:48:46+01:00</time>
      </trkpt>
      <trkpt lat="42.73022" lon="0.18571">
        <ele>2254</ele>
        <time>2022-01-29T13:48:48+01:00</time>
      </trkpt>
      <trkpt lat="42.7301" lon="0.18572">
        <ele>2248</ele>
        <time>2022-01-29T13:48:51+01:00</time>
      </trkpt>
      <trkpt lat="42.73006" lon="0.18569">
        <ele>2245</ele>
        <time>2022-01-29T13:48:52+01:00</time>
      </trkpt>
      <trkpt lat="42.73002" lon="0.18565">
        <ele>2242</ele>
        <time>2022-01-29T13:48:53+01:00</time>
      </trkpt>
      <trkpt lat="42.72992" lon="0.18564">
        <ele>2236</ele>
        <time>2022-01-29T13:48:55+01:00</time>
      </trkpt>
      <trkpt lat="42.72987" lon="0.18561">
        <ele>2232</ele>
        <time>2022-01-29T13:48:56+01:00</time>
      </trkpt>
      <trkpt lat="42.72983" lon="0.18558">
        <ele>2229</ele>
        <time>2022-01-29T13:48:57+01:00</time>
      </trkpt>
      <trkpt lat="42.72974" lon="0.18553">
        <ele>2222</ele>
        <time>2022-01-29T13:48:59+01:00</time>
      </trkpt>
      <trkpt lat="42.72964" lon="0.18551">
        <ele>2216</ele>
        <time>2022-01-29T13:49:01+01:00</time>
      </trkpt>
      <trkpt lat="42.72957" lon="0.18548">
        <ele>2211</ele>
        <time>2022-01-29T13:49:03+01:00</time>
      </trkpt>
      <trkpt lat="42.72953" lon="0.18553">
        <ele>2209</ele>
        <time>2022-01-29T13:49:05+01:00</time>
      </trkpt>
      <trkpt lat="42.72949" lon="0.18555">
        <ele>2207</ele>
        <time>2022-01-29T13:49:07+01:00</time>
      </trkpt>
      <trkpt lat="42.72948" lon="0.18558">
        <ele>2207</ele>
        <time>2022-01-29T13:49:09+01:00</time>
      </trkpt>
      <trkpt lat="42.72944" lon="0.18554">
        <ele>2203</ele>
        <time>2022-01-29T13:49:13+01:00</time>
      </trkpt>
      <trkpt lat="42.72945" lon="0.18542">
        <ele>2202</ele>
        <time>2022-01-29T13:49:17+01:00</time>
      </trkpt>
      <trkpt lat="42.72946" lon="0.18541">
        <ele>2202</ele>
        <time>2022-01-29T13:49:24+01:00</time>
      </trkpt>
      <trkpt lat="42.72933" lon="0.18541">
        <ele>2196</ele>
        <time>2022-01-29T13:49:28+01:00</time>
      </trkpt>
      <trkpt lat="42.72929" lon="0.18537">
        <ele>2194</ele>
        <time>2022-01-29T13:49:29+01:00</time>
      </trkpt>
      <trkpt lat="42.72926" lon="0.18522">
        <ele>2190</ele>
        <time>2022-01-29T13:49:31+01:00</time>
      </trkpt>
      <trkpt lat="42.72914" lon="0.18512">
        <ele>2184</ele>
        <time>2022-01-29T13:49:34+01:00</time>
      </trkpt>
      <trkpt lat="42.72904" lon="0.18519">
        <ele>2180</ele>
        <time>2022-01-29T13:49:36+01:00</time>
      </trkpt>
      <trkpt lat="42.72896" lon="0.18515">
        <ele>2176</ele>
        <time>2022-01-29T13:49:38+01:00</time>
      </trkpt>
      <trkpt lat="42.72888" lon="0.18511">
        <ele>2172</ele>
        <time>2022-01-29T13:49:40+01:00</time>
      </trkpt>
      <trkpt lat="42.72883" lon="0.18514">
        <ele>2170</ele>
        <time>2022-01-29T13:49:41+01:00</time>
      </trkpt>
      <trkpt lat="42.72872" lon="0.18528">
        <ele>2165</ele>
        <time>2022-01-29T13:49:44+01:00</time>
      </trkpt>
      <trkpt lat="42.7287" lon="0.18534">
        <ele>2165</ele>
        <time>2022-01-29T13:49:58+01:00</time>
      </trkpt>
      <trkpt lat="42.72874" lon="0.18536">
        <ele>2167</ele>
        <time>2022-01-29T13:50:23+01:00</time>
      </trkpt>
      <trkpt lat="42.72872" lon="0.18536">
        <ele>2166</ele>
        <time>2022-01-29T13:50:49+01:00</time>
      </trkpt>
      <trkpt lat="42.72871" lon="0.18534">
        <ele>2165</ele>
        <time>2022-01-29T13:51:11+01:00</time>
      </trkpt>
      <trkpt lat="42.72867" lon="0.18538">
        <ele>2163</ele>
        <time>2022-01-29T13:51:22+01:00</time>
      </trkpt>
      <trkpt lat="42.72857" lon="0.18538">
        <ele>2158</ele>
        <time>2022-01-29T13:51:25+01:00</time>
      </trkpt>
      <trkpt lat="42.72856" lon="0.18534">
        <ele>2157</ele>
        <time>2022-01-29T13:51:27+01:00</time>
      </trkpt>
      <trkpt lat="42.72855" lon="0.18533">
        <ele>2156</ele>
        <time>2022-01-29T13:51:34+01:00</time>
      </trkpt>
      <trkpt lat="42.72846" lon="0.18544">
        <ele>2152</ele>
        <time>2022-01-29T13:51:37+01:00</time>
      </trkpt>
      <trkpt lat="42.7284" lon="0.18558">
        <ele>2150</ele>
        <time>2022-01-29T13:51:40+01:00</time>
      </trkpt>
      <trkpt lat="42.72835" lon="0.18568">
        <ele>2148</ele>
        <time>2022-01-29T13:51:43+01:00</time>
      </trkpt>
      <trkpt lat="42.72827" lon="0.18588">
        <ele>2144</ele>
        <time>2022-01-29T13:51:48+01:00</time>
      </trkpt>
      <trkpt lat="42.72822" lon="0.186">
        <ele>2142</ele>
        <time>2022-01-29T13:51:50+01:00</time>
      </trkpt>
      <trkpt lat="42.72815" lon="0.18622">
        <ele>2140</ele>
        <time>2022-01-29T13:51:54+01:00</time>
      </trkpt>
      <trkpt lat="42.72803" lon="0.18614">
        <ele>2131</ele>
        <time>2022-01-29T13:51:57+01:00</time>
      </trkpt>
      <trkpt lat="42.72799" lon="0.18608">
        <ele>2127</ele>
        <time>2022-01-29T13:51:59+01:00</time>
      </trkpt>
      <trkpt lat="42.72794" lon="0.18611">
        <ele>2124</ele>
        <time>2022-01-29T13:52:01+01:00</time>
      </trkpt>
      <trkpt lat="42.72791" lon="0.18611">
        <ele>2123</ele>
        <time>2022-01-29T13:52:02+01:00</time>
      </trkpt>
      <trkpt lat="42.72791" lon="0.18606">
        <ele>2122</ele>
        <time>2022-01-29T13:52:04+01:00</time>
      </trkpt>
      <trkpt lat="42.72791" lon="0.18591">
        <ele>2120</ele>
        <time>2022-01-29T13:52:07+01:00</time>
      </trkpt>
      <trkpt lat="42.7279" lon="0.18573">
        <ele>2117</ele>
        <time>2022-01-29T13:52:13+01:00</time>
      </trkpt>
      <trkpt lat="42.72778" lon="0.18568">
        <ele>2109</ele>
        <time>2022-01-29T13:52:17+01:00</time>
      </trkpt>
      <trkpt lat="42.72769" lon="0.18576">
        <ele>2105</ele>
        <time>2022-01-29T13:52:19+01:00</time>
      </trkpt>
      <trkpt lat="42.72763" lon="0.18576">
        <ele>2101</ele>
        <time>2022-01-29T13:52:20+01:00</time>
      </trkpt>
      <trkpt lat="42.72757" lon="0.18571">
        <ele>2098</ele>
        <time>2022-01-29T13:52:21+01:00</time>
      </trkpt>
      <trkpt lat="42.72752" lon="0.18554">
        <ele>2094</ele>
        <time>2022-01-29T13:52:23+01:00</time>
      </trkpt>
      <trkpt lat="42.72751" lon="0.18545">
        <ele>2093</ele>
        <time>2022-01-29T13:52:24+01:00</time>
      </trkpt>
      <trkpt lat="42.72749" lon="0.18528">
        <ele>2092</ele>
        <time>2022-01-29T13:52:26+01:00</time>
      </trkpt>
      <trkpt lat="42.72747" lon="0.185">
        <ele>2090</ele>
        <time>2022-01-29T13:52:30+01:00</time>
      </trkpt>
      <trkpt lat="42.72733" lon="0.18506">
        <ele>2084</ele>
        <time>2022-01-29T13:52:34+01:00</time>
      </trkpt>
      <trkpt lat="42.72725" lon="0.18523">
        <ele>2082</ele>
        <time>2022-01-29T13:52:36+01:00</time>
      </trkpt>
      <trkpt lat="42.72716" lon="0.18543">
        <ele>2079</ele>
        <time>2022-01-29T13:52:39+01:00</time>
      </trkpt>
      <trkpt lat="42.72706" lon="0.18561">
        <ele>2076</ele>
        <time>2022-01-29T13:52:43+01:00</time>
      </trkpt>
      <trkpt lat="42.72701" lon="0.18556">
        <ele>2074</ele>
        <time>2022-01-29T13:52:45+01:00</time>
      </trkpt>
      <trkpt lat="42.72702" lon="0.18553">
        <ele>2074</ele>
        <time>2022-01-29T13:52:56+01:00</time>
      </trkpt>
      <trkpt lat="42.72701" lon="0.18554">
        <ele>2074</ele>
        <time>2022-01-29T13:53:02+01:00</time>
      </trkpt>
      <trkpt lat="42.72686" lon="0.1855">
        <ele>2069</ele>
        <time>2022-01-29T13:53:07+01:00</time>
      </trkpt>
      <trkpt lat="42.72675" lon="0.18553">
        <ele>2066</ele>
        <time>2022-01-29T13:53:10+01:00</time>
      </trkpt>
      <trkpt lat="42.72674" lon="0.18553">
        <ele>2066</ele>
        <time>2022-01-29T13:53:20+01:00</time>
      </trkpt>
      <trkpt lat="42.72676" lon="0.18557">
        <ele>2067</ele>
        <time>2022-01-29T13:53:45+01:00</time>
      </trkpt>
      <trkpt lat="42.7268" lon="0.18555">
        <ele>2068</ele>
        <time>2022-01-29T13:54:05+01:00</time>
      </trkpt>
      <trkpt lat="42.72679" lon="0.18557">
        <ele>2068</ele>
        <time>2022-01-29T13:54:24+01:00</time>
      </trkpt>
      <trkpt lat="42.72679" lon="0.18561">
        <ele>2068</ele>
        <time>2022-01-29T13:54:47+01:00</time>
      </trkpt>
      <trkpt lat="42.72679" lon="0.18566">
        <ele>2068</ele>
        <time>2022-01-29T13:54:54+01:00</time>
      </trkpt>
      <trkpt lat="42.72676" lon="0.18614">
        <ele>2067</ele>
        <time>2022-01-29T13:55:09+01:00</time>
      </trkpt>
      <trkpt lat="42.72658" lon="0.18657">
        <ele>2065</ele>
        <time>2022-01-29T13:55:21+01:00</time>
      </trkpt>
      <trkpt lat="42.72657" lon="0.18675">
        <ele>2066</ele>
        <time>2022-01-29T13:55:34+01:00</time>
      </trkpt>
      <trkpt lat="42.72656" lon="0.18707">
        <ele>2069</ele>
        <time>2022-01-29T13:55:48+01:00</time>
      </trkpt>
      <trkpt lat="42.72648" lon="0.18729">
        <ele>2069</ele>
        <time>2022-01-29T13:55:58+01:00</time>
      </trkpt>
      <trkpt lat="42.72646" lon="0.18727">
        <ele>2068</ele>
        <time>2022-01-29T13:56:15+01:00</time>
      </trkpt>
      <trkpt lat="42.72647" lon="0.1873">
        <ele>2068</ele>
        <time>2022-01-29T13:56:32+01:00</time>
      </trkpt>
      <trkpt lat="42.72642" lon="0.18743">
        <ele>2067</ele>
        <time>2022-01-29T13:56:46+01:00</time>
      </trkpt>
      <trkpt lat="42.72643" lon="0.18749">
        <ele>2067</ele>
        <time>2022-01-29T13:56:56+01:00</time>
      </trkpt>
      <trkpt lat="42.72643" lon="0.18758">
        <ele>2067</ele>
        <time>2022-01-29T13:57:02+01:00</time>
      </trkpt>
      <trkpt lat="42.72641" lon="0.18768">
        <ele>2066</ele>
        <time>2022-01-29T13:57:09+01:00</time>
      </trkpt>
      <trkpt lat="42.72637" lon="0.18787">
        <ele>2065</ele>
        <time>2022-01-29T13:57:24+01:00</time>
      </trkpt>
      <trkpt lat="42.7263" lon="0.18802">
        <ele>2065</ele>
        <time>2022-01-29T13:57:41+01:00</time>
      </trkpt>
      <trkpt lat="42.72627" lon="0.18816">
        <ele>2065</ele>
        <time>2022-01-29T13:57:53+01:00</time>
      </trkpt>
      <trkpt lat="42.72629" lon="0.18819">
        <ele>2065</ele>
        <time>2022-01-29T13:58:09+01:00</time>
      </trkpt>
      <trkpt lat="42.72627" lon="0.18827">
        <ele>2065</ele>
        <time>2022-01-29T13:58:24+01:00</time>
      </trkpt>
      <trkpt lat="42.72627" lon="0.18843">
        <ele>2065</ele>
        <time>2022-01-29T13:58:39+01:00</time>
      </trkpt>
      <trkpt lat="42.72628" lon="0.18858">
        <ele>2065</ele>
        <time>2022-01-29T13:58:52+01:00</time>
      </trkpt>
      <trkpt lat="42.7263" lon="0.18869">
        <ele>2066</ele>
        <time>2022-01-29T13:59:08+01:00</time>
      </trkpt>
      <trkpt lat="42.72629" lon="0.1887">
        <ele>2065</ele>
        <time>2022-01-29T13:59:20+01:00</time>
      </trkpt>
      <trkpt lat="42.72626" lon="0.18874">
        <ele>2064</ele>
        <time>2022-01-29T13:59:41+01:00</time>
      </trkpt>
      <trkpt lat="42.72627" lon="0.18874">
        <ele>2065</ele>
        <time>2022-01-29T13:59:57+01:00</time>
      </trkpt>
      <trkpt lat="42.72627" lon="0.18874">
        <ele>2064</ele>
        <time>2022-01-29T14:00:18+01:00</time>
      </trkpt>
      <trkpt lat="42.72627" lon="0.18875">
        <ele>2064</ele>
        <time>2022-01-29T14:00:43+01:00</time>
      </trkpt>
      <trkpt lat="42.72627" lon="0.18874">
        <ele>2064</ele>
        <time>2022-01-29T14:01:08+01:00</time>
      </trkpt>
      <trkpt lat="42.72628" lon="0.18872">
        <ele>2065</ele>
        <time>2022-01-29T14:01:24+01:00</time>
      </trkpt>
      <trkpt lat="42.72627" lon="0.18874">
        <ele>2064</ele>
        <time>2022-01-29T14:01:45+01:00</time>
      </trkpt>
      <trkpt lat="42.72627" lon="0.18875">
        <ele>2065</ele>
        <time>2022-01-29T14:01:51+01:00</time>
      </trkpt>
      <trkpt lat="42.72625" lon="0.18883">
        <ele>2064</ele>
        <time>2022-01-29T14:01:56+01:00</time>
      </trkpt>
      <trkpt lat="42.72616" lon="0.18878">
        <ele>2060</ele>
        <time>2022-01-29T14:02:00+01:00</time>
      </trkpt>
      <trkpt lat="42.72615" lon="0.18876">
        <ele>2059</ele>
        <time>2022-01-29T14:02:02+01:00</time>
      </trkpt>
      <trkpt lat="42.72608" lon="0.18884">
        <ele>2056</ele>
        <time>2022-01-29T14:02:08+01:00</time>
      </trkpt>
      <trkpt lat="42.72603" lon="0.18883">
        <ele>2054</ele>
        <time>2022-01-29T14:02:10+01:00</time>
      </trkpt>
      <trkpt lat="42.72592" lon="0.18881">
        <ele>2049</ele>
        <time>2022-01-29T14:02:15+01:00</time>
      </trkpt>
      <trkpt lat="42.7259" lon="0.18882">
        <ele>2048</ele>
        <time>2022-01-29T14:02:16+01:00</time>
      </trkpt>
      <trkpt lat="42.72591" lon="0.18882">
        <ele>2049</ele>
        <time>2022-01-29T14:02:30+01:00</time>
      </trkpt>
      <trkpt lat="42.72586" lon="0.18897">
        <ele>2046</ele>
        <time>2022-01-29T14:02:35+01:00</time>
      </trkpt>
      <trkpt lat="42.72579" lon="0.18914">
        <ele>2043</ele>
        <time>2022-01-29T14:02:40+01:00</time>
      </trkpt>
      <trkpt lat="42.72575" lon="0.18926">
        <ele>2042</ele>
        <time>2022-01-29T14:02:44+01:00</time>
      </trkpt>
      <trkpt lat="42.72572" lon="0.18933">
        <ele>2041</ele>
        <time>2022-01-29T14:02:46+01:00</time>
      </trkpt>
      <trkpt lat="42.72566" lon="0.18935">
        <ele>2038</ele>
        <time>2022-01-29T14:02:56+01:00</time>
      </trkpt>
      <trkpt lat="42.72565" lon="0.18936">
        <ele>2038</ele>
        <time>2022-01-29T14:03:13+01:00</time>
      </trkpt>
      <trkpt lat="42.72562" lon="0.18941">
        <ele>2036</ele>
        <time>2022-01-29T14:03:25+01:00</time>
      </trkpt>
      <trkpt lat="42.72561" lon="0.18942">
        <ele>2036</ele>
        <time>2022-01-29T14:03:35+01:00</time>
      </trkpt>
      <trkpt lat="42.72559" lon="0.18928">
        <ele>2035</ele>
        <time>2022-01-29T14:03:47+01:00</time>
      </trkpt>
      <trkpt lat="42.72559" lon="0.18927">
        <ele>2035</ele>
        <time>2022-01-29T14:03:49+01:00</time>
      </trkpt>
      <trkpt lat="42.72559" lon="0.18913">
        <ele>2035</ele>
        <time>2022-01-29T14:04:04+01:00</time>
      </trkpt>
      <trkpt lat="42.72542" lon="0.1889">
        <ele>2029</ele>
        <time>2022-01-29T14:04:13+01:00</time>
      </trkpt>
      <trkpt lat="42.7254" lon="0.1889">
        <ele>2028</ele>
        <time>2022-01-29T14:04:14+01:00</time>
      </trkpt>
      <trkpt lat="42.72534" lon="0.189">
        <ele>2025</ele>
        <time>2022-01-29T14:04:18+01:00</time>
      </trkpt>
      <trkpt lat="42.72529" lon="0.18901">
        <ele>2023</ele>
        <time>2022-01-29T14:04:20+01:00</time>
      </trkpt>
      <trkpt lat="42.72526" lon="0.18903">
        <ele>2022</ele>
        <time>2022-01-29T14:04:23+01:00</time>
      </trkpt>
      <trkpt lat="42.72528" lon="0.18903">
        <ele>2023</ele>
        <time>2022-01-29T14:04:39+01:00</time>
      </trkpt>
      <trkpt lat="42.72528" lon="0.18904">
        <ele>2023</ele>
        <time>2022-01-29T14:04:44+01:00</time>
      </trkpt>
      <trkpt lat="42.72529" lon="0.1891">
        <ele>2023</ele>
        <time>2022-01-29T14:04:59+01:00</time>
      </trkpt>
      <trkpt lat="42.72527" lon="0.18911">
        <ele>2022</ele>
        <time>2022-01-29T14:05:12+01:00</time>
      </trkpt>
      <trkpt lat="42.72526" lon="0.18911">
        <ele>2021</ele>
        <time>2022-01-29T14:05:29+01:00</time>
      </trkpt>
      <trkpt lat="42.72527" lon="0.18913">
        <ele>2022</ele>
        <time>2022-01-29T14:05:44+01:00</time>
      </trkpt>
      <trkpt lat="42.72525" lon="0.18912">
        <ele>2021</ele>
        <time>2022-01-29T14:06:00+01:00</time>
      </trkpt>
      <trkpt lat="42.72527" lon="0.18911">
        <ele>2022</ele>
        <time>2022-01-29T14:06:15+01:00</time>
      </trkpt>
      <trkpt lat="42.72526" lon="0.1891">
        <ele>2022</ele>
        <time>2022-01-29T14:06:29+01:00</time>
      </trkpt>
      <trkpt lat="42.72526" lon="0.1891">
        <ele>2022</ele>
        <time>2022-01-29T14:06:45+01:00</time>
      </trkpt>
      <trkpt lat="42.72526" lon="0.1891">
        <ele>2022</ele>
        <time>2022-01-29T14:07:02+01:00</time>
      </trkpt>
      <trkpt lat="42.72524" lon="0.18912">
        <ele>2021</ele>
        <time>2022-01-29T14:07:19+01:00</time>
      </trkpt>
      <trkpt lat="42.72518" lon="0.18915">
        <ele>2018</ele>
        <time>2022-01-29T14:07:32+01:00</time>
      </trkpt>
      <trkpt lat="42.72514" lon="0.18919">
        <ele>2017</ele>
        <time>2022-01-29T14:07:48+01:00</time>
      </trkpt>
      <trkpt lat="42.7251" lon="0.18916">
        <ele>2016</ele>
        <time>2022-01-29T14:08:03+01:00</time>
      </trkpt>
      <trkpt lat="42.72508" lon="0.18919">
        <ele>2015</ele>
        <time>2022-01-29T14:08:16+01:00</time>
      </trkpt>
      <trkpt lat="42.72506" lon="0.18919">
        <ele>2014</ele>
        <time>2022-01-29T14:08:34+01:00</time>
      </trkpt>
      <trkpt lat="42.72503" lon="0.1892">
        <ele>2013</ele>
        <time>2022-01-29T14:08:38+01:00</time>
      </trkpt>
      <trkpt lat="42.72499" lon="0.18914">
        <ele>2012</ele>
        <time>2022-01-29T14:08:50+01:00</time>
      </trkpt>
      <trkpt lat="42.72499" lon="0.18914">
        <ele>2011</ele>
        <time>2022-01-29T14:09:12+01:00</time>
      </trkpt>
      <trkpt lat="42.72498" lon="0.18913">
        <ele>2011</ele>
        <time>2022-01-29T14:09:29+01:00</time>
      </trkpt>
      <trkpt lat="42.72499" lon="0.18913">
        <ele>2012</ele>
        <time>2022-01-29T14:09:48+01:00</time>
      </trkpt>
      <trkpt lat="42.72499" lon="0.18914">
        <ele>2012</ele>
        <time>2022-01-29T14:10:10+01:00</time>
      </trkpt>
      <trkpt lat="42.72499" lon="0.18912">
        <ele>2012</ele>
        <time>2022-01-29T14:10:29+01:00</time>
      </trkpt>
      <trkpt lat="42.72498" lon="0.18912">
        <ele>2011</ele>
        <time>2022-01-29T14:10:45+01:00</time>
      </trkpt>
      <trkpt lat="42.72498" lon="0.18912">
        <ele>2011</ele>
        <time>2022-01-29T14:11:07+01:00</time>
      </trkpt>
      <trkpt lat="42.72499" lon="0.18911">
        <ele>2012</ele>
        <time>2022-01-29T14:11:19+01:00</time>
      </trkpt>
      <trkpt lat="42.72499" lon="0.18911">
        <ele>2012</ele>
        <time>2022-01-29T14:11:41+01:00</time>
      </trkpt>
      <trkpt lat="42.72499" lon="0.18913">
        <ele>2011</ele>
        <time>2022-01-29T14:12:11+01:00</time>
      </trkpt>
      <trkpt lat="42.72498" lon="0.18914">
        <ele>2011</ele>
        <time>2022-01-29T14:12:15+01:00</time>
      </trkpt>
      <trkpt lat="42.72487" lon="0.18921">
        <ele>2005</ele>
        <time>2022-01-29T14:12:21+01:00</time>
      </trkpt>
      <trkpt lat="42.7248" lon="0.18922">
        <ele>2002</ele>
        <time>2022-01-29T14:12:23+01:00</time>
      </trkpt>
      <trkpt lat="42.72476" lon="0.18937">
        <ele>1996</ele>
        <time>2022-01-29T14:12:27+01:00</time>
      </trkpt>
      <trkpt lat="42.72475" lon="0.18947">
        <ele>1993</ele>
        <time>2022-01-29T14:12:30+01:00</time>
      </trkpt>
      <trkpt lat="42.72467" lon="0.18955">
        <ele>1987</ele>
        <time>2022-01-29T14:12:34+01:00</time>
      </trkpt>
      <trkpt lat="42.72471" lon="0.1897">
        <ele>1984</ele>
        <time>2022-01-29T14:12:39+01:00</time>
      </trkpt>
      <trkpt lat="42.72467" lon="0.18976">
        <ele>1981</ele>
        <time>2022-01-29T14:12:42+01:00</time>
      </trkpt>
      <trkpt lat="42.72467" lon="0.18981">
        <ele>1979</ele>
        <time>2022-01-29T14:12:44+01:00</time>
      </trkpt>
      <trkpt lat="42.72464" lon="0.18992">
        <ele>1974</ele>
        <time>2022-01-29T14:12:48+01:00</time>
      </trkpt>
      <trkpt lat="42.72458" lon="0.18988">
        <ele>1973</ele>
        <time>2022-01-29T14:12:51+01:00</time>
      </trkpt>
      <trkpt lat="42.72456" lon="0.1899">
        <ele>1971</ele>
        <time>2022-01-29T14:13:06+01:00</time>
      </trkpt>
      <trkpt lat="42.72451" lon="0.18988">
        <ele>1970</ele>
        <time>2022-01-29T14:13:23+01:00</time>
      </trkpt>
      <trkpt lat="42.7245" lon="0.18989">
        <ele>1969</ele>
        <time>2022-01-29T14:13:32+01:00</time>
      </trkpt>
      <trkpt lat="42.72447" lon="0.18991">
        <ele>1967</ele>
        <time>2022-01-29T14:13:36+01:00</time>
      </trkpt>
      <trkpt lat="42.72446" lon="0.18992">
        <ele>1966</ele>
        <time>2022-01-29T14:13:39+01:00</time>
      </trkpt>
      <trkpt lat="42.72445" lon="0.18996">
        <ele>1965</ele>
        <time>2022-01-29T14:13:43+01:00</time>
      </trkpt>
      <trkpt lat="42.72445" lon="0.19001">
        <ele>1963</ele>
        <time>2022-01-29T14:13:47+01:00</time>
      </trkpt>
      <trkpt lat="42.72444" lon="0.19013">
        <ele>1959</ele>
        <time>2022-01-29T14:13:52+01:00</time>
      </trkpt>
      <trkpt lat="42.72442" lon="0.19018">
        <ele>1956</ele>
        <time>2022-01-29T14:13:56+01:00</time>
      </trkpt>
      <trkpt lat="42.72441" lon="0.1903">
        <ele>1952</ele>
        <time>2022-01-29T14:13:59+01:00</time>
      </trkpt>
      <trkpt lat="42.72437" lon="0.19038">
        <ele>1948</ele>
        <time>2022-01-29T14:14:07+01:00</time>
      </trkpt>
      <trkpt lat="42.72438" lon="0.19038">
        <ele>1949</ele>
        <time>2022-01-29T14:14:11+01:00</time>
      </trkpt>
      <trkpt lat="42.72437" lon="0.1905">
        <ele>1945</ele>
        <time>2022-01-29T14:14:17+01:00</time>
      </trkpt>
      <trkpt lat="42.72437" lon="0.1905">
        <ele>1945</ele>
        <time>2022-01-29T14:14:33+01:00</time>
      </trkpt>
      <trkpt lat="42.72437" lon="0.1905">
        <ele>1945</ele>
        <time>2022-01-29T14:14:51+01:00</time>
      </trkpt>
      <trkpt lat="42.72438" lon="0.19052">
        <ele>1946</ele>
        <time>2022-01-29T14:15:04+01:00</time>
      </trkpt>
      <trkpt lat="42.72438" lon="0.19051">
        <ele>1945</ele>
        <time>2022-01-29T14:15:26+01:00</time>
      </trkpt>
      <trkpt lat="42.72438" lon="0.1905">
        <ele>1946</ele>
        <time>2022-01-29T14:15:41+01:00</time>
      </trkpt>
      <trkpt lat="42.72436" lon="0.19051">
        <ele>1944</ele>
        <time>2022-01-29T14:16:00+01:00</time>
      </trkpt>
      <trkpt lat="42.72436" lon="0.19051">
        <ele>1944</ele>
        <time>2022-01-29T14:16:34+01:00</time>
      </trkpt>
      <trkpt lat="42.72437" lon="0.19051">
        <ele>1945</ele>
        <time>2022-01-29T14:17:10+01:00</time>
      </trkpt>
      <trkpt lat="42.72438" lon="0.1905">
        <ele>1946</ele>
        <time>2022-01-29T14:17:35+01:00</time>
      </trkpt>
      <trkpt lat="42.72438" lon="0.19052">
        <ele>1945</ele>
        <time>2022-01-29T14:17:52+01:00</time>
      </trkpt>
      <trkpt lat="42.72436" lon="0.19053">
        <ele>1944</ele>
        <time>2022-01-29T14:18:21+01:00</time>
      </trkpt>
      <trkpt lat="42.72434" lon="0.19051">
        <ele>1943</ele>
        <time>2022-01-29T14:19:07+01:00</time>
      </trkpt>
      <trkpt lat="42.72433" lon="0.1905">
        <ele>1943</ele>
        <time>2022-01-29T14:19:32+01:00</time>
      </trkpt>
      <trkpt lat="42.72434" lon="0.19051">
        <ele>1943</ele>
        <time>2022-01-29T14:19:45+01:00</time>
      </trkpt>
      <trkpt lat="42.72435" lon="0.1905">
        <ele>1944</ele>
        <time>2022-01-29T14:19:59+01:00</time>
      </trkpt>
      <trkpt lat="42.72437" lon="0.19048">
        <ele>1946</ele>
        <time>2022-01-29T14:20:16+01:00</time>
      </trkpt>
      <trkpt lat="42.72437" lon="0.19051">
        <ele>1945</ele>
        <time>2022-01-29T14:20:35+01:00</time>
      </trkpt>
      <trkpt lat="42.72431" lon="0.19054">
        <ele>1940</ele>
        <time>2022-01-29T14:20:48+01:00</time>
      </trkpt>
      <trkpt lat="42.72432" lon="0.19059">
        <ele>1940</ele>
        <time>2022-01-29T14:21:02+01:00</time>
      </trkpt>
      <trkpt lat="42.72431" lon="0.19068">
        <ele>1937</ele>
        <time>2022-01-29T14:21:14+01:00</time>
      </trkpt>
      <trkpt lat="42.72431" lon="0.19072">
        <ele>1936</ele>
        <time>2022-01-29T14:21:18+01:00</time>
      </trkpt>
      <trkpt lat="42.72432" lon="0.19077">
        <ele>1936</ele>
        <time>2022-01-29T14:21:23+01:00</time>
      </trkpt>
      <trkpt lat="42.72435" lon="0.19088">
        <ele>1937</ele>
        <time>2022-01-29T14:21:33+01:00</time>
      </trkpt>
      <trkpt lat="42.72427" lon="0.19108">
        <ele>1930</ele>
        <time>2022-01-29T14:21:47+01:00</time>
      </trkpt>
      <trkpt lat="42.72423" lon="0.1912">
        <ele>1927</ele>
        <time>2022-01-29T14:21:55+01:00</time>
      </trkpt>
      <trkpt lat="42.72421" lon="0.19128">
        <ele>1925</ele>
        <time>2022-01-29T14:22:02+01:00</time>
      </trkpt>
      <trkpt lat="42.72419" lon="0.19136">
        <ele>1924</ele>
        <time>2022-01-29T14:22:07+01:00</time>
      </trkpt>
      <trkpt lat="42.72417" lon="0.19141">
        <ele>1923</ele>
        <time>2022-01-29T14:22:12+01:00</time>
      </trkpt>
      <trkpt lat="42.72415" lon="0.19147">
        <ele>1922</ele>
        <time>2022-01-29T14:22:19+01:00</time>
      </trkpt>
      <trkpt lat="42.72413" lon="0.19168">
        <ele>1926</ele>
        <time>2022-01-29T14:22:33+01:00</time>
      </trkpt>
      <trkpt lat="42.72407" lon="0.1918">
        <ele>1922</ele>
        <time>2022-01-29T14:22:48+01:00</time>
      </trkpt>
      <trkpt lat="42.72404" lon="0.19195">
        <ele>1921</ele>
        <time>2022-01-29T14:23:01+01:00</time>
      </trkpt>
      <trkpt lat="42.72402" lon="0.1921">
        <ele>1921</ele>
        <time>2022-01-29T14:23:16+01:00</time>
      </trkpt>
      <trkpt lat="42.72399" lon="0.1922">
        <ele>1920</ele>
        <time>2022-01-29T14:23:28+01:00</time>
      </trkpt>
      <trkpt lat="42.72392" lon="0.19228">
        <ele>1916</ele>
        <time>2022-01-29T14:23:39+01:00</time>
      </trkpt>
      <trkpt lat="42.72384" lon="0.19244">
        <ele>1913</ele>
        <time>2022-01-29T14:23:53+01:00</time>
      </trkpt>
      <trkpt lat="42.72379" lon="0.19251">
        <ele>1911</ele>
        <time>2022-01-29T14:24:04+01:00</time>
      </trkpt>
      <trkpt lat="42.7238" lon="0.19259">
        <ele>1912</ele>
        <time>2022-01-29T14:24:17+01:00</time>
      </trkpt>
      <trkpt lat="42.72378" lon="0.1927">
        <ele>1912</ele>
        <time>2022-01-29T14:24:30+01:00</time>
      </trkpt>
      <trkpt lat="42.72378" lon="0.19271">
        <ele>1912</ele>
        <time>2022-01-29T14:24:31+01:00</time>
      </trkpt>
      <trkpt lat="42.72375" lon="0.19285">
        <ele>1910</ele>
        <time>2022-01-29T14:24:44+01:00</time>
      </trkpt>
      <trkpt lat="42.72373" lon="0.19298">
        <ele>1909</ele>
        <time>2022-01-29T14:24:57+01:00</time>
      </trkpt>
      <trkpt lat="42.72371" lon="0.19309">
        <ele>1908</ele>
        <time>2022-01-29T14:25:11+01:00</time>
      </trkpt>
      <trkpt lat="42.72369" lon="0.1932">
        <ele>1907</ele>
        <time>2022-01-29T14:25:25+01:00</time>
      </trkpt>
      <trkpt lat="42.72368" lon="0.19329">
        <ele>1906</ele>
        <time>2022-01-29T14:25:40+01:00</time>
      </trkpt>
      <trkpt lat="42.72364" lon="0.19339">
        <ele>1903</ele>
        <time>2022-01-29T14:25:53+01:00</time>
      </trkpt>
      <trkpt lat="42.72362" lon="0.1935">
        <ele>1900</ele>
        <time>2022-01-29T14:26:06+01:00</time>
      </trkpt>
      <trkpt lat="42.72362" lon="0.19357">
        <ele>1900</ele>
        <time>2022-01-29T14:26:19+01:00</time>
      </trkpt>
      <trkpt lat="42.72363" lon="0.19367">
        <ele>1899</ele>
        <time>2022-01-29T14:26:31+01:00</time>
      </trkpt>
      <trkpt lat="42.7236" lon="0.19374">
        <ele>1896</ele>
        <time>2022-01-29T14:26:42+01:00</time>
      </trkpt>
      <trkpt lat="42.72355" lon="0.19363">
        <ele>1894</ele>
        <time>2022-01-29T14:26:56+01:00</time>
      </trkpt>
      <trkpt lat="42.72354" lon="0.19362">
        <ele>1894</ele>
        <time>2022-01-29T14:26:57+01:00</time>
      </trkpt>
      <trkpt lat="42.7235" lon="0.19353">
        <ele>1892</ele>
        <time>2022-01-29T14:27:11+01:00</time>
      </trkpt>
      <trkpt lat="42.72345" lon="0.19339">
        <ele>1889</ele>
        <time>2022-01-29T14:27:24+01:00</time>
      </trkpt>
      <trkpt lat="42.72343" lon="0.1933">
        <ele>1887</ele>
        <time>2022-01-29T14:27:37+01:00</time>
      </trkpt>
      <trkpt lat="42.72341" lon="0.19319">
        <ele>1885</ele>
        <time>2022-01-29T14:27:51+01:00</time>
      </trkpt>
      <trkpt lat="42.72341" lon="0.19316">
        <ele>1884</ele>
        <time>2022-01-29T14:27:53+01:00</time>
      </trkpt>
      <trkpt lat="42.72341" lon="0.19304">
        <ele>1884</ele>
        <time>2022-01-29T14:28:04+01:00</time>
      </trkpt>
      <trkpt lat="42.7234" lon="0.19296">
        <ele>1882</ele>
        <time>2022-01-29T14:28:20+01:00</time>
      </trkpt>
      <trkpt lat="42.72343" lon="0.19281">
        <ele>1882</ele>
        <time>2022-01-29T14:28:34+01:00</time>
      </trkpt>
      <trkpt lat="42.72343" lon="0.19269">
        <ele>1881</ele>
        <time>2022-01-29T14:28:50+01:00</time>
      </trkpt>
      <trkpt lat="42.72343" lon="0.19254">
        <ele>1879</ele>
        <time>2022-01-29T14:29:06+01:00</time>
      </trkpt>
      <trkpt lat="42.72345" lon="0.19241">
        <ele>1879</ele>
        <time>2022-01-29T14:29:19+01:00</time>
      </trkpt>
      <trkpt lat="42.72344" lon="0.19236">
        <ele>1877</ele>
        <time>2022-01-29T14:29:23+01:00</time>
      </trkpt>
      <trkpt lat="42.72342" lon="0.19218">
        <ele>1873</ele>
        <time>2022-01-29T14:29:37+01:00</time>
      </trkpt>
      <trkpt lat="42.72339" lon="0.19205">
        <ele>1871</ele>
        <time>2022-01-29T14:29:50+01:00</time>
      </trkpt>
      <trkpt lat="42.72339" lon="0.19191">
        <ele>1870</ele>
        <time>2022-01-29T14:30:03+01:00</time>
      </trkpt>
      <trkpt lat="42.72334" lon="0.19175">
        <ele>1867</ele>
        <time>2022-01-29T14:30:16+01:00</time>
      </trkpt>
      <trkpt lat="42.72331" lon="0.19164">
        <ele>1865</ele>
        <time>2022-01-29T14:30:28+01:00</time>
      </trkpt>
      <trkpt lat="42.72329" lon="0.19163">
        <ele>1864</ele>
        <time>2022-01-29T14:30:43+01:00</time>
      </trkpt>
      <trkpt lat="42.72327" lon="0.19166">
        <ele>1864</ele>
        <time>2022-01-29T14:30:56+01:00</time>
      </trkpt>
      <trkpt lat="42.72322" lon="0.19176">
        <ele>1861</ele>
        <time>2022-01-29T14:31:11+01:00</time>
      </trkpt>
      <trkpt lat="42.72321" lon="0.19179">
        <ele>1861</ele>
        <time>2022-01-29T14:31:22+01:00</time>
      </trkpt>
      <trkpt lat="42.72316" lon="0.1919">
        <ele>1858</ele>
        <time>2022-01-29T14:31:36+01:00</time>
      </trkpt>
      <trkpt lat="42.72313" lon="0.19202">
        <ele>1857</ele>
        <time>2022-01-29T14:31:49+01:00</time>
      </trkpt>
      <trkpt lat="42.72312" lon="0.19206">
        <ele>1856</ele>
        <time>2022-01-29T14:32:00+01:00</time>
      </trkpt>
      <trkpt lat="42.72309" lon="0.19215">
        <ele>1854</ele>
        <time>2022-01-29T14:32:13+01:00</time>
      </trkpt>
      <trkpt lat="42.72303" lon="0.19214">
        <ele>1851</ele>
        <time>2022-01-29T14:32:26+01:00</time>
      </trkpt>
      <trkpt lat="42.72304" lon="0.19217">
        <ele>1851</ele>
        <time>2022-01-29T14:32:41+01:00</time>
      </trkpt>
      <trkpt lat="42.72298" lon="0.19223">
        <ele>1848</ele>
        <time>2022-01-29T14:32:57+01:00</time>
      </trkpt>
      <trkpt lat="42.72296" lon="0.19231">
        <ele>1848</ele>
        <time>2022-01-29T14:33:13+01:00</time>
      </trkpt>
      <trkpt lat="42.72293" lon="0.19242">
        <ele>1846</ele>
        <time>2022-01-29T14:33:28+01:00</time>
      </trkpt>
      <trkpt lat="42.72289" lon="0.19244">
        <ele>1844</ele>
        <time>2022-01-29T14:33:43+01:00</time>
      </trkpt>
      <trkpt lat="42.72287" lon="0.19256">
        <ele>1843</ele>
        <time>2022-01-29T14:33:57+01:00</time>
      </trkpt>
      <trkpt lat="42.72284" lon="0.19266">
        <ele>1842</ele>
        <time>2022-01-29T14:34:10+01:00</time>
      </trkpt>
      <trkpt lat="42.72279" lon="0.19273">
        <ele>1839</ele>
        <time>2022-01-29T14:34:22+01:00</time>
      </trkpt>
      <trkpt lat="42.7228" lon="0.1928">
        <ele>1839</ele>
        <time>2022-01-29T14:34:35+01:00</time>
      </trkpt>
      <trkpt lat="42.72278" lon="0.19286">
        <ele>1838</ele>
        <time>2022-01-29T14:34:53+01:00</time>
      </trkpt>
      <trkpt lat="42.72277" lon="0.19293">
        <ele>1838</ele>
        <time>2022-01-29T14:35:03+01:00</time>
      </trkpt>
      <trkpt lat="42.72276" lon="0.19302">
        <ele>1838</ele>
        <time>2022-01-29T14:35:16+01:00</time>
      </trkpt>
      <trkpt lat="42.72276" lon="0.19307">
        <ele>1838</ele>
        <time>2022-01-29T14:35:21+01:00</time>
      </trkpt>
      <trkpt lat="42.72274" lon="0.19315">
        <ele>1839</ele>
        <time>2022-01-29T14:35:33+01:00</time>
      </trkpt>
      <trkpt lat="42.72273" lon="0.19324">
        <ele>1840</ele>
        <time>2022-01-29T14:35:44+01:00</time>
      </trkpt>
      <trkpt lat="42.72271" lon="0.1933">
        <ele>1840</ele>
        <time>2022-01-29T14:35:57+01:00</time>
      </trkpt>
      <trkpt lat="42.72268" lon="0.19331">
        <ele>1840</ele>
        <time>2022-01-29T14:36:11+01:00</time>
      </trkpt>
      <trkpt lat="42.72268" lon="0.19342">
        <ele>1840</ele>
        <time>2022-01-29T14:36:21+01:00</time>
      </trkpt>
      <trkpt lat="42.72266" lon="0.19357">
        <ele>1840</ele>
        <time>2022-01-29T14:36:35+01:00</time>
      </trkpt>
      <trkpt lat="42.72265" lon="0.19363">
        <ele>1839</ele>
        <time>2022-01-29T14:36:47+01:00</time>
      </trkpt>
      <trkpt lat="42.72264" lon="0.19375">
        <ele>1838</ele>
        <time>2022-01-29T14:36:59+01:00</time>
      </trkpt>
      <trkpt lat="42.72263" lon="0.19378">
        <ele>1837</ele>
        <time>2022-01-29T14:37:14+01:00</time>
      </trkpt>
      <trkpt lat="42.7226" lon="0.1938">
        <ele>1836</ele>
        <time>2022-01-29T14:37:36+01:00</time>
      </trkpt>
      <trkpt lat="42.72258" lon="0.19386">
        <ele>1835</ele>
        <time>2022-01-29T14:38:00+01:00</time>
      </trkpt>
      <trkpt lat="42.72257" lon="0.19398">
        <ele>1833</ele>
        <time>2022-01-29T14:38:12+01:00</time>
      </trkpt>
      <trkpt lat="42.72258" lon="0.19409">
        <ele>1831</ele>
        <time>2022-01-29T14:38:26+01:00</time>
      </trkpt>
      <trkpt lat="42.72264" lon="0.19415">
        <ele>1831</ele>
        <time>2022-01-29T14:38:39+01:00</time>
      </trkpt>
      <trkpt lat="42.72269" lon="0.19426">
        <ele>1829</ele>
        <time>2022-01-29T14:38:50+01:00</time>
      </trkpt>
      <trkpt lat="42.7227" lon="0.1943">
        <ele>1827</ele>
        <time>2022-01-29T14:39:02+01:00</time>
      </trkpt>
      <trkpt lat="42.72275" lon="0.19439">
        <ele>1825</ele>
        <time>2022-01-29T14:39:13+01:00</time>
      </trkpt>
      <trkpt lat="42.72281" lon="0.19451">
        <ele>1823</ele>
        <time>2022-01-29T14:39:26+01:00</time>
      </trkpt>
      <trkpt lat="42.72282" lon="0.1946">
        <ele>1820</ele>
        <time>2022-01-29T14:39:38+01:00</time>
      </trkpt>
      <trkpt lat="42.72285" lon="0.19464">
        <ele>1820</ele>
        <time>2022-01-29T14:39:51+01:00</time>
      </trkpt>
      <trkpt lat="42.72286" lon="0.19471">
        <ele>1818</ele>
        <time>2022-01-29T14:40:05+01:00</time>
      </trkpt>
      <trkpt lat="42.72288" lon="0.19475">
        <ele>1818</ele>
        <time>2022-01-29T14:40:17+01:00</time>
      </trkpt>
      <trkpt lat="42.72286" lon="0.19476">
        <ele>1816</ele>
        <time>2022-01-29T14:40:30+01:00</time>
      </trkpt>
      <trkpt lat="42.72283" lon="0.19478">
        <ele>1814</ele>
        <time>2022-01-29T14:40:45+01:00</time>
      </trkpt>
      <trkpt lat="42.72282" lon="0.19479">
        <ele>1813</ele>
        <time>2022-01-29T14:40:59+01:00</time>
      </trkpt>
      <trkpt lat="42.72278" lon="0.19479">
        <ele>1811</ele>
        <time>2022-01-29T14:41:11+01:00</time>
      </trkpt>
      <trkpt lat="42.72268" lon="0.19476">
        <ele>1809</ele>
        <time>2022-01-29T14:41:24+01:00</time>
      </trkpt>
      <trkpt lat="42.72263" lon="0.19476">
        <ele>1807</ele>
        <time>2022-01-29T14:41:34+01:00</time>
      </trkpt>
      <trkpt lat="42.72257" lon="0.19473">
        <ele>1807</ele>
        <time>2022-01-29T14:41:46+01:00</time>
      </trkpt>
      <trkpt lat="42.72253" lon="0.19477">
        <ele>1804</ele>
        <time>2022-01-29T14:41:58+01:00</time>
      </trkpt>
      <trkpt lat="42.7226" lon="0.19477">
        <ele>1806</ele>
        <time>2022-01-29T14:42:10+01:00</time>
      </trkpt>
      <trkpt lat="42.72263" lon="0.19479">
        <ele>1806</ele>
        <time>2022-01-29T14:42:14+01:00</time>
      </trkpt>
      <trkpt lat="42.7227" lon="0.19487">
        <ele>1805</ele>
        <time>2022-01-29T14:42:28+01:00</time>
      </trkpt>
      <trkpt lat="42.72273" lon="0.195">
        <ele>1802</ele>
        <time>2022-01-29T14:42:41+01:00</time>
      </trkpt>
      <trkpt lat="42.72276" lon="0.19508">
        <ele>1801</ele>
        <time>2022-01-29T14:42:56+01:00</time>
      </trkpt>
      <trkpt lat="42.72276" lon="0.19513">
        <ele>1800</ele>
        <time>2022-01-29T14:43:07+01:00</time>
      </trkpt>
      <trkpt lat="42.72279" lon="0.19518">
        <ele>1800</ele>
        <time>2022-01-29T14:43:17+01:00</time>
      </trkpt>
      <trkpt lat="42.72278" lon="0.19527">
        <ele>1798</ele>
        <time>2022-01-29T14:43:29+01:00</time>
      </trkpt>
      <trkpt lat="42.72278" lon="0.19533">
        <ele>1796</ele>
        <time>2022-01-29T14:43:45+01:00</time>
      </trkpt>
      <trkpt lat="42.72279" lon="0.19552">
        <ele>1794</ele>
        <time>2022-01-29T14:44:02+01:00</time>
      </trkpt>
      <trkpt lat="42.72277" lon="0.19559">
        <ele>1792</ele>
        <time>2022-01-29T14:44:13+01:00</time>
      </trkpt>
      <trkpt lat="42.72277" lon="0.19572">
        <ele>1791</ele>
        <time>2022-01-29T14:44:27+01:00</time>
      </trkpt>
      <trkpt lat="42.72276" lon="0.19582">
        <ele>1789</ele>
        <time>2022-01-29T14:44:41+01:00</time>
      </trkpt>
      <trkpt lat="42.72275" lon="0.19595">
        <ele>1784</ele>
        <time>2022-01-29T14:44:54+01:00</time>
      </trkpt>
      <trkpt lat="42.72275" lon="0.19607">
        <ele>1781</ele>
        <time>2022-01-29T14:45:08+01:00</time>
      </trkpt>
      <trkpt lat="42.72275" lon="0.19621">
        <ele>1777</ele>
        <time>2022-01-29T14:45:20+01:00</time>
      </trkpt>
      <trkpt lat="42.72278" lon="0.19635">
        <ele>1775</ele>
        <time>2022-01-29T14:45:35+01:00</time>
      </trkpt>
      <trkpt lat="42.72279" lon="0.19646">
        <ele>1777</ele>
        <time>2022-01-29T14:45:46+01:00</time>
      </trkpt>
      <trkpt lat="42.72275" lon="0.19654">
        <ele>1777</ele>
        <time>2022-01-29T14:45:58+01:00</time>
      </trkpt>
      <trkpt lat="42.72267" lon="0.19664">
        <ele>1774</ele>
        <time>2022-01-29T14:46:11+01:00</time>
      </trkpt>
      <trkpt lat="42.72257" lon="0.1967">
        <ele>1766</ele>
        <time>2022-01-29T14:46:22+01:00</time>
      </trkpt>
      <trkpt lat="42.72254" lon="0.19675">
        <ele>1764</ele>
        <time>2022-01-29T14:46:27+01:00</time>
      </trkpt>
      <trkpt lat="42.7225" lon="0.19683">
        <ele>1762</ele>
        <time>2022-01-29T14:46:37+01:00</time>
      </trkpt>
      <trkpt lat="42.72246" lon="0.19702">
        <ele>1760</ele>
        <time>2022-01-29T14:46:50+01:00</time>
      </trkpt>
      <trkpt lat="42.72246" lon="0.19704">
        <ele>1760</ele>
        <time>2022-01-29T14:46:51+01:00</time>
      </trkpt>
      <trkpt lat="42.72248" lon="0.19719">
        <ele>1760</ele>
        <time>2022-01-29T14:47:03+01:00</time>
      </trkpt>
      <trkpt lat="42.72245" lon="0.19723">
        <ele>1758</ele>
        <time>2022-01-29T14:47:11+01:00</time>
      </trkpt>
      <trkpt lat="42.72238" lon="0.19719">
        <ele>1753</ele>
        <time>2022-01-29T14:47:18+01:00</time>
      </trkpt>
      <trkpt lat="42.72228" lon="0.19704">
        <ele>1748</ele>
        <time>2022-01-29T14:47:30+01:00</time>
      </trkpt>
      <trkpt lat="42.72224" lon="0.19696">
        <ele>1746</ele>
        <time>2022-01-29T14:47:36+01:00</time>
      </trkpt>
      <trkpt lat="42.7222" lon="0.19682">
        <ele>1744</ele>
        <time>2022-01-29T14:47:48+01:00</time>
      </trkpt>
      <trkpt lat="42.72214" lon="0.19664">
        <ele>1741</ele>
        <time>2022-01-29T14:48:01+01:00</time>
      </trkpt>
      <trkpt lat="42.72213" lon="0.19664">
        <ele>1740</ele>
        <time>2022-01-29T14:48:03+01:00</time>
      </trkpt>
      <trkpt lat="42.72209" lon="0.19675">
        <ele>1738</ele>
        <time>2022-01-29T14:48:15+01:00</time>
      </trkpt>
      <trkpt lat="42.72206" lon="0.19685">
        <ele>1736</ele>
        <time>2022-01-29T14:48:23+01:00</time>
      </trkpt>
      <trkpt lat="42.72203" lon="0.197">
        <ele>1733</ele>
        <time>2022-01-29T14:48:33+01:00</time>
      </trkpt>
      <trkpt lat="42.72202" lon="0.19706">
        <ele>1732</ele>
        <time>2022-01-29T14:48:37+01:00</time>
      </trkpt>
      <trkpt lat="42.722" lon="0.19716">
        <ele>1731</ele>
        <time>2022-01-29T14:48:43+01:00</time>
      </trkpt>
      <trkpt lat="42.72199" lon="0.19731">
        <ele>1728</ele>
        <time>2022-01-29T14:48:54+01:00</time>
      </trkpt>
      <trkpt lat="42.72202" lon="0.19745">
        <ele>1728</ele>
        <time>2022-01-29T14:49:03+01:00</time>
      </trkpt>
      <trkpt lat="42.72204" lon="0.19758">
        <ele>1728</ele>
        <time>2022-01-29T14:49:13+01:00</time>
      </trkpt>
      <trkpt lat="42.72195" lon="0.19774">
        <ele>1718</ele>
        <time>2022-01-29T14:49:27+01:00</time>
      </trkpt>
      <trkpt lat="42.72185" lon="0.19787">
        <ele>1719</ele>
        <time>2022-01-29T14:49:37+01:00</time>
      </trkpt>
      <trkpt lat="42.72174" lon="0.19799">
        <ele>1715</ele>
        <time>2022-01-29T14:49:44+01:00</time>
      </trkpt>
      <trkpt lat="42.72171" lon="0.19802">
        <ele>1714</ele>
        <time>2022-01-29T14:49:47+01:00</time>
      </trkpt>
      <trkpt lat="42.72167" lon="0.19808">
        <ele>1712</ele>
        <time>2022-01-29T14:49:52+01:00</time>
      </trkpt>
      <trkpt lat="42.72165" lon="0.1981">
        <ele>1712</ele>
        <time>2022-01-29T14:49:55+01:00</time>
      </trkpt>
      <trkpt lat="42.72161" lon="0.19816">
        <ele>1712</ele>
        <time>2022-01-29T14:49:59+01:00</time>
      </trkpt>
      <trkpt lat="42.72154" lon="0.19833">
        <ele>1714</ele>
        <time>2022-01-29T14:50:12+01:00</time>
      </trkpt>
      <trkpt lat="42.7215" lon="0.19844">
        <ele>1711</ele>
        <time>2022-01-29T14:50:24+01:00</time>
      </trkpt>
      <trkpt lat="42.72143" lon="0.19858">
        <ele>1705</ele>
        <time>2022-01-29T14:50:34+01:00</time>
      </trkpt>
      <trkpt lat="42.72135" lon="0.19872">
        <ele>1704</ele>
        <time>2022-01-29T14:50:43+01:00</time>
      </trkpt>
      <trkpt lat="42.72127" lon="0.19892">
        <ele>1704</ele>
        <time>2022-01-29T14:50:56+01:00</time>
      </trkpt>
      <trkpt lat="42.72122" lon="0.19896">
        <ele>1699</ele>
        <time>2022-01-29T14:51:02+01:00</time>
      </trkpt>
      <trkpt lat="42.72122" lon="0.19891">
        <ele>1699</ele>
        <time>2022-01-29T14:51:06+01:00</time>
      </trkpt>
      <trkpt lat="42.72121" lon="0.19879">
        <ele>1695</ele>
        <time>2022-01-29T14:51:15+01:00</time>
      </trkpt>
      <trkpt lat="42.72121" lon="0.19878">
        <ele>1694</ele>
        <time>2022-01-29T14:51:16+01:00</time>
      </trkpt>
      <trkpt lat="42.72121" lon="0.19874">
        <ele>1693</ele>
        <time>2022-01-29T14:51:18+01:00</time>
      </trkpt>
      <trkpt lat="42.72121" lon="0.19866">
        <ele>1691</ele>
        <time>2022-01-29T14:51:22+01:00</time>
      </trkpt>
      <trkpt lat="42.72118" lon="0.19844">
        <ele>1688</ele>
        <time>2022-01-29T14:51:34+01:00</time>
      </trkpt>
      <trkpt lat="42.72116" lon="0.19828">
        <ele>1686</ele>
        <time>2022-01-29T14:51:45+01:00</time>
      </trkpt>
      <trkpt lat="42.72114" lon="0.19816">
        <ele>1685</ele>
        <time>2022-01-29T14:51:53+01:00</time>
      </trkpt>
      <trkpt lat="42.72113" lon="0.1981">
        <ele>1684</ele>
        <time>2022-01-29T14:51:57+01:00</time>
      </trkpt>
      <trkpt lat="42.72113" lon="0.19803">
        <ele>1684</ele>
        <time>2022-01-29T14:52:01+01:00</time>
      </trkpt>
      <trkpt lat="42.72113" lon="0.19798">
        <ele>1683</ele>
        <time>2022-01-29T14:52:04+01:00</time>
      </trkpt>
      <trkpt lat="42.72113" lon="0.19787">
        <ele>1682</ele>
        <time>2022-01-29T14:52:13+01:00</time>
      </trkpt>
      <trkpt lat="42.72109" lon="0.19782">
        <ele>1679</ele>
        <time>2022-01-29T14:52:25+01:00</time>
      </trkpt>
      <trkpt lat="42.72107" lon="0.19796">
        <ele>1680</ele>
        <time>2022-01-29T14:52:38+01:00</time>
      </trkpt>
      <trkpt lat="42.72105" lon="0.19809">
        <ele>1679</ele>
        <time>2022-01-29T14:52:53+01:00</time>
      </trkpt>
      <trkpt lat="42.721" lon="0.19824">
        <ele>1677</ele>
        <time>2022-01-29T14:53:07+01:00</time>
      </trkpt>
      <trkpt lat="42.72096" lon="0.19839">
        <ele>1675</ele>
        <time>2022-01-29T14:53:22+01:00</time>
      </trkpt>
      <trkpt lat="42.72092" lon="0.19853">
        <ele>1673</ele>
        <time>2022-01-29T14:53:37+01:00</time>
      </trkpt>
      <trkpt lat="42.72087" lon="0.19861">
        <ele>1671</ele>
        <time>2022-01-29T14:53:50+01:00</time>
      </trkpt>
      <trkpt lat="42.72085" lon="0.19866">
        <ele>1670</ele>
        <time>2022-01-29T14:53:54+01:00</time>
      </trkpt>
      <trkpt lat="42.72082" lon="0.19869">
        <ele>1669</ele>
        <time>2022-01-29T14:53:57+01:00</time>
      </trkpt>
      <trkpt lat="42.72077" lon="0.19867">
        <ele>1668</ele>
        <time>2022-01-29T14:54:00+01:00</time>
      </trkpt>
      <trkpt lat="42.72062" lon="0.19859">
        <ele>1664</ele>
        <time>2022-01-29T14:54:14+01:00</time>
      </trkpt>
      <trkpt lat="42.72064" lon="0.19861">
        <ele>1665</ele>
        <time>2022-01-29T14:54:28+01:00</time>
      </trkpt>
      <trkpt lat="42.72062" lon="0.19861">
        <ele>1664</ele>
        <time>2022-01-29T14:54:57+01:00</time>
      </trkpt>
      <trkpt lat="42.72062" lon="0.19864">
        <ele>1665</ele>
        <time>2022-01-29T14:55:29+01:00</time>
      </trkpt>
      <trkpt lat="42.72061" lon="0.19863">
        <ele>1664</ele>
        <time>2022-01-29T14:55:59+01:00</time>
      </trkpt>
      <trkpt lat="42.7206" lon="0.19864">
        <ele>1664</ele>
        <time>2022-01-29T14:56:27+01:00</time>
      </trkpt>
      <trkpt lat="42.7206" lon="0.19868">
        <ele>1664</ele>
        <time>2022-01-29T14:56:56+01:00</time>
      </trkpt>
      <trkpt lat="42.7206" lon="0.1986">
        <ele>1664</ele>
        <time>2022-01-29T14:57:37+01:00</time>
      </trkpt>
      <trkpt lat="42.72061" lon="0.19865">
        <ele>1664</ele>
        <time>2022-01-29T14:58:17+01:00</time>
      </trkpt>
      <trkpt lat="42.72059" lon="0.19865">
        <ele>1664</ele>
        <time>2022-01-29T14:58:54+01:00</time>
      </trkpt>
      <trkpt lat="42.72058" lon="0.19864">
        <ele>1664</ele>
        <time>2022-01-29T14:59:30+01:00</time>
      </trkpt>
      <trkpt lat="42.7206" lon="0.1986">
        <ele>1664</ele>
        <time>2022-01-29T15:00:05+01:00</time>
      </trkpt>
      <trkpt lat="42.72061" lon="0.19858">
        <ele>1664</ele>
        <time>2022-01-29T15:00:38+01:00</time>
      </trkpt>
      <trkpt lat="42.72062" lon="0.19862">
        <ele>1664</ele>
        <time>2022-01-29T15:01:14+01:00</time>
      </trkpt>
      <trkpt lat="42.72064" lon="0.19859">
        <ele>1665</ele>
        <time>2022-01-29T15:01:59+01:00</time>
      </trkpt>
      <trkpt lat="42.72064" lon="0.19861">
        <ele>1665</ele>
        <time>2022-01-29T15:02:36+01:00</time>
      </trkpt>
      <trkpt lat="42.72065" lon="0.19863">
        <ele>1665</ele>
        <time>2022-01-29T15:03:17+01:00</time>
      </trkpt>
      <trkpt lat="42.72068" lon="0.19863">
        <ele>1666</ele>
        <time>2022-01-29T15:03:55+01:00</time>
      </trkpt>
      <trkpt lat="42.72063" lon="0.19862">
        <ele>1665</ele>
        <time>2022-01-29T15:04:43+01:00</time>
      </trkpt>
      <trkpt lat="42.72063" lon="0.1986">
        <ele>1664</ele>
        <time>2022-01-29T15:05:17+01:00</time>
      </trkpt>
      <trkpt lat="42.72066" lon="0.19861">
        <ele>1665</ele>
        <time>2022-01-29T15:05:46+01:00</time>
      </trkpt>
    </trkseg>
  </trk>
</gpx>